[[{"header":{"parameterUnit":"m.s-1","parameterCategory":1,"la1":31.0,"la2":29.5877,"lo1":-88.7671,"lo2":-86.6584,"dy":0.0162,"dx":0.0185,"nx":115,"ny":88,"refTime":"2026-04-16T00:00:00:Z","depth":0,"parameterNumber":2,"parameterNumberName":"U-component_of_WINDS"},"data":[0.0,0.0,0.0,0.0,0.0,0.0,0.0,0.0,0.0,0.0,0.0,0.0,0.0,0.0,0.0,0.0,0.0,0.0,0.0,0.0,0.0,0.0,0.0,0.0,0.0,0.0,0.0,0.0,0.0,0.0,0.0,0.0,0.0,0.0,0.0,0.0,0.0,0.0,0.0,0.0,0.0,0.0,0.0,0.0,0.0,0.0,0.0,0.0,0.0,0.0,0.0,0.0,0.0,0.0,0.0,0.0,0.0,0.0,0.0,0.0,0.0,0.0,0.0,0.0,0.0,0.0,0.0,0.0,0.0,0.0,0.0,0.0,0.0,0.0,0.0,0.0,0.0,0.0,0.0,0.0,0.0,0.0,0.0,0.0,0.0,0.0,0.0,0.0,0.0,0.0,0.0,0.0,0.0,0.0,0.0,0.0,0.0,0.0,0.0,0.0,0.0,0.0,0.0,0.0,0.0,0.0,0.0,0.0,0.0,0.0,0.0,0.0,0.0,0.0,0.0,0.0,0.0,0.0,0.0,0.0,0.0,0.0,0.0,0.0,0.0,0.0,0.0,0.0,0.0,0.0,0.0,0.0,0.0,0.0,0.0,0.0,0.0,0.0,0.0,0.0,0.0,0.0,0.0,0.0,0.0,0.0,0.0,0.0,0.0,0.0,0.0,0.0,0.0,0.0,0.0,0.0,0.0,0.0,0.0,0.0,0.0,0.0,0.0,0.0,0.0,0.0,0.0,0.0,0.0,0.0,0.0,0.0,0.0,0.0,0.0,0.0,0.0,0.0,0.0,0.0,0.0,0.0,0.0,0.0,0.0,0.0,0.0,0.0,0.0,0.0,0.0,0.0,0.0,0.0,0.0,0.0,0.0,0.0,0.0,0.0,0.0,0.0,0.0,0.0,0.0,0.0,0.0,0.0,0.0,0.0,0.0,0.0,0.0,0.0,0.0,0.0,0.0,0.0,0.0,0.0,0.0,0.0,0.0,0.0,0.0,0.0,0.0,0.0,0.0,0.0,0.0,0.0,0.0,0.0,0.0,0.0,0.0,0.0,0.0,0.0,0.0,0.0,0.0,0.0,0.0,0.0,0.0,0.0,0.0,0.0,0.0,0.0,0.0,0.0,0.0,0.0,0.0,0.0,0.0,0.0,0.0,0.0,0.0,0.0,0.0,0.0,0.0,0.0,0.0,0.0,0.0,0.0,0.0,0.0,0.0,0.0,0.0,0.0,0.0,0.0,0.0,0.0,0.0,0.0,0.0,0.0,0.0,0.0,0.0,0.0,0.0,0.0,0.0,0.0,0.0,0.0,0.0,0.0,0.0,0.0,0.0,0.0,0.0,0.0,0.0,0.0,0.0,0.0,0.0,0.0,0.0,0.0,0.0,0.0,0.0,0.0,0.0,0.0,0.0,0.0,0.0,0.0,0.0,0.0,0.0,0.0,0.0,0.0,0.0,0.0,0.0,0.0,0.0,0.0,0.0,0.0,0.0,0.0,0.0,0.0,0.0,0.0,0.0,0.0,0.0,0.0,0.0,0.0,0.0,0.0,0.0,0.0,0.0,0.0,0.0,0.0,0.0,0.0,0.0,0.0,0.0,0.0,0.0,0.0,0.0,0.0,0.0,0.0,0.0,0.0,0.0,0.0,0.0,0.0,0.0,0.0,0.0,0.0,0.0,0.0,0.0,0.0,0.0,0.0,0.0,0.0,0.0,0.0,0.0,0.0,0.0,0.0,0.0,0.0,0.0,0.0,0.0,0.0,0.0,0.0,0.0,0.0,0.0,0.0,0.0,0.0,0.0,0.0,0.0,0.0,0.0,0.0,0.0,0.0,0.0,0.0,0.0,0.0,0.0,0.0,0.0,0.0,0.0,0.0,0.0,0.0,0.0,0.0,0.0,0.0,0.0,0.0,0.0,0.0,0.0,0.0,0.0,0.0,0.0,0.0,0.0,0.0,0.0,0.0,0.0,0.0,0.0,0.0,0.0,0.0,0.0,0.0,0.0,0.0,0.0,0.0,0.0,0.0,0.0,0.0,0.0,0.0,0.0,0.0,0.0,0.0,0.0,0.0,0.0,0.0,0.0,0.0,0.0,0.0,0.0,0.0,0.0,0.0,0.0,0.0,0.0,0.0,0.0,0.0,0.0,0.0,0.0,0.0,0.0,0.0,0.0,0.0,0.0,0.0,0.0,0.0,0.0,0.0,0.0,0.0,0.0,0.0,0.0,0.0,0.0,0.0,0.0,0.0,0.0,0.0,0.0,0.0,0.0,0.0,0.0,0.0,0.0,0.0,0.0,0.0,0.0,0.0,0.0,0.0,0.0,0.0,0.0,0.0,0.0,0.0,0.0,0.0,0.0,0.0,0.0,0.0,0.0,0.0,0.0,0.0,0.0,0.0,0.0,0.0,0.0,0.0,0.0,0.0,0.0,0.0,0.0,0.0,0.0,0.0,0.0,0.0,0.0,0.0,0.0,0.0,0.0,0.0,0.0,0.0,0.0,0.0,0.0,0.0,0.0,0.0,0.0,0.0,0.0,0.0,0.0,0.0,0.0,0.0,0.0,0.0,0.0,0.0,0.0,0.0,0.0,0.0,0.0,0.0,0.0,0.0,0.0,0.0,0.0,0.0,0.0,0.0,0.0,0.0,0.0,0.0,0.0,0.0,0.0,0.0,0.0,0.0,0.0,0.0,0.0,0.0,0.0,0.0,0.0,0.0,0.0,0.0,0.0,0.0,0.0,0.0,0.0,0.0,0.0,0.0,0.0,0.0,0.0,0.0,0.0,0.0,0.0,0.0,0.0,0.0,0.0,0.0,0.0,0.0,0.0,0.0,0.0,0.0,0.0,0.0,0.0,0.0,0.0,0.0,0.0,0.0,0.0,0.0,0.0,0.0,0.0,0.0,0.0,0.0,0.0,0.0,0.0,0.0,0.0,0.0,0.0,0.0,0.0,0.0,0.0,0.0,0.0,0.0,0.0,0.0,0.0,0.0,0.0,0.0,0.0,0.0,0.0,0.0,0.0,0.0,0.0,0.0,0.0,0.0,0.0,0.0,0.0,0.0,0.0,0.0,0.0,0.0,0.0,0.0,0.0,0.0,0.0,0.0,0.0,0.0,0.0,0.0,0.0,0.0,0.0,0.0,0.0,0.0,0.0,0.0,0.0,0.0,0.0,0.0,0.0,0.0,0.0,0.0,0.0,0.0,0.0,0.0,0.0,0.0,0.0,0.0,0.0,0.0,0.0,0.0,0.0,0.0,0.0,0.0,0.0,0.0,0.0,0.0,0.0,0.0,0.0,0.0,0.0,0.0,0.0,0.0,0.0,0.0,0.0,0.0,0.0,0.0,0.0,0.0,0.0,0.0,0.0,0.0,0.0,0.0,0.0,0.0,0.0,0.0,0.0,0.0,0.0,0.0,0.0,0.0,0.0,0.0,0.0,0.0,0.0,0.0,0.0,0.0,0.0,0.0,0.0,0.0,0.0,0.0,0.0,0.0,0.0,0.0,0.0,0.0,0.0,0.0,0.0,0.0,0.0,0.0,0.0,0.0,0.0,0.0,0.0,0.0,0.0,0.0,0.0,0.0,0.0,0.0,0.0,0.0,0.0,0.0,0.0,0.0,0.0,0.0,0.0,0.0,0.0,0.0,0.0,0.0,0.0,0.0,0.0,0.0,0.0,0.0,0.0,0.0,0.0,0.0,0.0,0.0,0.0,0.0,0.0,0.0,0.0,0.0,0.0,0.0,0.0,0.0,0.0,0.0,0.0,0.0,0.0,0.0,0.0,0.0,0.0,0.0,0.0,0.0,0.0,0.0,0.0,0.0,0.0,0.0,0.0,0.0,0.0,0.0,0.0,0.0,0.0,0.0,0.0,0.0,0.0,0.0,0.0,0.0,0.0,0.0,0.0,0.0,0.0,0.0,0.0,0.0,0.0,0.0,0.0,0.0,0.0,0.0,0.0,0.0,0.0,0.0,0.0,0.0,0.0,0.0,0.0,0.0,0.0,0.0,0.0,0.0,0.0,0.0,0.0,0.0,0.0,0.0,0.0,0.0,0.0,0.0,0.0,0.0,0.0,0.0,0.0,0.0,0.0,0.0,0.0,0.0,0.0,0.0,0.0,0.0,0.0,0.0,0.0,0.0,0.0,0.0,0.0,0.0,0.0,0.0,0.0,0.0,0.0,0.0,0.0,0.0,0.0,0.0,0.0,0.0,0.0,0.0,0.0,0.0,0.0,0.0,0.0,0.0,0.0,0.0,0.0,0.0,0.0,0.0,-0.4204,0.0,0.0,0.0,0.0,0.0,0.0,0.0,0.0,0.0,0.0,0.0,0.0,0.0,0.0,0.0,0.0,0.0,0.0,0.0,0.0,0.0,0.0,0.0,0.0,0.0,0.0,0.0,0.0,0.0,0.0,0.0,0.0,0.0,0.0,0.0,0.0,0.0,0.0,0.0,0.0,0.0,0.0,0.0,0.0,0.0,0.0,0.0,0.0,0.0,0.0,0.0,0.0,0.0,0.0,0.0,0.0,0.0,0.0,0.0,0.0,0.0,0.0,0.0,0.0,0.0,0.0,0.0,0.0,0.0,0.0,0.0,0.0,0.0,0.0,0.0,0.0,0.0,0.0,0.0,0.0,0.0,0.0,0.0,0.0,0.0,0.0,0.0,0.0,0.0,0.0,0.0,0.0,0.0,0.0,0.0,0.0,0.0,0.0,0.0,0.0,0.0,0.0,0.0,0.0,0.0,0.0,0.0,0.0,0.0,0.0,-0.4079,-0.4477,-0.4287,-0.4211,-0.4197,0.0,0.0,0.0,0.0,0.0,0.0,0.0,0.0,0.0,0.0,0.0,0.0,0.0,0.0,0.0,0.0,0.0,0.0,0.0,0.0,0.0,0.0,0.0,0.0,0.0,0.0,0.0,0.0,0.0,0.0,0.0,0.0,0.0,0.0,0.0,0.0,0.0,0.0,0.0,0.0,0.0,0.0,0.0,0.0,0.0,0.0,0.0,0.0,0.0,0.0,0.0,0.0,0.0,0.0,0.0,0.0,0.0,0.0,0.0,0.0,0.0,0.0,0.0,0.0,0.0,0.0,0.0,0.0,0.0,0.0,0.0,0.0,0.0,0.0,0.0,0.0,0.0,0.0,0.0,0.0,0.0,0.0,0.0,0.0,0.0,0.0,0.0,0.0,0.0,0.0,0.0,0.0,0.0,0.0,0.0,0.0,0.0,0.0,0.0,0.0,0.0,0.0,0.0,0.0,0.0,0.0,0.0,0.0,0.0,0.0,0.0,0.0,-0.4375,-0.4331,-0.4407,0.0,0.0,0.0,0.0,0.0,0.0,0.0,0.0,0.0,0.0,0.0,0.0,0.0,0.0,0.0,0.0,0.0,0.0,0.0,0.0,0.0,0.0,0.0,0.0,0.0,0.0,0.0,0.0,0.0,0.0,0.0,0.0,0.0,0.0,0.0,0.0,0.0,0.0,0.0,0.0,0.0,0.0,0.0,0.0,0.0,0.0,0.0,0.0,0.0,0.0,0.0,0.0,0.0,0.0,0.0,0.0,0.0,0.0,0.0,0.0,0.0,0.0,0.0,0.0,0.0,0.0,0.0,0.0,0.0,0.0,0.0,0.0,0.0,0.0,0.0,0.0,0.0,0.0,0.0,0.0,0.0,0.0,0.0,0.0,0.0,0.0,0.0,0.0,0.0,0.0,0.0,0.0,0.0,0.0,0.0,0.0,0.0,0.0,0.0,0.0,0.0,0.0,0.0,0.0,0.0,0.0,0.0,0.0,0.0,0.0,-0.4197,-0.4496,-0.4604,0.0,-0.512,0.0,0.0,0.0,0.0,0.0,0.0,0.0,0.0,0.0,0.0,0.0,0.0,0.0,0.0,0.0,0.0,0.0,0.0,0.0,0.0,0.0,0.0,0.0,0.0,0.0,0.0,0.0,0.0,0.0,0.0,0.0,0.0,0.0,0.0,0.0,0.0,0.0,0.0,0.0,0.0,0.0,0.0,0.0,0.0,0.0,0.0,0.0,0.0,0.0,0.0,0.0,0.0,0.0,0.0,0.0,0.0,0.0,0.0,0.0,0.0,0.0,0.0,0.0,0.0,0.0,0.0,0.0,0.0,0.0,0.0,0.0,0.0,0.0,0.0,0.0,0.0,0.0,0.0,0.0,0.0,0.0,0.0,0.0,0.0,0.0,0.0,0.0,0.0,0.0,0.0,0.0,0.0,0.0,0.0,0.0,0.0,0.0,0.0,0.0,0.0,0.0,0.0,0.0,0.0,0.0,0.0,0.0,0.0,0.0,0.0,0.0,-0.5936,-0.5618,-0.5205,0.0,0.0,0.0,0.0,0.0,0.0,0.0,0.0,0.0,0.0,0.0,0.0,0.0,0.0,0.0,0.0,0.0,0.0,0.0,0.0,0.0,0.0,0.0,0.0,0.0,0.0,0.0,0.0,0.0,0.0,0.0,0.0,0.0,0.0,0.0,0.0,0.0,0.0,0.0,0.0,0.0,0.0,0.0,0.0,0.0,0.0,0.0,0.0,0.0,0.0,0.0,0.0,0.0,0.0,0.0,0.0,0.0,0.0,0.0,0.0,0.0,0.0,0.0,0.0,0.0,0.0,0.0,0.0,0.0,0.0,0.0,0.0,0.0,0.0,0.0,0.0,0.0,0.0,0.0,0.0,0.0,0.0,0.0,0.0,0.0,0.0,0.0,0.0,0.0,0.0,0.0,0.0,0.0,0.0,0.0,0.0,0.0,0.0,0.0,0.0,0.0,0.0,0.0,0.0,0.0,0.0,0.0,0.0,0.0,0.0,-0.4066,0.0,-0.6678,-0.6548,-0.5882,-0.4754,0.0,0.0,0.0,0.0,0.0,0.0,0.0,0.0,0.0,0.0,0.0,0.0,0.0,0.0,0.0,0.0,0.0,0.0,0.0,0.0,0.0,0.0,0.0,0.0,0.0,0.0,0.0,0.0,0.0,0.0,0.0,0.0,0.0,0.0,0.0,0.0,0.0,0.0,0.0,0.0,0.0,0.0,0.0,0.0,0.0,0.0,0.0,0.0,0.0,0.0,0.0,0.0,0.0,0.0,0.0,0.0,0.0,0.0,0.0,0.0,0.0,0.0,0.0,0.0,0.0,0.0,0.0,0.0,0.0,0.0,0.0,0.0,0.0,0.0,0.0,0.0,0.0,0.0,0.0,0.0,0.0,0.0,0.0,0.0,0.0,0.0,0.0,0.0,0.0,0.0,0.0,0.0,0.0,0.0,0.0,0.0,0.0,0.0,0.0,0.0,0.0,0.0,0.0,0.0,0.0,0.0,0.0,0.0,0.0,-0.4449,-0.552,-0.6449,-0.7064,-0.6972,0.0,0.0,0.0,0.0,0.0,0.0,0.0,0.0,0.0,0.0,0.0,0.0,0.0,0.0,0.0,0.0,0.0,0.0,0.0,0.0,0.0,0.0,0.0,0.0,0.0,0.0,0.0,0.0,0.0,0.0,0.0,0.0,0.0,0.0,0.0,0.0,0.0,0.0,0.0,0.0,0.0,0.0,0.0,0.0,0.0,0.0,0.0,0.0,0.0,0.0,0.0,0.0,0.0,0.0,0.0,0.0,0.0,0.0,0.0,0.0,0.0,0.0,0.0,0.0,0.0,0.0,0.0,0.0,0.0,0.0,0.0,0.0,0.0,0.0,0.0,0.0,0.0,0.0,0.0,0.0,0.0,0.0,0.0,0.0,0.0,0.0,0.0,0.0,0.0,0.0,0.0,0.0,0.0,0.0,0.0,0.0,0.0,0.0,0.0,0.0,0.0,0.0,0.0,0.0,0.0,0.0,0.0,0.0,0.0,-0.3155,-0.5549,-0.678,-0.6613,-0.7069,-0.6984,0.0,0.0,0.0,0.0,0.0,0.0,0.0,0.0,0.0,0.0,0.0,0.0,0.0,0.0,0.0,0.0,0.0,0.0,0.0,0.0,0.0,0.0,0.0,0.0,0.0,0.0,0.0,0.0,0.0,0.0,0.0,0.0,0.0,0.0,0.0,0.0,0.0,0.0,0.0,0.0,0.0,0.0,0.0,0.0,0.0,0.0,0.0,0.0,0.0,0.0,0.0,0.0,0.0,0.0,0.0,0.0,0.0,0.0,0.0,0.0,0.0,0.0,0.0,0.0,0.0,0.0,0.0,0.0,0.0,0.0,0.0,0.0,0.0,0.0,0.0,0.0,0.0,0.0,0.0,0.0,0.0,0.0,0.0,0.0,0.0,0.0,0.0,0.0,0.0,0.0,0.0,0.0,0.0,0.0,0.0,0.0,0.0,0.0,0.0,0.0,0.0,0.0,0.0,0.0,0.0,0.0,0.0,0.0,0.0,-0.4294,0.0,-0.7597,0.0,-0.7314,-0.7068,0.0,0.0,0.0,0.0,0.0,0.0,0.0,0.0,0.0,0.0,0.0,0.0,0.0,0.0,0.0,0.0,0.0,0.0,0.0,0.0,0.0,0.0,0.0,0.0,0.0,0.0,0.0,0.0,0.0,0.0,0.0,0.0,0.0,0.0,0.0,0.0,0.0,0.0,0.0,0.0,0.0,0.0,0.0,0.0,0.0,0.0,0.0,0.0,0.0,0.0,0.0,0.0,0.0,0.0,0.0,0.0,0.0,0.0,0.0,0.0,0.0,0.0,0.0,0.0,0.0,0.0,0.0,0.0,0.0,0.0,0.0,0.0,0.0,0.0,0.0,0.0,0.0,0.0,0.0,0.0,0.0,0.0,0.0,0.0,0.0,0.0,0.0,0.0,0.0,0.0,0.0,0.0,0.0,0.0,0.0,0.0,0.0,0.0,0.0,0.0,0.0,0.0,0.0,0.0,0.0,0.0,0.0,0.0,-0.4763,-0.6924,-0.7608,-0.7989,-0.789,-0.7889,-0.7404,0.0,0.0,0.0,0.0,0.0,0.0,0.0,0.0,0.0,0.0,0.0,0.0,0.0,0.0,0.0,0.0,0.0,0.0,0.0,0.0,0.0,0.0,0.0,0.0,0.0,0.0,0.0,0.0,0.0,0.0,0.0,0.0,0.0,0.0,0.0,0.0,0.0,0.0,0.0,0.0,0.0,0.0,0.0,0.0,0.0,0.0,0.0,0.0,0.0,0.0,0.0,0.0,0.0,0.0,0.0,0.0,0.0,0.0,0.0,0.0,0.0,0.0,0.0,0.0,0.0,0.0,0.0,0.0,0.0,0.0,0.0,0.0,0.0,0.0,0.0,0.0,0.0,0.0,0.0,0.0,0.0,0.0,0.0,0.0,0.0,0.0,0.0,0.0,0.0,0.0,0.0,0.0,0.0,0.0,0.0,0.0,0.0,0.0,0.0,0.0,0.0,0.0,0.0,0.0,0.0,0.0,0.0,0.0,0.0,-0.679,-0.8269,-0.8934,-0.8721,-0.7876,-0.7502,0.0,0.0,0.0,0.0,0.0,0.0,0.0,0.0,0.0,0.0,0.0,0.0,0.0,0.0,0.0,0.0,0.0,0.0,0.0,0.0,0.0,0.0,0.0,0.0,0.0,0.0,0.0,0.0,0.0,0.0,0.0,0.0,0.0,0.0,0.0,0.0,0.0,0.0,0.0,0.0,0.0,0.0,0.0,0.0,0.0,0.0,0.0,0.0,0.0,0.0,0.0,0.0,0.0,0.0,0.0,0.0,0.0,0.0,0.0,0.0,0.0,0.0,0.0,0.0,0.0,0.0,0.0,0.0,0.0,0.0,0.0,0.0,0.0,0.0,0.0,0.0,0.0,0.0,0.0,0.0,0.0,0.0,0.0,0.0,0.0,0.0,0.0,0.0,0.0,0.0,0.0,0.0,0.0,0.0,0.0,0.0,0.0,0.0,0.0,0.0,0.0,0.0,0.0,0.0,0.0,0.0,0.0,0.0,0.0,-0.7589,-0.9053,-0.9596,-0.9126,-0.8226,-0.7834,-0.8015,0.0,0.0,0.0,0.0,0.0,0.0,0.0,0.0,0.0,0.0,0.0,0.0,0.0,0.0,0.0,0.0,0.0,0.0,0.0,0.0,0.0,0.0,0.0,0.0,0.0,0.0,0.0,0.0,0.0,0.0,0.0,0.0,0.0,0.0,0.0,0.0,0.0,0.0,0.0,0.0,0.0,0.0,0.0,0.0,0.0,0.0,0.0,0.0,0.0,0.0,0.0,0.0,0.0,0.0,0.0,0.0,0.0,0.0,0.0,0.0,0.0,0.0,0.0,0.0,0.0,0.0,0.0,0.0,0.0,0.0,0.0,0.0,0.0,0.0,0.0,0.0,0.0,0.0,0.0,0.0,0.0,0.0,0.0,0.0,0.0,0.0,0.0,0.0,0.0,0.0,0.0,0.0,0.0,0.0,0.0,0.0,0.0,0.0,0.0,0.0,0.0,0.0,0.0,0.0,0.0,0.0,0.0,0.0,-0.9063,-0.9872,-0.9968,-0.9246,-0.8843,-0.8377,0.0,0.0,0.0,0.0,0.0,0.0,0.0,0.0,0.0,0.0,0.0,0.0,0.0,0.0,0.0,0.0,0.0,0.0,0.0,0.0,0.0,0.0,0.0,0.0,0.0,0.0,0.0,0.0,0.0,0.0,0.0,0.0,0.0,0.0,0.0,0.0,0.0,0.0,0.0,0.0,0.0,0.0,0.0,0.0,0.0,0.0,0.0,0.0,0.0,0.0,0.0,0.0,0.0,0.0,0.0,0.0,0.0,0.0,0.0,0.0,0.0,0.0,0.0,0.0,0.0,0.0,0.0,0.0,0.0,0.0,0.0,0.0,0.0,0.0,0.0,0.0,0.0,0.0,0.0,0.0,0.0,0.0,0.0,0.0,0.0,0.0,0.0,0.0,0.0,0.0,0.0,0.0,0.0,0.0,0.0,0.0,0.0,0.0,0.0,0.0,0.0,0.0,0.0,0.0,0.0,0.0,0.0,0.0,0.0,-0.8533,-0.9536,-1.0156,-1.0227,-0.9289,-0.8404,0.0,0.0,0.0,0.0,0.0,0.0,0.0,0.0,0.0,0.0,0.0,0.0,0.0,0.0,0.0,0.0,0.0,0.0,0.0,0.0,0.0,0.0,0.0,0.0,0.0,0.0,0.0,0.0,0.0,0.0,0.0,0.0,0.0,0.0,0.0,0.0,0.0,0.0,0.0,0.0,0.0,0.0,0.0,0.0,0.0,0.0,0.0,0.0,0.0,0.0,0.0,0.0,0.0,0.0,0.0,0.0,0.0,0.0,0.0,0.0,0.0,0.0,0.0,0.0,0.0,0.0,0.0,0.0,0.0,0.0,0.0,0.0,0.0,0.0,0.0,0.0,0.0,0.0,0.0,0.0,0.0,0.0,0.0,0.0,0.0,0.0,0.0,0.0,0.0,0.0,0.0,0.0,0.0,0.0,0.0,0.0,0.0,0.0,0.0,0.0,0.0,0.0,0.0,0.0,0.0,0.0,0.0,0.0,-0.8425,-0.971,-1.0405,-1.0877,-1.1063,-1.003,-0.904,0.0,0.0,0.0,0.0,0.0,0.0,0.0,0.0,0.0,0.0,0.0,0.0,0.0,0.0,0.0,0.0,0.0,0.0,0.0,0.0,0.0,0.0,0.0,0.0,0.0,0.0,0.0,0.0,0.0,0.0,0.0,0.0,0.0,0.0,0.0,0.0,0.0,0.0,0.0,0.0,0.0,0.0,0.0,0.0,0.0,0.0,0.0,0.0,0.0,0.0,0.0,0.0,0.0,0.0,0.0,0.0,0.0,0.0,0.0,0.0,0.0,0.0,0.0,0.0,0.0,0.0,0.0,0.0,0.0,0.0,0.0,0.0,0.0,0.0,0.0,0.0,0.0,0.0,0.0,0.0,0.0,0.0,0.0,0.0,0.0,0.0,0.0,0.0,0.0,0.0,0.0,0.0,0.0,0.0,0.0,0.0,0.0,0.0,0.0,0.0,0.0,0.0,0.0,0.0,0.0,0.0,0.0,0.0,-0.976,-1.1266,-1.1653,-1.1677,-1.1331,-1.0843,-0.9777,0.0,0.0,0.0,0.0,0.0,0.0,0.0,0.0,0.0,0.0,0.0,0.0,0.0,0.0,0.0,0.0,0.0,0.0,0.0,0.0,0.0,0.0,0.0,0.0,0.0,0.0,0.0,0.0,0.0,0.0,0.0,0.0,0.0,0.0,0.0,0.0,0.0,0.0,0.0,0.0,0.0,0.0,0.0,0.0,0.0,0.0,0.0,0.0,0.0,0.0,0.0,0.0,0.0,0.0,0.0,0.0,0.0,0.0,0.0,0.0,0.0,0.0,0.0,0.0,0.0,0.0,0.0,0.0,0.0,0.0,0.0,0.0,0.0,0.0,0.0,0.0,0.0,0.0,0.0,0.0,0.0,0.0,0.0,0.0,0.0,0.0,0.0,0.0,0.0,0.0,0.0,0.0,0.0,0.0,0.0,0.0,0.0,0.0,0.0,0.0,0.0,0.0,0.0,0.0,0.0,0.0,0.0,0.0,-0.8772,-0.9771,-1.0751,-1.086,-0.9978,-1.0239,-0.9664,0.0,0.0,0.0,0.0,0.0,0.0,0.0,0.0,0.0,0.0,0.0,0.0,0.0,0.0,0.0,0.0,0.0,0.0,0.0,0.0,0.0,0.0,0.0,0.0,0.0,0.0,0.0,0.0,0.0,0.0,0.0,0.0,0.0,0.0,0.0,0.0,0.0,0.0,0.0,0.0,0.0,0.0,0.0,0.0,0.0,0.0,0.0,0.0,-0.451,0.0,0.0,0.0,0.0,0.0,0.0,0.0,0.0,0.0,0.0,0.0,0.0,0.0,0.0,0.0,0.0,0.0,0.0,0.0,0.0,0.0,0.0,0.0,0.0,0.0,0.0,0.0,0.0,0.0,0.0,0.0,0.0,0.0,0.0,0.0,0.0,0.0,0.0,0.0,0.0,0.0,0.0,0.0,0.0,0.0,0.0,0.0,0.0,0.0,0.0,0.0,0.0,0.0,0.0,0.0,0.0,0.0,0.0,0.0,-0.8699,-0.9627,-1.0221,-1.0386,-0.9994,-0.9795,-0.8897,0.0,0.0,0.0,0.0,0.0,0.0,0.0,0.0,0.0,0.0,0.0,0.0,0.0,0.0,0.0,0.0,0.0,0.0,0.0,0.0,0.0,0.0,0.0,0.0,0.0,0.0,0.0,0.0,0.0,0.0,0.0,0.0,0.0,0.0,0.0,0.0,0.0,0.0,0.0,0.0,0.0,0.0,0.0,0.0,0.0,0.0,0.0,0.0,0.0,0.0,0.0,0.0,0.0,0.0,0.0,0.0,0.0,0.0,0.0,0.0,0.0,0.0,0.0,0.0,0.0,0.0,0.0,0.0,0.0,0.0,0.0,0.0,0.0,0.0,0.0,0.0,0.0,0.0,0.0,0.0,0.0,0.0,0.0,0.0,0.0,0.0,0.0,0.0,0.0,0.0,0.0,0.0,0.0,0.0,0.0,0.0,0.0,0.0,0.0,0.0,0.0,0.0,0.0,0.0,0.0,0.0,0.0,-0.7749,-0.8942,-0.973,-0.9969,-1.0169,-1.0274,-0.9358,-0.8062,-0.6312,0.0,0.0,0.0,0.0,0.0,0.0,0.0,0.0,0.0,0.0,0.0,0.0,0.0,0.0,0.0,0.0,0.0,0.0,0.0,0.0,0.0,0.0,0.0,0.0,0.0,0.0,0.0,0.0,0.0,0.0,0.0,0.0,0.0,0.0,0.0,0.0,0.0,0.0,-0.4534,-0.5014,0.0,0.0,0.0,0.0,0.0,0.0,0.0,0.0,-0.4908,0.0,0.0,0.0,0.0,0.0,0.0,0.0,0.0,0.0,0.0,0.0,0.0,0.0,0.0,0.0,0.0,0.0,0.0,0.0,0.0,0.0,0.0,0.0,0.0,0.0,0.0,0.0,0.0,0.0,0.0,0.0,0.0,0.0,0.0,0.0,0.0,0.0,0.0,0.0,0.0,0.0,0.0,0.0,0.0,0.0,0.0,0.0,0.0,0.0,0.0,0.0,0.0,0.0,0.0,0.0,0.0,-0.5888,-0.7748,-0.8699,-0.8688,-1.0214,-1.0403,-0.9055,-0.8936,-0.8062,-0.6324,0.0,0.0,0.0,0.0,0.0,0.0,0.0,0.0,0.0,0.0,0.0,0.0,0.0,0.0,0.0,0.0,0.0,0.0,0.0,0.0,0.0,0.0,0.0,0.0,0.0,0.0,0.0,0.0,0.0,0.0,0.0,0.0,0.0,0.0,0.0,0.0,0.0,0.0,0.0,-0.5421,-0.549,0.0,0.0,0.0,0.0,0.0,0.0,0.0,0.0,-0.4887,0.0,0.0,0.0,0.0,0.0,0.0,0.0,0.0,0.0,0.0,0.0,0.0,0.0,0.0,0.0,0.0,0.0,0.0,0.0,0.0,0.0,0.0,0.0,0.0,0.0,0.0,0.0,0.0,0.0,0.0,0.0,0.0,0.0,0.0,0.0,0.0,0.0,0.0,0.0,0.0,0.0,0.0,0.0,0.0,0.0,0.0,0.0,0.0,0.0,0.0,0.0,0.0,0.0,0.0,0.0,-0.6565,-0.7409,-0.8184,-0.8958,-0.9081,-0.8614,-0.7671,-0.7581,-0.7005,0.0,0.0,0.0,0.0,0.0,0.0,0.0,0.0,0.0,0.0,0.0,0.0,0.0,0.0,0.0,0.0,0.0,0.0,0.0,0.0,0.0,0.0,0.0,0.0,0.0,0.0,0.0,0.0,0.0,0.0,0.0,0.0,0.0,0.0,0.0,0.0,0.0,0.0,0.0,0.0,-0.5629,-0.5777,-0.5819,0.0,0.0,0.0,0.0,0.0,0.0,-0.5615,-0.544,0.0,0.0,0.0,0.0,0.0,0.0,0.0,0.0,0.0,0.0,0.0,0.0,0.0,0.0,0.0,0.0,0.0,0.0,0.0,0.0,0.0,0.0,0.0,0.0,0.0,0.0,0.0,0.0,0.0,0.0,0.0,0.0,0.0,0.0,0.0,0.0,0.0,0.0,0.0,0.0,0.0,0.0,0.0,0.0,0.0,0.0,0.0,0.0,0.0,0.0,0.0,0.0,0.0,0.0,0.0,-0.6941,-0.7173,-0.7781,-0.8865,-0.7929,-0.7253,-0.6698,-0.6441,-0.6081,0.0,0.0,0.0,0.0,0.0,0.0,0.0,0.0,0.0,0.0,0.0,0.0,0.0,0.0,0.0,0.0,0.0,0.0,0.0,0.0,0.0,0.0,0.0,0.0,0.0,0.0,0.0,0.0,0.0,0.0,0.0,0.0,0.0,0.0,0.0,0.0,0.0,0.0,0.0,0.0,0.0,-0.6212,-0.6287,-0.6117,0.0,0.0,0.0,0.0,-0.632,-0.6368,0.0,0.0,0.0,0.0,0.0,0.0,0.0,0.0,0.0,0.0,0.0,0.0,0.0,0.0,0.0,0.0,0.0,0.0,0.0,0.0,0.0,0.0,0.0,0.0,0.0,0.0,0.0,0.0,0.0,0.0,0.0,0.0,0.0,0.0,0.0,0.0,0.0,0.0,0.0,0.0,0.0,0.0,0.0,0.0,0.0,0.0,0.0,0.0,0.0,0.0,0.0,0.0,0.0,0.0,0.0,0.0,-0.6047,-0.7467,-0.7832,-0.7088,-0.8159,-0.81,-0.6743,-0.6519,-0.6403,0.0,0.0,0.0,0.0,0.0,0.0,0.0,0.0,0.0,0.0,0.0,0.0,0.0,0.0,0.0,0.0,0.0,0.0,0.0,0.0,0.0,0.0,0.0,0.0,0.0,0.0,0.0,0.0,0.0,0.0,0.0,0.0,0.0,0.0,0.0,0.0,0.0,0.0,0.0,0.0,0.0,-0.6991,-0.6462,-0.6457,-0.6643,0.0,0.0,-0.6941,-0.7943,-0.784,0.0,0.0,0.0,0.0,0.0,0.0,0.0,0.0,0.0,0.0,0.0,0.0,0.0,0.0,0.0,0.0,0.0,0.0,0.0,0.0,0.0,0.0,0.0,0.0,0.0,0.0,0.0,0.0,0.0,0.0,0.0,0.0,0.0,0.0,0.0,0.0,0.0,0.0,0.0,0.0,0.0,0.0,0.0,0.0,0.0,0.0,0.0,0.0,0.0,0.0,0.0,0.0,0.0,0.0,0.0,-0.5786,-0.7024,-0.7689,-0.8405,-0.9275,-0.8511,-0.7688,-0.6688,-0.638,-0.5981,0.0,0.0,0.0,0.0,0.0,0.0,0.0,0.0,0.0,0.0,0.0,0.0,0.0,0.0,0.0,0.0,0.0,0.0,0.0,0.0,0.0,0.0,0.0,0.0,0.0,0.0,0.0,0.0,0.0,0.0,0.0,0.0,0.0,0.0,0.0,0.0,0.0,0.0,0.0,0.0,0.0,0.0,-0.7196,-0.7399,0.0,0.0,0.0,-0.7779,-0.8223,0.0,0.0,0.0,0.0,0.0,0.0,0.0,0.0,0.0,0.0,0.0,0.0,0.0,0.0,0.0,0.0,0.0,0.0,0.0,0.0,0.0,0.0,0.0,0.0,0.0,0.0,0.0,0.0,0.0,0.0,0.0,0.0,0.0,0.0,0.0,0.0,0.0,0.0,0.0,0.0,0.0,0.0,0.0,0.0,0.0,0.0,0.0,0.0,0.0,0.0,0.0,0.0,0.0,0.0,0.0,0.0,0.0,-0.75,-0.7729,-0.8716,-1.0532,-0.866,-0.7436,-0.6871,-0.6454,0.0,0.0,0.0,0.0,0.0,0.0,0.0,0.0,0.0,0.0,0.0,0.0,0.0,0.0,0.0,0.0,0.0,0.0,0.0,0.0,0.0,0.0,0.0,0.0,0.0,0.0,0.0,-0.2632,0.0,0.0,0.0,0.0,0.0,0.0,0.0,0.0,0.0,0.0,0.0,0.0,0.0,0.0,-0.756,-0.7979,-0.8326,-0.8595,0.0,0.0,-0.8746,-0.8627,-0.8806,-0.8561,0.0,0.0,0.0,0.0,0.0,0.0,0.0,0.0,0.0,0.0,0.0,0.0,0.0,0.0,0.0,0.0,0.0,0.0,0.0,0.0,0.0,0.0,0.0,0.0,0.0,0.0,0.0,0.0,0.0,0.0,0.0,0.0,0.0,0.0,0.0,0.0,0.0,0.0,0.0,0.0,0.0,0.0,0.0,0.0,0.0,0.0,0.0,0.0,0.0,0.0,0.0,0.0,0.0,0.0,0.0,-0.6587,-0.7493,-0.8279,-0.8732,-0.8384,-0.7865,-0.7289,-0.7025,-0.6393,0.0,0.0,0.0,0.0,0.0,0.0,0.0,0.0,0.0,0.0,0.0,0.0,0.0,0.0,0.0,0.0,0.0,0.0,0.0,0.0,0.0,0.0,0.0,0.0,0.0,0.0,0.0,0.0,0.0,0.0,0.0,0.0,0.0,0.0,0.0,0.0,0.0,0.0,0.0,0.0,0.0,-0.8354,-0.8673,-0.9221,-0.974,0.0,0.0,-0.9947,-0.9826,-1.0179,-0.988,-0.7876,0.0,0.0,0.0,0.0,0.0,0.0,0.0,0.0,0.0,0.0,0.0,0.0,0.0,0.0,0.0,0.0,0.0,0.0,0.0,0.0,0.0,0.0,0.0,0.0,0.0,0.0,0.0,0.0,0.0,0.0,0.0,0.0,0.0,0.0,0.0,0.0,0.0,0.0,0.0,0.0,0.0,0.0,0.0,0.0,0.0,0.0,0.0,0.0,0.0,0.0,0.0,0.0,0.0,-0.5845,-0.652,-0.7493,-0.8195,-0.8552,-0.8296,-0.8045,-0.7718,-0.7205,-0.6477,0.0,0.0,0.0,0.0,0.0,0.0,0.0,0.0,0.0,0.0,0.0,0.0,0.0,0.0,0.0,0.0,0.0,0.0,0.0,0.0,0.0,0.0,0.0,0.0,0.0,0.0,0.0,0.0,-0.3345,-0.3527,-0.3649,0.0,0.0,0.0,0.0,0.0,0.0,0.0,0.0,0.0,0.0,-0.8577,-0.9098,-0.96,0.0,0.0,-1.0331,-1.0331,-1.0365,-1.0113,-0.9533,-0.8259,-0.749,0.0,0.0,0.0,0.0,0.0,0.0,0.0,0.0,0.0,0.0,0.0,0.0,0.0,0.0,0.0,0.0,0.0,0.0,0.0,0.0,0.0,0.0,0.0,0.0,0.0,0.0,0.0,0.0,0.0,0.0,0.0,0.0,0.0,0.0,0.0,0.0,0.0,0.0,0.0,0.0,0.0,0.0,0.0,0.0,0.0,0.0,0.0,0.0,0.0,0.0,0.0,0.0,-0.5909,-0.6591,-0.7497,-0.8191,-0.8644,-0.8329,-0.8166,-0.7962,-0.7359,-0.6718,0.0,0.0,0.0,0.0,0.0,0.0,0.0,0.0,0.0,0.0,0.0,0.0,0.0,0.0,0.0,0.0,0.0,0.0,0.0,0.0,0.0,0.0,0.0,0.0,0.0,0.0,0.0,0.0,-0.3802,-0.3876,-0.3966,0.0,0.0,0.0,0.0,0.0,0.0,0.0,0.0,0.0,0.0,-0.889,-0.9705,-1.0114,-1.0426,-1.0491,-1.0515,-1.0551,-1.0545,-1.0071,-0.9403,-0.8533,0.0,0.0,0.0,0.0,0.0,0.0,0.0,0.0,0.0,0.0,0.0,0.0,0.0,0.0,0.0,0.0,0.0,0.0,0.0,0.0,0.0,0.0,0.0,0.0,0.0,0.0,0.0,0.0,0.0,0.0,-0.364,0.0,0.0,0.0,0.0,0.0,0.0,0.0,0.0,0.0,0.0,0.0,0.0,0.0,0.0,0.0,0.0,0.0,0.0,0.0,0.0,0.0,0.0,0.0,-0.6666,-0.7576,-0.8195,-0.8548,-0.839,-0.8207,-0.8016,-0.7671,-0.707,-0.6218,0.0,0.0,0.0,0.0,0.0,0.0,0.0,0.0,0.0,0.0,0.0,0.0,0.0,0.0,0.0,0.0,0.0,0.0,0.0,0.0,0.0,0.0,0.0,0.0,0.0,0.0,-0.4702,-0.4435,-0.4114,0.0,0.0,0.0,0.0,0.0,0.0,0.0,0.0,0.0,0.0,-0.8725,-0.9544,-1.0503,-1.0918,-1.1063,-1.1081,-1.0882,-1.0635,-1.0405,-1.0321,-0.9892,0.0,0.0,0.0,0.0,0.0,0.0,0.0,0.0,0.0,0.0,0.0,0.0,0.0,0.0,0.0,0.0,0.0,0.0,0.0,0.0,0.0,0.0,0.0,0.0,0.0,0.0,0.0,-0.4787,-0.4562,0.0,0.0,0.0,0.0,0.0,0.0,0.0,0.0,0.0,0.0,0.0,-0.6112,-0.6337,0.0,0.0,0.0,0.0,0.0,0.0,0.0,0.0,0.0,0.0,0.0,0.0,-0.6037,-0.6655,-0.7572,-0.8195,-0.8548,-0.8385,-0.8115,-0.7675,-0.7584,-0.7163,-0.6394,0.0,0.0,0.0,0.0,0.0,0.0,0.0,0.0,0.0,0.0,0.0,0.0,0.0,0.0,0.0,0.0,0.0,0.0,0.0,0.0,0.0,0.0,0.0,0.0,0.0,-0.448,0.0,0.0,0.0,0.0,0.0,0.0,0.0,0.0,0.0,0.0,0.0,-0.7457,-0.8378,-0.9027,-0.9634,-1.0305,-1.0683,-1.0912,0.0,0.0,0.0,0.0,0.0,0.0,0.0,0.0,0.0,0.0,0.0,0.0,0.0,0.0,-0.6107,-0.447,-0.3952,-0.3751,-0.3853,0.0,0.0,0.0,0.0,0.0,0.0,0.0,0.0,0.0,0.0,0.0,0.0,0.0,0.0,-0.5525,0.0,-0.5359,0.0,0.0,0.0,0.0,0.0,0.0,0.0,0.0,-0.6801,-0.7104,-0.7118,-0.7446,-0.7324,0.0,-0.6857,-0.6348,0.0,0.0,0.0,0.0,0.0,0.0,0.0,0.0,-0.6197,-0.6885,-0.7604,-0.8195,-0.8536,-0.8321,-0.7963,-0.7499,-0.7524,-0.7173,-0.6527,-0.6028,-0.5582,0.0,0.0,0.0,0.0,0.0,0.0,0.0,0.0,0.0,0.0,0.0,0.0,0.0,0.0,0.0,0.0,0.0,0.0,0.0,0.0,0.0,0.0,0.0,-0.4835,0.0,0.0,0.0,0.0,0.0,0.0,0.0,0.0,0.0,-0.7066,-0.7704,-0.8395,-0.9192,-0.961,-1.0115,-1.0538,0.0,0.0,0.0,0.0,0.0,0.0,0.0,-1.0125,-0.9243,-0.8373,-0.7233,-0.5607,-0.602,-0.6352,-0.5492,0.0,0.0,-0.4952,-0.4643,-0.4584,-0.4688,-0.4666,-0.4696,-0.4912,-0.5143,-0.5332,0.0,0.0,0.0,0.0,0.0,0.0,0.0,0.0,-0.6023,-0.6148,0.0,-0.6208,0.0,0.0,0.0,0.0,0.0,-0.6596,0.0,0.0,-0.8123,-0.8475,-0.8325,-0.8487,-0.839,-0.8069,-0.8199,-0.7825,-0.6972,-0.5994,0.0,0.0,0.0,0.0,0.0,0.0,-0.6589,-0.7224,-0.7756,-0.8199,-0.854,-0.8207,-0.7839,-0.755,-0.7484,-0.7258,-0.6792,-0.6693,-0.6276,-0.539,-0.5157,0.0,0.0,0.0,0.0,0.0,0.0,0.0,0.0,0.0,0.0,0.0,0.0,0.0,0.0,0.0,0.0,0.0,0.0,0.0,0.0,-0.5129,0.0,0.0,0.0,0.0,0.0,0.0,0.0,0.0,0.0,0.0,-0.7741,-0.8516,-0.9376,-1.0206,0.0,0.0,0.0,0.0,-1.1208,-1.1486,-1.1292,-1.1202,-1.1467,-1.1492,-1.1304,-1.0737,0.0,0.0,-0.6219,-0.6478,-0.6708,-0.5959,-0.5903,-0.5926,-0.6065,-0.5984,-0.5917,-0.5939,-0.58,-0.5901,-0.6121,-0.6293,-0.6423,-0.6601,0.0,0.0,0.0,0.0,-0.663,-0.6848,-0.7224,-0.7232,-0.7243,-0.7087,-0.7108,0.0,0.0,0.0,0.0,0.0,0.0,-0.7642,-0.8073,-0.841,-0.8674,-0.8865,-0.8922,-0.8889,-0.8783,-0.858,-0.8288,-0.7898,-0.7395,-0.6507,-0.5369,0.0,0.0,0.0,0.0,-0.6948,-0.7411,-0.7939,-0.8325,-0.856,-0.8207,-0.7894,-0.7725,-0.7744,-0.7662,-0.7498,-0.7233,-0.6853,-0.6345,-0.5932,0.0,0.0,0.0,0.0,0.0,0.0,0.0,0.0,0.0,0.0,0.0,0.0,0.0,0.0,0.0,0.0,0.0,0.0,0.0,-0.5081,-0.5749,-0.6047,0.0,0.0,0.0,0.0,0.0,0.0,0.0,0.0,0.0,-0.9186,-0.9512,-0.9856,0.0,0.0,-1.081,-1.1069,-1.1117,-1.1208,-1.1492,0.0,0.0,0.0,-1.1075,-1.0745,-1.0181,-0.8743,-0.7651,-0.7866,-0.709,-0.6426,-0.6208,-0.6514,-0.6828,-0.684,-0.6342,-0.6071,-0.6229,-0.6173,-0.6184,-0.6483,-0.6639,-0.6635,-0.7888,-0.7671,-0.6992,-0.7009,-0.7397,-0.738,-0.7664,-0.8091,-0.8158,-0.8241,-0.8329,-0.8223,-0.8119,-0.7784,-0.7473,0.0,0.0,0.0,-0.8264,-0.8718,-0.8828,-0.9031,-0.9295,-0.9307,-0.9267,-0.9194,-0.8982,-0.8787,-0.8605,-0.8251,-0.7569,-0.6591,0.0,0.0,-0.627,-0.6859,-0.7338,-0.7691,-0.8085,-0.8381,-0.856,-0.8207,-0.793,-0.7816,-0.7988,-0.7941,-0.781,-0.7633,-0.7349,-0.6932,-0.6457,-0.5903,0.0,0.0,0.0,0.0,0.0,0.0,0.0,0.0,0.0,0.0,0.0,-0.4187,0.0,0.0,0.0,0.0,-0.4619,-0.5142,-0.5809,-0.6422,0.0,0.0,0.0,0.0,0.0,0.0,0.0,-0.8117,-0.8765,-0.9328,-0.988,-1.0212,-1.0466,-1.0622,-1.0773,-1.0936,-1.1087,0.0,-1.1208,-1.1492,-1.1389,-1.1317,-1.1413,-1.1298,-1.1081,-1.0772,-0.911,-0.7847,-0.7882,-0.7409,-0.6915,-0.6574,-0.678,-0.7079,-0.7079,-0.6733,-0.6538,-0.6803,-0.6783,-0.6824,-0.7004,-0.7016,-0.6988,-0.896,-0.9103,-0.7938,-0.7614,-0.7929,-0.8069,-0.8327,-0.8639,-0.8772,-0.9028,-0.9517,-0.9489,-0.9414,-0.9112,-0.8617,0.0,-0.8682,-0.8832,-0.9088,-0.9413,-0.9401,-0.9486,-0.9644,-0.9632,-0.9539,-0.9473,-0.9456,-0.937,-0.9194,-0.8865,-0.8521,-0.8172,-0.768,-0.7322,-0.7261,-0.7443,-0.7707,-0.8028,-0.8215,-0.8467,-0.8515,-0.8363,-0.8167,-0.7966,-0.8313,-0.8342,-0.7962,-0.8061,-0.7845,-0.725,-0.6771,-0.6284,-0.5694,0.0,0.0,0.0,0.0,0.0,0.0,0.0,0.0,0.0,0.0,0.0,0.0,0.0,0.0,0.0,-0.5332,0.0,-0.6796,-0.7298,0.0,0.0,0.0,-0.7419,-0.7723,-0.7925,-0.8225,-0.8747,0.0,0.0,-1.0031,0.0,-1.1105,-1.1111,-1.1105,-1.1123,-1.1141,-1.1129,-1.1208,-1.1492,-1.1504,-1.1576,-1.1787,-1.1824,-1.1673,-1.1355,-1.016,-0.8599,-0.7347,-0.752,-0.7555,-0.6832,-0.6794,-0.6947,-0.7017,-0.7162,-0.7297,-0.7435,-0.7464,-0.7468,-0.7456,-0.7452,-0.7439,-0.9386,-0.9469,-0.9106,-0.891,-0.8835,-0.8872,-0.9106,-0.9315,-0.9457,-0.9678,-0.9852,-0.969,-0.9534,-0.9494,-0.9368,-0.9405,-0.9571,-0.9616,-0.975,-0.9953,-0.9823,-0.9782,-0.9815,-0.9689,-0.9706,-0.9849,-0.9707,-0.9714,-0.9849,-0.9722,-0.9561,-0.9461,-0.9183,-0.8512,-0.7468,-0.8027,-0.8384,-0.8468,-0.866,-0.8644,-0.8409,-0.9389,-0.9692,-0.9165,-0.9432,-0.9357,-0.8941,-0.8344,-0.7764,-0.7245,-0.6913,-0.6506,-0.6051,-0.5533,0.0,0.0,0.0,0.0,0.0,0.0,0.0,0.0,0.0,-0.5488,-0.4097,0.0,-0.5717,0.0,-0.5513,-0.6097,-0.7309,-0.836,0.0,0.0,-0.8184,-0.8329,-0.8932,-0.9064,-0.931,-0.9886,-1.0435,-1.0824,-1.1027,-1.1279,-1.1397,-1.1558,-1.1335,-1.1265,-1.1764,-1.1539,-1.1508,-1.1827,-1.1803,-1.1684,-1.1683,-1.1759,-1.1193,-0.969,-0.9296,-0.8836,-0.7592,-0.7387,-0.7318,-0.7126,-0.719,-0.7343,-0.7335,-0.7423,-0.7431,-0.7472,-0.748,-0.748,-0.748,-0.748,-0.7447,-0.9764,-0.9696,-0.9608,-0.9645,-0.9676,-0.954,-0.971,-0.9927,-1.0183,-1.0277,-1.0425,-1.0071,-0.9971,-1.0092,-0.9904,-0.992,-1.0006,-1.001,-1.0063,-1.0152,-1.0076,-1.0099,-1.0087,-1.0008,-1.0019,-1.0212,-1.0108,-1.0153,-1.0233,-1.0052,-0.9916,-0.9833,-0.9726,-0.9144,-0.8324,-0.8683,-0.8837,-0.8751,-0.8761,-0.8673,-0.8651,-0.9461,-0.9846,-0.9539,-0.9674,-0.9608,-0.9204,-0.8654,-0.8042,-0.7361,-0.696,-0.6716,-0.641,-0.6005,-0.5666,0.0,0.0,0.0,0.0,0.0,0.0,0.0,0.0,0.0,0.0,0.0,-0.6252,-0.6247,-0.6272,-0.6833,-0.8147,-0.9045,-0.9434,-0.9284,-0.9082,-0.9277,-0.9904,-0.9965,-1.019,-1.067,-1.0991,-1.1206,-1.1357,-1.147,-1.1613,-1.1781,-1.1639,-1.1546,-1.1822,-1.1658,-1.1614,-1.1841,-1.1815,-1.1552,-1.126,-1.0881,-1.0513,-1.0078,-0.9084,-0.8161,-0.7613,-0.7395,-0.7334,-0.733,-0.7407,-0.748,-0.748,-0.748,-0.748,-0.748,-0.748,-0.748,-0.748,-0.748,-0.7447,-0.9961,-0.9822,-0.9819,-0.9943,-1.0286,-1.0134,-1.0124,-1.045,-1.0682,-1.0934,-1.098,-1.0647,-1.0505,-1.0717,-1.042,-1.0229,-1.0229,-1.0229,-1.0338,-1.0326,-1.036,-1.0365,-1.0433,-1.0445,-1.0435,-1.0413,-1.0507,-1.0507,-1.0502,-1.0334,-1.0147,-0.9961,-0.9766,-0.9571,-0.9393,-0.9362,-0.9262,-0.8999,-0.8886,-0.8962,-0.9212,-0.9499,-0.9682,-0.9813,-0.9889,-0.9814,-0.9389,-0.9103,-0.8537,-0.7606,-0.7228,-0.6988,-0.6827,-0.6533,-0.6368,0.0,-0.6217,0.0,0.0,0.0,0.0,0.0,0.0,0.0,0.0,-0.6597,-0.6908,-0.7364,-0.7438,-0.7996,-0.9136,-0.9488,-0.9819,-1.0074,-1.0104,-1.0276,-1.0672,-1.0709,-1.0866,-1.1319,-1.1344,-1.1344,-1.1448,-1.1481,-1.1694,-1.2003,-1.2016,-1.1874,-1.1787,-1.1787,-1.1787,-1.1781,-1.1787,-1.1632,-1.1037,-1.0276,-1.024,-1.0965,-0.9606,-0.7791,-0.7927,-0.7778,-0.7638,-0.7638,-0.7561,-0.748,-0.748,-0.748,-0.748,-0.748,-0.748,-0.748,-0.748,-0.748,-0.748,-0.9961,-0.9822,-0.9819,-0.9943,-1.0297,-1.0485,-1.074,-1.0859,-1.0977,-1.0872,-1.0799,-1.0843,-1.0755,-1.0735,-1.0672,-1.0595,-1.059,-1.059,-1.0699,-1.0908,-1.0843,-1.0779,-1.0828,-1.0742,-1.0666,-1.0712,-1.0703,-1.0806,-1.11,-1.0956,-1.084,-1.0645,-1.0524,-1.0232,-0.9768,0.0,0.0,0.0,-0.9653,-0.9971,-1.0381,-1.0919,-1.1528,-1.2113,-1.1696,0.0,-1.1038,-1.0149,-0.9255,-0.8528,-0.8404,0.0,0.0,0.0,0.0,0.0,0.0,0.0,0.0,0.0,0.0,0.0,-0.7622,-0.7312,-0.6931,-0.7739,-0.8329,-0.8444,-0.8809,-0.9296,-0.9909,-1.0447,-1.0792,-1.1032,-1.0999,-1.1177,-1.1436,-1.1474,-1.1506,-1.1617,-1.1777,-1.1851,-1.1851,-1.205,-1.215,-1.2231,-1.2231,-1.2231,-1.2157,-1.2003,-1.2003,-1.215,-1.215,-1.215,-1.2003,-1.1706,-1.1143,-1.057,-1.0467,-1.0029,-0.9557,-0.8827,-0.8475,-0.8399,-0.7944,-0.748,-0.748,-0.748,-0.748,-0.748,-0.748,-0.748,-0.748,-0.748,-0.748,-1.0005,0.0,-0.9974,-1.0183,0.0,-1.091,-1.123,-1.1395,-1.1399,-1.1296,-1.1225,-1.1171,-1.0928,-1.0727,-1.0867,-1.0781,-1.0692,-1.0802,-1.1021,-1.1118,-1.1267,-1.1292,-1.1191,-1.1105,-1.1107,-1.1002,-1.1002,-1.1096,-1.1194,-1.1194,-1.1038,-1.074,-1.1086,-1.1051,-1.0642,-1.0784,-1.0727,-1.0467,-1.0752,-1.1118,-1.1713,-1.2298,-1.2692,-1.2662,0.0,0.0,0.0,0.0,0.0,0.0,0.0,0.0,0.0,0.0,0.0,-0.758,-0.7726,-0.7856,-0.7972,-0.8208,-0.8533,-0.8855,-0.8873,-0.8591,-0.7884,-0.8735,-0.9268,-0.9286,-0.9638,-1.0077,-1.0534,-1.1191,-1.1611,-1.1537,-1.1376,-1.1408,-1.1797,-1.1855,-1.1855,-1.2003,-1.2077,-1.215,-1.215,-1.2231,-1.2305,-1.2305,-1.2305,-1.2305,-1.2305,-1.2224,-1.2224,-1.2305,-1.2305,-1.2157,-1.1781,-1.1706,-1.1378,-1.0273,-1.0232,-1.0663,-1.1004,-0.9771,-0.8703,-0.8627,-0.8016,-0.748,-0.748,-0.748,-0.748,-0.748,-0.748,-0.748,-0.748,-0.748,-0.748,-1.0036,-1.0122,-1.0236,-1.0547,-1.091,-1.1152,-1.1518,-1.1776,0.0,0.0,0.0,-1.1358,-1.1056,-1.0783,-1.098,-1.0982,-1.0696,-1.1021,-1.1126,-1.1232,-1.1621,-1.1659,-1.1557,-1.1564,-1.1453,-1.1255,-1.1217,-1.1194,-1.1194,-1.1194,-1.1096,-1.1023,-1.1594,-1.179,-1.1607,-1.1923,-1.2009,-1.1837,-1.2049,-1.2383,-1.2923,-1.3559,-1.3574,-1.2979,-1.2852,-1.2451,-1.1657,-1.148,-1.0828,-0.9687,-0.94,-0.9086,-0.8776,-0.8758,-0.8741,-0.8831,-0.9181,-0.9395,-0.9277,-0.9466,-0.9616,-0.9622,-0.9862,-0.9777,-0.901,-0.9669,-1.0079,-1.0079,-1.0337,-1.0749,-1.1147,-1.1781,-1.2104,-1.1835,-1.1576,-1.161,-1.1964,-1.2083,-1.215,-1.2231,-1.2305,-1.2305,-1.2305,-1.2305,-1.2305,-1.2305,-1.2305,-1.2305,-1.2305,-1.2305,-1.2305,-1.2305,-1.2305,-1.2077,-1.1558,-1.1403,-1.1031,-1.064,-1.0415,-1.0836,-1.1596,-1.0419,-0.9079,-0.9003,-0.8169,-0.7633,-0.748,-0.748,-0.748,-0.748,-0.748,-0.748,-0.748,-0.748,-0.748,-1.0098,-1.0214,-1.0315,-1.0664,-1.1273,-1.1273,-1.1518,-1.1776,-1.1776,-1.176,-1.1852,-1.1541,-1.1362,-1.1175,-1.1255,-1.109,-1.0696,-1.124,-1.1568,0.0,-1.1869,-1.1967,-1.1981,-1.1879,-1.1671,-1.1468,-1.1283,-1.1194,-1.1194,-1.1194,-1.1549,-1.2062,-1.1955,-1.2143,-1.2552,-1.3372,-1.3717,-1.3711,-1.3489,-1.3489,-1.388,-1.4358,-1.4525,-1.4236,-1.3821,-1.3452,-1.3038,-1.2878,-1.261,-1.2107,-1.1572,-1.1036,-1.0484,-1.0451,-1.0109,-0.9464,-1.0116,-1.0333,-0.9826,-1.0006,-1.0218,-1.0161,-1.0459,-1.0466,-1.0158,-1.0551,-1.0824,-1.083,-1.1228,-1.1563,-1.187,-1.1951,-1.2104,-1.2144,-1.2191,-1.2184,-1.2224,-1.2224,-1.2231,-1.2305,-1.2305,-1.2305,-1.2305,-1.2305,-1.2305,-1.2305,-1.2305,-1.2311,-1.2331,-1.2305,-1.2305,-1.2305,-1.2305,-1.2224,-1.2077,-1.2157,-1.2003,-1.2003,-1.1855,-1.1861,-1.2197,-1.0818,-0.9669,-0.9669,-0.8466,-0.7633,-0.748,-0.748,-0.748,-0.748,-0.748,-0.748,-0.748,-0.748,-0.748,-1.038,-1.0436,-1.08,-1.1119,-1.1273,-1.1518,-1.1647,-1.1776,-1.1776,-1.1776,-1.1768,-1.1687,-1.179,-1.1962,-1.1651,-1.146,-1.1394,-1.1617,-1.1787,-1.1896,-1.2114,-1.2229,-1.2134,-1.1917,-1.1709,-1.1515,-1.1298,-1.1487,-1.1965,-1.196,-1.2427,-1.3216,-1.329,-1.3598,-1.4166,-1.4223,-1.4482,-1.4977,-1.4678,-1.4678,-1.4977,-1.5173,-1.5198,-1.5125,-1.4721,-1.4296,-1.3787,-1.3531,-1.3127,-1.2646,-1.2369,-1.1967,-1.1551,-1.1477,-1.1202,-1.0526,-1.0937,-1.0962,-1.0315,-1.0657,-1.0893,-1.09,-1.1076,-1.1174,-1.1056,-1.1155,-1.123,-1.137,-1.1636,-1.1848,-1.2003,-1.2077,-1.2224,-1.2305,-1.2305,-1.2305,-1.2305,-1.2305,-1.2305,-1.2305,-1.2305,-1.2305,-1.2305,-1.2305,-1.2305,-1.2305,-1.2305,-1.2358,-1.2518,-1.2538,-1.2478,-1.2338,-1.2305,-1.2305,-1.2305,-1.2305,-1.2305,-1.2305,-1.2305,-1.2305,-1.2231,-1.0944,-1.004,-0.982,-0.8618,-0.7633,-0.748,-0.748,-0.748,-0.748,-0.748,-0.748,-0.748,-0.748,-0.748,-1.0772,-1.074,-1.1271,-1.1436,-1.1402,-1.1647,-1.1776,-1.1776,-1.1776,-1.1776,-1.1776,-1.1776,-1.2166,-1.2587,-1.2052,-1.1858,-1.1867,-1.2151,-1.216,-1.2005,-1.2223,-1.2356,-1.2195,-1.1987,-1.1784,-1.1581,-1.1368,-1.1722,-1.264,-1.2732,-1.3278,-1.4223,-1.4754,-1.514,-1.5533,-1.5027,-1.5068,-1.5733,-1.5665,-1.559,-1.5824,-1.5824,-1.5748,-1.5591,-1.5403,-1.4988,-1.439,-1.4124,-1.3746,-1.3201,-1.2966,-1.2785,-1.2517,-1.251,-1.2213,-1.157,-1.1733,-1.1585,-1.0893,-1.1187,-1.1484,-1.1484,-1.1632,-1.1706,-1.1781,-1.1632,-1.1632,-1.1781,-1.1922,-1.2003,-1.2077,-1.2224,-1.2305,-1.2305,-1.2305,-1.2305,-1.2305,-1.2305,-1.2305,-1.2305,-1.2305,-1.2305,-1.2305,-1.2305,-1.2419,-1.2648,-1.256,-1.2675,-1.3008,-1.3083,-1.2891,-1.2722,-1.2526,-1.2371,-1.2331,-1.2305,-1.2305,-1.2305,-1.2077,-1.1929,-1.17,-1.064,-0.9744,-0.9448,-0.8466,-0.7633,-0.748,-0.748,-0.748,-0.748,-0.748,-0.748,-0.748,-0.7561,-0.7561,-1.0834,-1.121,-1.1471,-1.1563,-1.178,-1.1772,-1.1776,-1.1776,-1.1776,-1.1776,-1.1776,-1.1776,-1.2166,-1.2604,-1.2429,-1.221,-1.2001,-1.2525,-1.2409,-1.2014,-1.2327,-1.2427,-1.2384,-1.22,-1.1997,-1.1779,-1.1572,-1.1954,-1.2737,-1.2823,-1.3559,-1.5068,-1.5859,-1.6148,-1.6104,-1.5715,-1.5733,-1.6087,-1.6087,-1.6004,-1.6087,-1.6087,-1.5919,-1.5599,-1.572,-1.5685,-1.5288,-1.5119,-1.4996,-1.4941,-1.4111,-1.3663,-1.3663,-1.3663,-1.323,-1.2291,-1.2551,-1.2331,-1.1514,-1.1539,-1.1732,-1.1706,-1.1732,-1.1813,-1.1961,-1.1948,-1.1942,-1.2029,-1.217,-1.2224,-1.2305,-1.2318,-1.2345,-1.2385,-1.2365,-1.2305,-1.2345,-1.2305,-1.2305,-1.2305,-1.2358,-1.2311,-1.2412,-1.2419,-1.2668,-1.3457,-1.3327,-1.3355,-1.3641,-1.3703,-1.3696,-1.3613,-1.3208,-1.2701,-1.2513,-1.2311,-1.2419,-1.2331,-1.1706,-1.1403,-1.1013,-1.004,-0.8851,-0.9074,-0.8246,-0.7633,-0.7557,-0.748,-0.7557,-0.7557,-0.7557,-0.7557,-0.7557,-0.7642,-0.7799,-1.1155,-1.13,-1.1825,-1.1905,-1.1792,-1.1776,-1.1776,-1.1776,-1.1776,-1.1776,-1.1776,-1.201,-1.2329,-1.2733,-1.2495,-1.2405,-1.2602,-1.2711,-1.2543,-1.2232,-1.2327,-1.2436,-1.2417,-1.2233,-1.2025,-1.1916,-1.2208,-1.2771,-1.3727,-1.4835,-1.5738,-1.6197,-1.6528,-1.6476,-1.6234,-1.5989,-1.6079,-1.6245,-1.6237,-1.6327,-1.6409,-1.6327,-1.6257,-1.628,-1.6165,-1.6,-1.5827,-1.5658,-1.5475,-1.5459,-1.4918,-1.4584,-1.4584,-1.439,-1.4129,-1.3637,-1.3026,-1.2743,-1.2869,-1.2595,-1.2447,-1.237,-1.2524,-1.2608,-1.2685,-1.2685,-1.2685,-1.2645,-1.2443,-1.2365,-1.2538,-1.2565,-1.2632,-1.2792,-1.2839,-1.2832,-1.2839,-1.2979,-1.2973,-1.3042,-1.2975,-1.2941,-1.2948,-1.2941,-1.3167,-1.3653,-1.3683,-1.3839,-1.412,-1.4097,-1.4097,-1.4083,-1.3819,-1.3632,-1.3264,-1.3051,-1.2969,-1.2839,-1.256,-1.2003,-1.126,-1.049,-0.9669,-0.9155,-0.8322,-0.7868,-0.7872,-0.7718,-0.7718,-0.7795,-0.7868,-0.7791,-0.7553,-0.7791,-0.803,-1.1495,-1.1527,-1.1997,-1.2056,-1.178,-1.1776,-1.1776,-1.1776,-1.1893,-1.1893,-1.201,-1.2242,-1.2599,-1.2946,-1.2698,-1.2853,-1.3069,-1.2913,-1.2701,-1.246,-1.2436,-1.2436,-1.2422,-1.2295,-1.2183,-1.2339,-1.2775,-1.3622,-1.4783,-1.6473,-1.7309,-1.7143,-1.6937,-1.6695,-1.6518,-1.6308,-1.6319,-1.6476,-1.6476,-1.6566,-1.6648,-1.6566,-1.6519,-1.6498,-1.6436,-1.6301,-1.6206,-1.596,-1.5825,-1.5817,-1.5499,-1.5324,-1.5308,-1.5136,-1.5073,-1.4943,-1.4178,-1.3796,-1.3945,-1.3351,-1.2969,-1.2975,-1.3127,-1.3206,-1.3206,-1.3206,-1.3206,-1.3166,-1.2806,-1.2665,-1.2819,-1.2872,-1.2979,-1.318,-1.3206,-1.3279,-1.3265,-1.3502,-1.356,-1.3553,-1.3522,-1.3488,-1.3488,-1.3571,-1.3774,-1.4171,-1.4252,-1.4308,-1.4497,-1.4657,-1.4657,-1.4575,-1.4575,-1.4391,-1.3987,-1.3649,-1.3571,-1.3258,-1.2859,-1.2078,-1.1502,-1.0715,-0.996,-0.8875,-0.8449,-0.8106,-0.8025,-0.7953,-0.7885,-0.803,-0.8102,-0.8021,-0.7778,-0.8016,-0.825,-1.1815,-1.2036,-1.2036,-1.1951,-1.1784,-1.1776,-1.1776,-1.1776,-1.2126,-1.2238,-1.2367,-1.2599,-1.3093,-1.3587,-1.3306,-1.3094,-1.3107,-1.3051,-1.2828,-1.2479,-1.2446,-1.2436,-1.2436,-1.2422,-1.2738,-1.3193,-1.3416,-1.426,-1.573,-1.7044,-1.7721,-1.7654,-1.7221,-1.7152,-1.7203,-1.6637,-1.6484,-1.6648,-1.6656,-1.6648,-1.673,-1.6648,-1.6482,-1.6221,-1.6443,-1.6516,-1.6261,-1.619,-1.6174,-1.6174,-1.5848,-1.5726,-1.5726,-1.5992,-1.6111,-1.6084,-1.6321,-1.5826,-1.4416,-1.3643,-1.326,-1.3247,-1.3287,-1.3233,-1.33,-1.33,-1.3293,-1.3233,-1.322,-1.3186,-1.3286,-1.3279,-1.3213,-1.3339,-1.3471,-1.355,-1.3536,-1.3843,-1.3845,-1.3944,-1.3923,-1.386,-1.3775,-1.3959,-1.4431,-1.4889,-1.5006,-1.4947,-1.5187,-1.5289,-1.5282,-1.5282,-1.5253,-1.5018,-1.4144,-1.3995,-1.3776,-1.3558,-1.2943,-1.1646,-1.0704,-0.9956,-0.9364,-0.8741,-0.8549,-0.8349,-0.8132,-0.8106,-0.8119,-0.8192,-0.8183,-0.8097,-0.8084,-0.8246,-0.8479,-1.2341,-1.2349,-1.2121,-1.1991,-1.1931,-1.1825,-1.1776,-1.1897,-1.2118,-1.2238,-1.2359,-1.2844,-1.3089,-1.3333,-1.3449,-1.3419,-1.3273,-1.3131,-1.2913,-1.2649,-1.2507,-1.2436,-1.2436,-1.2436,-1.2827,-1.3586,-1.4123,-1.5282,-1.6921,-1.7714,-1.8001,-1.788,-1.7497,-1.7342,-1.7313,-1.6828,-1.6648,-1.6648,-1.673,-1.673,-1.673,-1.673,-1.6579,-1.6429,-1.6421,-1.6444,-1.654,-1.6333,-1.6301,-1.6532,-1.6523,-1.6493,-1.646,-1.6648,-1.6936,-1.7406,-1.8013,-1.7584,-1.6012,-1.505,-1.433,-1.385,-1.3768,-1.3754,-1.3774,-1.3774,-1.385,-1.3912,-1.3994,-1.4001,-1.4049,-1.3919,-1.3878,-1.4124,-1.4234,-1.4213,-1.4323,-1.4494,-1.4664,-1.4643,-1.4588,-1.4453,-1.4338,-1.4475,-1.4743,-1.5043,-1.5138,-1.5292,-1.5379,-1.5431,-1.5431,-1.5431,-1.5423,-1.5267,-1.501,-1.464,-1.4468,-1.4273,-1.3766,-1.2838,-1.1932,-1.1184,-1.0565,-0.9482,-0.9011,-0.8806,-0.8699,-0.8631,-0.8604,-0.8404,-0.8385,-0.849,-0.847,-0.8558,-0.8616,-1.2537,-1.2503,-1.2243,-1.2081,-1.2135,-1.1963,-1.2014,-1.213,-1.2363,-1.2479,-1.2599,-1.308,-1.3324,-1.3444,-1.3564,-1.3622,-1.3462,-1.3202,-1.2956,-1.2762,-1.254,-1.2436,-1.2436,-1.2436,-1.3076,-1.4393,-1.55,-1.6669,-1.768,-1.8094,-1.8187,-1.8149,-1.7866,-1.7627,-1.7439,-1.7107,-1.6857,-1.677,-1.673,-1.673,-1.673,-1.673,-1.6822,-1.7039,-1.67,-1.6469,-1.6547,-1.6493,-1.6613,-1.6887,-1.7152,-1.7338,-1.748,-1.7381,-1.7665,-1.8431,-1.847,-1.7963,-1.6772,-1.5643,-1.4741,-1.4166,-1.4082,-1.4088,-1.4088,-1.4166,-1.4237,-1.4398,-1.4475,-1.4559,-1.4699,-1.4462,-1.4434,-1.4699,-1.4734,-1.4824,-1.4824,-1.5075,-1.5159,-1.5115,-1.5054,-1.5006,-1.4853,-1.4992,-1.5087,-1.5101,-1.5306,-1.5423,-1.5431,-1.5431,-1.5431,-1.5431,-1.5431,-1.5431,-1.526,-1.5092,-1.4881,-1.4678,-1.4372,-1.3607,-1.2894,-1.2215,-1.1399,-1.0295,-0.963,-0.9423,-0.928,-0.92,-0.8997,-0.8691,-0.8802,-0.8867,-0.889,-0.8857,-0.894,-1.241,-1.254,-1.2377,-1.2445,-1.2411,-1.2327,-1.2359,-1.2603,-1.2964,-1.3084,-1.3084,-1.3569,-1.3688,-1.3688,-1.3688,-1.3679,-1.3599,-1.3268,-1.2994,-1.2791,-1.2545,-1.2441,-1.2436,-1.2436,-1.3367,-1.519,-1.7239,-1.8073,-1.8109,-1.8373,-1.8473,-1.8503,-1.8281,-1.8073,-1.7779,-1.7405,-1.7072,-1.6818,-1.673,-1.673,-1.673,-1.673,-1.7163,-1.7725,-1.7221,-1.6705,-1.6333,-1.6697,-1.7012,-1.7415,-1.7781,-1.8193,-1.847,-1.8214,-1.8391,-1.8833,-1.7827,-1.6944,-1.6535,-1.5228,-1.4496,-1.4088,-1.4088,-1.4166,-1.4166,-1.4321,-1.4398,-1.4482,-1.4559,-1.4643,-1.4908,-1.4963,-1.4873,-1.4741,-1.4908,-1.5082,-1.5166,-1.5257,-1.5431,-1.5347,-1.5387,-1.5423,-1.5416,-1.5365,-1.5357,-1.5372,-1.5409,-1.5431,-1.5431,-1.5431,-1.5431,-1.5431,-1.5431,-1.5431,-1.5431,-1.5409,-1.5211,-1.4969,-1.4512,-1.3947,-1.3085,-1.231,-1.1481,-1.0507,-0.9814,-0.9516,-0.9426,-0.9351,-0.9304,-0.9124,-0.9252,-0.9223,-0.9096,-0.9143,-0.92,-1.2483,-1.2702,-1.2685,-1.2658,-1.2682,-1.2621,-1.2599,-1.2719,-1.3084,-1.3204,-1.3324,-1.3569,-1.3688,-1.3688,-1.3688,-1.3688,-1.3665,-1.3405,-1.3173,-1.2937,-1.2606,-1.2441,-1.2436,-1.2436,-1.3077,-1.4861,-1.7711,-1.8827,-1.8365,-1.8558,-1.8743,-1.8672,-1.8478,-1.812,-1.7787,-1.7437,-1.7096,-1.6778,-1.673,-1.6714,-1.6748,-1.7041,-1.7481,-1.787,-1.7522,-1.735,-1.7426,-1.7375,-1.7505,-1.7772,-1.821,-1.8692,-1.8984,-1.8966,-1.9036,-1.9213,-1.8807,-1.7836,-1.678,-1.6124,-1.5235,-1.4412,-1.4243,-1.4321,-1.4321,-1.4482,-1.4657,-1.4831,-1.4908,-1.4992,-1.5257,-1.5257,-1.5257,-1.5173,-1.5257,-1.5347,-1.5257,-1.534,-1.5431,-1.5431,-1.5431,-1.5431,-1.5431,-1.5431,-1.5431,-1.5431,-1.5431,-1.5431,-1.5431,-1.5431,-1.5431,-1.5431,-1.5431,-1.5431,-1.5431,-1.5431,-1.5335,-1.5233,-1.4868,-1.4331,-1.347,-1.2541,-1.1702,-1.0763,-1.0059,-0.9757,-0.9582,-0.953,-0.9493,-0.9408,-0.9356,-0.9255,-0.9241,-0.936,-0.9426,-1.2532,-1.2824,-1.2812,-1.2896,-1.3052,-1.2977,-1.296,-1.308,-1.3324,-1.3324,-1.3449,-1.3569,-1.3688,-1.3688,-1.3688,-1.3688,-1.3655,-1.3405,-1.3197,-1.3036,-1.2729,-1.2526,-1.2668,-1.3506,-1.4345,-1.5586,-1.8192,-1.9182,-1.8543,-1.8698,-1.8827,-1.878,-1.8605,-1.8327,-1.7962,-1.7628,-1.7286,-1.6976,-1.6966,-1.6862,-1.6814,-1.7269,-1.7895,-1.8362,-1.8144,-1.8135,-1.8399,-1.8268,-1.818,-1.8318,-1.8692,-1.9002,-1.9292,-1.9292,-1.9292,-1.9213,-1.8647,-1.7755,-1.678,-1.5959,-1.5394,-1.4405,-1.4321,-1.4482,-1.4559,-1.4734,-1.4915,-1.5082,-1.5173,-1.5257,-1.5347,-1.5431,-1.5431,-1.5431,-1.5431,-1.5431,-1.5431,-1.5431,-1.5431,-1.5431,-1.5431,-1.5431,-1.5431,-1.5431,-1.5431,-1.5431,-1.5431,-1.5431,-1.5431,-1.5431,-1.5431,-1.5431,-1.5431,-1.5431,-1.5431,-1.5431,-1.5431,-1.5409,-1.5296,-1.4678,-1.3968,-1.3121,-1.2269,-1.0984,-1.011,-0.9924,-0.9762,-0.9757,-0.9724,-0.9606,-0.9521,-0.9592,-0.9639,-0.962,-0.9663,-1.2805,-1.2909,-1.2868,-1.3065,-1.3391,-1.3295,-1.3329,-1.3688,-1.3688,-1.3688,-1.3688,-1.3688,-1.3688,-1.3688,-1.3688,-1.3688,-1.3622,-1.332,-1.3346,-1.3364,-1.316,-1.3067,-1.3423,-1.531,-1.6482,-1.7184,-1.8775,-1.926,-1.8752,-1.8769,-1.8827,-1.8819,-1.8788,-1.8645,-1.8247,-1.7938,-1.7658,-1.7391,-1.7318,-1.7196,-1.6879,-1.7594,-1.8388,-1.9181,-1.8851,-1.8807,-1.9125,-1.9043,-1.8982,-1.8834,-1.9073,-1.9213,-1.9292,-1.9292,-1.9292,-1.9158,-1.7641,-1.6976,-1.6339,-1.5462,-1.4489,-1.4482,-1.4482,-1.4482,-1.4741,-1.4999,-1.509,-1.5173,-1.5264,-1.5431,-1.5431,-1.5431,-1.5431,-1.5431,-1.5431,-1.5431,-1.5431,-1.5431,-1.5431,-1.5431,-1.5431,-1.5431,-1.5431,-1.5431,-1.5431,-1.5431,-1.5431,-1.5431,-1.5431,-1.5431,-1.5431,-1.5431,-1.5431,-1.5431,-1.5431,-1.5431,-1.5431,-1.5431,-1.5347,-1.4999,-1.4314,-1.3548,-1.2613,-1.1327,-1.0381,-1.0202,-1.0019,-0.9981,-0.9971,-0.9823,-0.9828,-1.0014,-1.0,-0.9928,-0.9814,-1.2754,-1.2864,-1.3181,-1.3318,-1.3491,-1.3537,-1.3569,-1.3688,-1.3688,-1.3688,-1.3688,-1.3688,-1.3688,-1.3688,-1.3688,-1.3688,-1.3722,-1.3522,-1.3884,-1.4503,-1.4388,-1.4914,-1.5678,-1.7206,-1.7646,-1.7394,-1.8882,-1.9469,-1.8807,-1.8792,-1.8835,-1.8827,-1.8819,-1.8661,-1.8303,-1.7954,-1.7776,-1.7692,-1.7499,-1.7521,-1.7705,-1.8158,-1.8772,-1.9179,-1.9161,-1.9143,-1.9265,-1.9017,-1.8948,-1.9125,-1.9231,-1.9292,-1.9274,-1.9283,-1.9191,-1.8641,-1.7573,-1.6621,-1.6404,-1.5748,-1.5137,-1.465,-1.4824,-1.4915,-1.4999,-1.5173,-1.5347,-1.5347,-1.5347,-1.5431,-1.5431,-1.5431,-1.5431,-1.5431,-1.5431,-1.5431,-1.5431,-1.5431,-1.5431,-1.5431,-1.5431,-1.5431,-1.5431,-1.5431,-1.5431,-1.5431,-1.5431,-1.5431,-1.5431,-1.5431,-1.5431,-1.5431,-1.5431,-1.5431,-1.5431,-1.5431,-1.5431,-1.5431,-1.5347,-1.509,-1.4405,-1.3639,-1.2699,-1.1585,-1.1068,-1.0804,-1.0376,-1.0101,-1.012,-1.0038,-1.0038,-1.0038,-1.0038,-0.9995,-0.9986,-1.3018,-1.306,-1.3441,-1.3586,-1.362,-1.362,-1.3688,-1.3688,-1.3688,-1.3688,-1.3688,-1.3688,-1.3688,-1.3688,-1.3688,-1.3989,-1.4242,-1.4149,-1.4826,-1.5689,-1.629,-1.6938,-1.766,-1.8471,-1.8661,-1.8615,-1.9444,-1.9547,-1.9169,-1.8871,-1.8843,-1.8827,-1.8827,-1.8716,-1.8526,-1.8185,-1.8029,-1.8102,-1.8011,-1.8006,-1.8017,-1.8638,-1.8993,-1.9222,-1.9292,-1.9292,-1.9256,-1.9081,-1.9081,-1.9219,-1.9155,-1.9054,-1.9072,-1.9228,-1.8961,-1.8202,-1.7299,-1.6787,-1.6541,-1.599,-1.5584,-1.5372,-1.5325,-1.5166,-1.5173,-1.5347,-1.5431,-1.5431,-1.5431,-1.5431,-1.5431,-1.5431,-1.5431,-1.5431,-1.5431,-1.5431,-1.5431,-1.5431,-1.5431,-1.5431,-1.5431,-1.5431,-1.5431,-1.5431,-1.5431,-1.5431,-1.5431,-1.5431,-1.5431,-1.5431,-1.5431,-1.5431,-1.5431,-1.5431,-1.5431,-1.5431,-1.5431,-1.5431,-1.5347,-1.5173,-1.4755,-1.3984,-1.3209,-1.2443,-1.1843,-1.1327,-1.0895,-1.0467,-1.012,-1.0038,-1.0038,-1.0038,-1.0038,-1.0033,-1.0033,-1.3407,-1.3482,-1.3487,-1.362,-1.3712,-1.3688,-1.3688,-1.3688,-1.3688,-1.3688,-1.3688,-1.3688,-1.3923,-1.3923,-1.4272,-1.4513,-1.533,-1.5454,-1.6045,-1.7092,-1.8119,-1.8916,-1.902,-1.9213,-1.9723,-2.0319,-2.0186,-1.9779,-1.9406,-1.9036,-1.8851,-1.8827,-1.8827,-1.8912,-1.8902,-1.8652,-1.849,-1.8641,-1.8555,-1.8442,-1.8443,-1.8877,-1.9222,-1.9292,-1.9292,-1.9292,-1.9274,-1.9219,-1.9219,-1.9292,-1.8916,-1.8733,-1.8733,-1.8999,-1.8596,-1.7674,-1.7167,-1.6921,-1.6902,-1.6118,-1.5721,-1.607,-1.5582,-1.5173,-1.534,-1.5431,-1.5431,-1.5431,-1.5431,-1.5431,-1.5431,-1.5431,-1.5431,-1.5431,-1.5431,-1.5431,-1.5431,-1.5431,-1.5431,-1.5431,-1.5431,-1.5431,-1.5431,-1.5431,-1.5431,-1.5431,-1.5431,-1.5431,-1.5431,-1.5431,-1.5431,-1.5431,-1.5431,-1.5431,-1.5431,-1.5431,-1.5431,-1.5431,-1.5431,-1.5264,-1.5195,-1.4594,-1.3984,-1.3379,-1.2863,-1.218,-1.1413,-1.0982,-1.0554,-1.0294,-1.0381,-1.0294,-1.0212,-1.012,-1.012,-1.3337,-1.3268,-1.3518,-1.3611,-1.3693,-1.3688,-1.3688,-1.3808,-1.3808,-1.3923,-1.3808,-1.3808,-1.4396,-1.5219,-1.5419,-1.6004,-1.6876,-1.7042,-1.7489,-1.8394,-1.9813,-2.0388,-2.0388,-2.0388,-2.0593,-2.0742,-2.0194,-1.9755,-1.9453,-1.9083,-1.8827,-1.892,-1.9188,-1.9463,-1.9356,-1.9125,-1.9247,-1.9373,-1.9018,-1.886,-1.8957,-1.9116,-1.9292,-1.9292,-1.9292,-1.9292,-1.9228,-1.8999,-1.899,-1.9118,-1.8916,-1.855,-1.8291,-1.8197,-1.8013,-1.7665,-1.6983,-1.6877,-1.72,-1.6512,-1.5916,-1.6398,-1.5824,-1.534,-1.5347,-1.5431,-1.5431,-1.5431,-1.5431,-1.5431,-1.5431,-1.5431,-1.5431,-1.5431,-1.5431,-1.5431,-1.5431,-1.5431,-1.5431,-1.5431,-1.5431,-1.5431,-1.5431,-1.5431,-1.5431,-1.5431,-1.5431,-1.5431,-1.5431,-1.5431,-1.5431,-1.5431,-1.5431,-1.5431,-1.5431,-1.5431,-1.5431,-1.5431,-1.5431,-1.5438,-1.5285,-1.5202,-1.458,-1.423,-1.3886,-1.3118,-1.21,-1.1585,-1.1241,-1.0982,-1.0809,-1.0809,-1.0722,-1.0549,-1.0207,-1.3672,-1.3449,-1.3688,-1.3688,-1.3808,-1.4282,-1.4629,-1.4748,-1.5219,-1.5451,-1.5451,-1.5569,-1.6037,-1.6603,-1.6827,-1.7316,-1.8144,-1.8741,-1.9247,-1.9798,-2.0609,-2.0822,-2.0925,-2.0901,-2.0853,-2.0631,-2.0138,-1.9805,-1.9399,-1.9129,-1.892,-1.9188,-1.9455,-1.9737,-1.981,-1.9643,-1.9547,-1.9618,-1.9263,-1.9073,-1.9301,-1.9292,-1.9292,-1.9292,-1.9292,-1.9292,-1.9265,-1.9127,-1.9017,-1.8935,-1.8736,-1.8432,-1.8164,-1.8008,-1.788,-1.7421,-1.7742,-1.7418,-1.7476,-1.7033,-1.6565,-1.6659,-1.5906,-1.5506,-1.5431,-1.5431,-1.5431,-1.5431,-1.5431,-1.5431,-1.5431,-1.5431,-1.5431,-1.5431,-1.5431,-1.5431,-1.5431,-1.5431,-1.5431,-1.5431,-1.5431,-1.5431,-1.5431,-1.5431,-1.5431,-1.5431,-1.5431,-1.5431,-1.5431,-1.5431,-1.5431,-1.5431,-1.5431,-1.5431,-1.5431,-1.5431,-1.5431,-1.5431,-1.5431,-1.5431,-1.5354,-1.5354,-1.5257,-1.4824,-1.4398,-1.3717,-1.2784,-1.2357,-1.1843,-1.1585,-1.1413,-1.1408,-1.1322,-1.0982,-1.0636,-1.452,-1.4277,-1.4277,-1.4277,-1.4396,-1.5451,-1.5924,-1.6042,-1.6973,-1.7091,-1.7418,-1.7757,-1.7566,-1.8115,-1.8096,-1.8611,-1.9476,-2.0024,-2.0426,-2.0727,-2.0814,-2.0925,-2.0925,-2.0893,-2.0694,-2.0321,-2.0011,-1.9709,-1.947,-1.9212,-1.9288,-1.9646,-1.982,-2.0102,-2.03,-2.0175,-2.0018,-1.9943,-1.9598,-1.9304,-1.932,-1.9292,-1.9292,-1.9292,-1.9292,-1.9292,-1.9292,-1.9237,-1.9146,-1.8806,-1.8592,-1.8378,-1.8239,-1.8101,-1.7981,-1.7255,-1.7861,-1.7897,-1.7552,-1.7172,-1.6768,-1.6579,-1.5891,-1.5431,-1.5431,-1.5431,-1.5431,-1.5431,-1.5431,-1.5431,-1.5431,-1.5431,-1.5431,-1.5431,-1.5431,-1.5431,-1.5431,-1.5431,-1.5431,-1.5431,-1.5431,-1.5431,-1.5431,-1.5431,-1.5431,-1.5431,-1.5431,-1.5431,-1.5431,-1.5431,-1.5431,-1.5431,-1.5431,-1.5431,-1.5431,-1.5452,-1.5445,-1.5391,-1.5467,-1.5482,-1.5474,-1.5347,-1.5347,-1.5166,-1.4741,-1.3977,-1.3385,-1.2869,-1.2443,-1.21,-1.1843,-1.1837,-1.1671,-1.1419,-1.0982,-1.6856,-1.6738,-1.6744,-1.6738,-1.6744,-1.6973,-1.7091,-1.7097,-1.7449,-1.756,-1.7861,-1.7669,-1.849,-1.9077,-1.9271,-1.9968,-2.0613,-2.0885,-2.0822,-2.0925,-2.0925,-2.0925,-2.0925,-2.0845,-2.0559,-2.0098,-1.9941,-1.9926,-1.987,-1.966,-1.9754,-2.0192,-2.0546,-2.0817,-2.0801,-2.0799,-2.0625,-2.025,-1.9925,-1.9641,-1.9366,-1.9292,-1.9292,-1.9292,-1.9292,-1.9292,-1.9292,-1.9301,-1.9353,-1.9399,-1.8807,-1.8564,-1.8469,-1.8099,-1.7797,-1.76,-1.7392,-1.7497,-1.7432,-1.6606,-1.6231,-1.607,-1.5755,-1.5423,-1.5431,-1.5431,-1.5431,-1.5431,-1.5431,-1.5431,-1.5431,-1.5431,-1.5431,-1.5431,-1.5431,-1.5431,-1.5431,-1.5431,-1.5431,-1.5431,-1.5431,-1.5431,-1.5431,-1.5431,-1.5431,-1.5431,-1.5431,-1.5431,-1.5431,-1.5431,-1.5431,-1.5431,-1.5431,-1.5431,-1.5431,-1.546,-1.5474,-1.5442,-1.5464,-1.5599,-1.557,-1.5467,-1.5347,-1.5168,-1.479,-1.4146,-1.3639,-1.33,-1.2869,-1.2528,-1.2357,-1.218,-1.21,-1.1929,-1.1154,-1.7566,-1.7449,-1.7449,-1.7449,-1.756,-1.815,-1.8383,-1.85,-1.9196,-1.9577,-1.9649,-1.9709,-2.0003,-2.0486,-2.0517,-2.0847,-2.0979,-2.102,-2.0925,-2.0925,-2.0925,-2.0925,-2.0869,-2.075,-2.056,-2.0232,-2.007,-1.9993,-1.9928,-1.992,-2.0192,-2.0645,-2.0907,-2.1087,-2.1266,-2.1125,-2.0915,-2.0521,-2.0136,-1.9723,-1.9338,-1.9292,-1.9292,-1.9292,-1.9292,-1.9292,-1.9301,-1.939,-1.9469,-1.9515,-1.9202,-1.9089,-1.8972,-1.8764,-1.8273,-1.8059,-1.758,-1.7288,-1.7318,-1.6616,-1.6149,-1.5812,-1.5516,-1.5423,-1.5431,-1.5431,-1.5431,-1.5431,-1.5431,-1.5431,-1.5431,-1.5431,-1.5431,-1.5431,-1.5431,-1.5431,-1.5431,-1.5431,-1.5431,-1.5431,-1.5431,-1.5431,-1.5431,-1.5431,-1.5431,-1.5431,-1.5431,-1.5431,-1.5431,-1.5431,-1.5431,-1.5431,-1.5438,-1.5474,-1.5511,-1.5584,-1.5558,-1.5595,-1.5653,-1.5789,-1.5796,-1.576,-1.5447,-1.5106,-1.4682,-1.4298,-1.3977,-1.3639,-1.33,-1.2875,-1.2699,-1.2528,-1.2528,-1.2272,-1.1499,-1.8389,-1.815,-1.815,-1.8144,-1.8383,-1.9203,-1.9639,-1.9943,-2.0972,-2.1241,-2.1292,-2.1509,-2.1534,-2.1493,-2.1294,-2.1083,-2.0925,-2.0925,-2.0925,-2.0925,-2.0917,-2.0901,-2.0734,-2.0628,-2.0573,-2.0399,-2.0557,-2.018,-2.0112,-2.0292,-2.0645,-2.1006,-2.1186,-2.1266,-2.1551,-2.1359,-2.0989,-2.0549,-2.0228,-1.9824,-1.9421,-1.9292,-1.9292,-1.9292,-1.9301,-1.9381,-1.9381,-1.9548,-1.9715,-1.9759,-1.964,-1.961,-1.9628,-1.9448,-1.9078,-1.8629,-1.8064,-1.7619,-1.7269,-1.6493,-1.5812,-1.5375,-1.5365,-1.5423,-1.5431,-1.5431,-1.5431,-1.5431,-1.5431,-1.5431,-1.5431,-1.5431,-1.5431,-1.5431,-1.5431,-1.5431,-1.5431,-1.5431,-1.5431,-1.5431,-1.5431,-1.5431,-1.5431,-1.5431,-1.5431,-1.5431,-1.5431,-1.5431,-1.5431,-1.5431,-1.5431,-1.5431,-1.5452,-1.5504,-1.5599,-1.5767,-1.5777,-1.5893,-1.606,-1.6227,-1.6235,-1.622,-1.5785,-1.5303,-1.4792,-1.4498,-1.424,-1.3815,-1.3215,-1.2875,-1.2869,-1.2613,-1.2106,-1.21,-1.1837,-2.0737,-2.0737,-2.0723,-2.0737,-2.0709,-2.0816,-2.09,-2.0884,-2.11,-2.1246,-2.1356,-2.1209,-2.1282,-2.1336,-2.1059,-2.0972,-2.0925,-2.0925,-2.0925,-2.0925,-2.0877,-2.0828,-2.0604,-2.094,-2.0646,-2.0582,-2.0959,-2.1086,-2.0905,-2.0907,-2.1096,-2.1463,-2.1553,-2.1642,-2.1624,-2.1621,-2.1264,-2.0649,-2.0438,-2.0026,-1.943,-1.9292,-1.9292,-1.9381,-1.9478,-1.9557,-1.9548,-1.9784,-1.9942,-2.0138,-1.9793,-1.9725,-1.9778,-1.9521,-1.9326,-1.8781,-1.798,-1.6977,-1.6851,-1.6174,-1.5434,-1.5256,-1.5292,-1.5401,-1.5431,-1.5431,-1.5431,-1.5431,-1.5431,-1.5431,-1.5431,-1.5431,-1.5431,-1.5431,-1.5431,-1.5431,-1.5431,-1.5431,-1.5431,-1.5431,-1.5431,-1.5431,-1.5431,-1.5431,-1.5431,-1.5431,-1.5438,-1.5438,-1.5431,-1.5431,-1.5526,-1.5555,-1.5599,-1.565,-1.587,-1.6009,-1.6053,-1.6103,-1.6418,-1.6603,-1.661,-1.6573,-1.6235,-1.5734,-1.5224,-1.4661,-1.4322,-1.3801,-1.3101,-1.2808,-1.2826,-1.2135,-1.1262,-1.151,-1.2198,-2.0662,-2.0655,-2.0655,-2.0662,-2.0655,-2.0766,-2.0796,-2.0898,-2.1197,-2.1232,-2.1277,-2.1341,-2.1257,-2.1155,-2.0964,-2.0925,-2.0925,-2.0925,-2.0925,-2.0939,-2.0929,-2.0945,-2.0826,-2.0881,-2.0796,-2.0993,-2.1086,-2.1283,-2.1293,-2.1365,-2.1553,-2.1642,-2.1731,-2.1642,-2.1731,-2.1731,-2.1245,-2.0613,-2.0081,-1.9668,-1.9384,-1.9292,-1.9381,-1.9469,-1.9566,-1.9636,-1.9794,-2.0029,-2.0186,-2.0313,-2.012,-2.0216,-2.0254,-2.0127,-2.0019,-1.9944,-1.8461,-1.751,-1.7149,-1.6301,-1.5701,-1.53,-1.5343,-1.5423,-1.5431,-1.5431,-1.5431,-1.5431,-1.5431,-1.5431,-1.5431,-1.5431,-1.5431,-1.5431,-1.5431,-1.5431,-1.5431,-1.5431,-1.5431,-1.5431,-1.5438,-1.5452,-1.5398,-1.5442,-1.542,-1.5438,-1.5467,-1.5504,-1.5474,-1.5431,-1.557,-1.5738,-1.5789,-1.5848,-1.6133,-1.6367,-1.6402,-1.6465,-1.6788,-1.6945,-1.7014,-1.6911,-1.6482,-1.6219,-1.5853,-1.5251,-1.4543,-1.4017,-1.3538,-1.3157,-1.2795,-1.2354,-1.2063,-1.2255,-1.2887,-1.9996,-2.0011,-2.0172,-2.0237,-2.0339,-2.055,-2.0622,-2.0755,-2.1187,-2.1215,-2.1078,-2.1209,-2.1171,-2.098,-2.0925,-2.0925,-2.0925,-2.0925,-2.0955,-2.1022,-2.1029,-2.0999,-2.0978,-2.1002,-2.111,-2.134,-2.1274,-2.141,-2.1571,-2.1642,-2.1642,-2.1731,-2.1731,-2.1731,-2.1731,-2.1676,-2.1337,-2.0539,-1.976,-1.9384,-1.9292,-1.939,-1.9478,-1.9566,-1.9724,-1.9872,-2.002,-2.0264,-2.0342,-2.0401,-2.0469,-2.0498,-2.0498,-2.0459,-2.0285,-1.9965,-1.884,-1.7888,-1.7229,-1.6451,-1.6041,-1.5673,-1.5431,-1.5431,-1.5431,-1.5431,-1.5431,-1.5431,-1.5431,-1.5431,-1.5431,-1.5431,-1.5431,-1.5431,-1.5431,-1.5431,-1.5445,-1.5467,-1.5474,-1.5467,-1.5482,-1.5511,-1.5471,-1.5459,-1.5423,-1.5398,-1.5489,-1.5577,-1.5599,-1.5599,-1.5745,-1.5972,-1.6045,-1.6148,-1.6426,-1.6674,-1.6632,-1.6769,-1.7086,-1.726,-1.7265,-1.7084,-1.6817,-1.6588,-1.6361,-1.607,-1.549,-1.4717,-1.3998,-1.3835,-1.3661,-1.3358,-1.3258,-1.3436,-1.3652,-1.9345,-1.9389,-1.9974,-2.031,-2.0513,-2.055,-2.0687,-2.0863,-2.0961,-2.0984,-2.0933,-2.098,-2.0988,-2.0933,-2.0917,-2.0909,-2.0901,-2.0917,-2.0905,-2.1013,-2.1057,-2.1067,-2.1079,-2.1247,-2.1287,-2.122,-2.1374,-2.1562,-2.1731,-2.1731,-2.1731,-2.1731,-2.1731,-2.1731,-2.1676,-2.1566,-2.1218,-2.0466,-1.9714,-1.932,-1.939,-1.9487,-1.9655,-1.9724,-2.0039,-2.0264,-2.0255,-2.0411,-2.0566,-2.0566,-2.0566,-2.0576,-2.0576,-2.0411,-2.0177,-1.9618,-1.8975,-1.8026,-1.7041,-1.6324,-1.565,-1.5431,-1.5431,-1.5431,-1.5431,-1.5431,-1.5431,-1.5431,-1.5431,-1.5431,-1.5431,-1.5431,-1.5431,-1.5431,-1.5452,-1.5496,-1.5511,-1.5526,-1.5526,-1.5511,-1.5584,-1.5723,-1.5589,-1.5519,-1.5504,-1.5558,-1.5911,-1.5999,-1.5987,-1.6009,-1.6096,-1.6235,-1.6316,-1.6477,-1.6748,-1.6923,-1.6912,-1.7006,-1.7166,-1.7318,-1.7289,-1.7115,-1.7028,-1.6926,-1.6759,-1.6562,-1.6424,-1.5782,-1.526,-1.4883,-1.4526,-1.4193,-1.4167,-1.4302,-1.4714,-1.9376,-1.9606,-1.9753,-1.9955,-2.0053,-2.0377,-2.0631,-2.0732,-2.0916,-2.0964,-2.0925,-2.0925,-2.0925,-2.0925,-2.0901,-2.079,-2.0623,-2.0591,-2.0668,-2.0769,-2.0883,-2.1019,-2.1186,-2.1443,-2.159,-2.1482,-2.1642,-2.1731,-2.1731,-2.1731,-2.1731,-2.1731,-2.1731,-2.1731,-2.1658,-2.131,-2.0842,-2.0457,-1.9778,-1.9399,-1.9478,-1.9655,-1.9813,-2.0029,-2.0108,-2.0342,-2.0498,-2.0566,-2.0566,-2.0576,-2.0576,-2.0566,-2.0411,-2.0089,-1.9618,-1.9054,-1.8407,-1.7513,-1.6944,-1.6304,-1.5982,-1.5431,-1.5431,-1.5431,-1.5431,-1.5431,-1.5431,-1.5431,-1.5431,-1.5431,-1.5438,-1.5438,-1.5431,-1.5431,-1.5496,-1.5584,-1.565,-1.5709,-1.5782,-1.5855,-1.5994,-1.614,-1.5878,-1.5704,-1.5634,-1.5669,-1.606,-1.6433,-1.6426,-1.6374,-1.6433,-1.6543,-1.6638,-1.6762,-1.7026,-1.7121,-1.7179,-1.7252,-1.7333,-1.7333,-1.7333,-1.7326,-1.7238,-1.7157,-1.7121,-1.7004,-1.6854,-1.6692,-1.643,-1.5994,-1.5438,-1.4821,-1.4933,-1.5308,-1.5602,-1.9591,-1.968,-1.9894,-1.9887,-1.9998,-2.0308,-2.0522,-2.0624,-2.0838,-2.0925,-2.0925,-2.0925,-2.0925,-2.0925,-2.0917,-2.0828,-2.0704,-2.0684,-2.0777,-2.0858,-2.1113,-2.1261,-2.1443,-2.1654,-2.1679,-2.1731,-2.1731,-2.1731,-2.1731,-2.1731,-2.1731,-2.1731,-2.1731,-2.1731,-2.1548,-2.0979,-2.053,-2.0338,-1.9869,-1.9487,-1.9557,-1.9803,-1.996,-2.0264,-2.0333,-2.042,-2.0576,-2.0566,-2.0566,-2.0576,-2.0566,-2.0411,-2.0089,-1.9608,-1.9134,-1.8327,-1.7513,-1.6617,-1.6378,-1.6221,-1.5982,-1.5514,-1.5431,-1.5431,-1.5431,-1.5431,-1.5431,-1.5431,-1.5431,-1.546,-1.5518,-1.5613,-1.5731,-1.5804,-1.5848,-1.5928,-1.5994,-1.6052,-1.6148,-1.6235,-1.6374,-1.6477,-1.6308,-1.6116,-1.6255,-1.625,-1.6213,-1.6573,-1.6755,-1.6755,-1.6711,-1.6843,-1.6989,-1.7128,-1.7274,-1.726,-1.7252,-1.7274,-1.7333,-1.7333,-1.7333,-1.7333,-1.7333,-1.7267,-1.726,-1.7318,-1.7181,-1.6986,-1.7014,-1.6941,-1.6394,-1.5777,-1.5972,-1.626,-1.6387,-1.9768,-1.9776,-2.0189,-2.0403,-2.0411,-2.0514,-2.0624,-2.0822,-2.0925,-2.0925,-2.0917,-2.0901,-2.0869,-2.0861,-2.0782,-2.0837,-2.0884,-2.0942,-2.113,-2.1223,-2.1235,-2.1508,-2.1626,-2.166,-2.1731,-2.1731,-2.1731,-2.1731,-2.1731,-2.1731,-2.1731,-2.1731,-2.1731,-2.1731,-2.1658,-2.0924,-2.0539,-2.0402,-1.9876,-1.9641,-1.9715,-1.9951,-2.0186,-2.0333,-2.0489,-2.0566,-2.0576,-2.0576,-2.0576,-2.0576,-2.0576,-2.0255,-1.9539,-1.9292,-1.8487,-1.7196,-1.6862,-1.6221,-1.559,-1.5506,-1.5423,-1.5431,-1.5431,-1.5431,-1.5431,-1.5431,-1.5431,-1.5438,-1.5474,-1.5613,-1.576,-1.5921,-1.6052,-1.6118,-1.6155,-1.6243,-1.6301,-1.6374,-1.6462,-1.6623,-1.6718,-1.6769,-1.6652,-1.6623,-1.6897,-1.6921,-1.6617,-1.6757,-1.7018,-1.7077,-1.6989,-1.704,-1.7186,-1.723,-1.7311,-1.7318,-1.7318,-1.7333,-1.7333,-1.7333,-1.7333,-1.7333,-1.7333,-1.7333,-1.7333,-1.7333,-1.7333,-1.7318,-1.7245,-1.7186,-1.7245,-1.6901,-1.7073,-1.7073,-1.7059,-1.9257,-1.9671,-1.9976,-2.0413,-2.0696,-2.0719,-2.0822,-2.0917,-2.0925,-2.0917,-2.0861,-2.0694,-2.0443,-2.0379,-2.0611,-2.0679,-2.0561,-2.0844,-2.1078,-2.1181,-2.1228,-2.1419,-2.158,-2.1731,-2.1731,-2.1731,-2.1731,-2.1731,-2.1731,-2.1731,-2.1731,-2.1731,-2.1731,-2.1731,-2.152,-2.0989,-2.0521,-2.0374,-1.9878,-1.9469,-1.9794,-1.9942,-2.0177,-2.0489,-2.0566,-2.0576,-2.0576,-2.0576,-2.0576,-2.0576,-2.0576,-2.0177,-1.9292,-1.8975,-1.8014,-1.6894,-1.6492,-1.5741,-1.5431,-1.5431,-1.5431,-1.5431,-1.5431,-1.5431,-1.5431,-1.5431,-1.5431,-1.5511,-1.5665,-1.5804,-1.5891,-1.6126,-1.6265,-1.6279,-1.6338,-1.6484,-1.6572,-1.666,-1.6769,-1.6989,-1.7143,-1.7113,-1.7033,-1.6916,-1.7125,-1.7198,-1.6916,-1.693,-1.7208,-1.7252,-1.7208,-1.7223,-1.7289,-1.7311,-1.7333,-1.7333,-1.7333,-1.7333,-1.7333,-1.7333,-1.7333,-1.7333,-1.7333,-1.7333,-1.7333,-1.7333,-1.7333,-1.7333,-1.7333,-1.7326,-1.7333,-1.7333,-1.7217,-1.721,-1.721,-1.8813,-1.9422,-1.9821,-2.0145,-2.0583,-2.0813,-2.0861,-2.0758,-2.0734,-2.0796,-2.0761,-2.042,-1.9964,-1.987,-2.0224,-2.055,-2.0406,-2.0848,-2.1121,-2.123,-2.1284,-2.1472,-2.1651,-2.1731,-2.1731,-2.1731,-2.1731,-2.1731,-2.1731,-2.1731,-2.1731,-2.1731,-2.1731,-2.1731,-2.1493,-2.1016,-2.0521,-2.0301,-1.995,-1.9618,-1.9854,-2.0089,-2.0333,-2.0489,-2.0576,-2.0576,-2.0576,-2.0576,-2.0576,-2.0576,-2.0498,-2.002,-1.9143,-1.8576,-1.77,-1.6738,-1.5929,-1.5423,-1.5431,-1.5431,-1.5431,-1.5431,-1.5431,-1.5431,-1.5474,-1.5555,-1.5606,-1.5709,-1.5899,-1.6096,-1.6243,-1.6469,-1.655,-1.6572,-1.6704,-1.6857,-1.6894,-1.6982,-1.7011,-1.7252,-1.7318,-1.7326,-1.7333,-1.7304,-1.726,-1.7296,-1.7304,-1.7333,-1.7333,-1.7333,-1.7333,-1.7333,-1.7333,-1.7333,-1.7333,-1.7333,-1.7333,-1.7333,-1.7333,-1.7333,-1.7333,-1.7333,-1.7333,-1.7333,-1.7333,-1.7333,-1.7333,-1.7333,-1.7333,-1.7333,-1.7333,-1.7333,-1.7333,-1.7333,-1.7333,-1.8724,-1.9177,-1.9657,-1.9868,-1.9995,-2.0559,-2.0655,-2.0384,-2.0377,-2.0547,-2.072,-2.0127,-1.9602,-1.9233,-2.0047,-2.0537,-2.0831,-2.1243,-2.149,-2.1554,-2.1553,-2.1651,-2.1651,-2.1731,-2.1731,-2.1731,-2.1731,-2.1731,-2.1731,-2.1731,-2.1731,-2.1731,-2.1731,-2.1686,-2.1401,-2.0961,-2.0567,-2.0467,-2.0012,-1.9762,-1.9923,-2.0235,-2.0479,-2.0566,-2.0576,-2.0576,-2.0576,-2.0576,-2.0605,-2.0625,-2.0635,-1.9576,-1.9002,-1.8913,-1.7546,-1.6312,-1.5582,-1.5401,-1.5431,-1.5431,-1.5431,-1.5431,-1.5431,-1.5431,-1.5504,-1.5657,-1.5774,-1.5935,-1.6148,-1.6469,-1.6748,-1.6857,-1.696,-1.7062,-1.7186,-1.7245,-1.7252,-1.7274,-1.7267,-1.7326,-1.7326,-1.7333,-1.7333,-1.7333,-1.7333,-1.7333,-1.7333,-1.7333,-1.7333,-1.7333,-1.7333,-1.7333,-1.7333,-1.7333,-1.7333,-1.7333,-1.7333,-1.7333,-1.7333,-1.7333,-1.7333,-1.7333,-1.7333,-1.7333,-1.7333,-1.7333,-1.7333,-1.7333,-1.7333,-1.7333,-1.7333,-1.7333,-1.7333,-1.7333,-1.7333,-1.8491,-1.9016,-1.9415,-1.9646,-1.9884,-2.0083,-2.0098,-2.0019,-2.0019,-2.0045,-1.9852,-1.9614,-1.9272,-1.8915,-1.9857,-2.0298,-2.0781,-2.1174,-2.1581,-2.1679,-2.1731,-2.1731,-2.1731,-2.1731,-2.1731,-2.1731,-2.1731,-2.1731,-2.1731,-2.1731,-2.1731,-2.1731,-2.1731,-2.1603,-2.1264,-2.0948,-2.0772,-2.056,-2.0117,-1.9957,-2.0001,-2.0235,-2.0489,-2.0566,-2.0576,-2.0576,-2.0576,-2.0615,-2.0703,-2.0937,-2.1006,-2.0377,-1.9633,-1.9543,-1.8676,-1.6632,-1.5906,-1.5374,-1.5401,-1.5431,-1.5431,-1.5438,-1.5445,-1.5438,-1.5526,-1.5723,-1.5935,-1.6162,-1.6448,-1.6791,-1.6952,-1.7055,-1.715,-1.7245,-1.7333,-1.7333,-1.7333,-1.7333,-1.7333,-1.7333,-1.7333,-1.7333,-1.7333,-1.7333,-1.7333,-1.7333,-1.7333,-1.7333,-1.7333,-1.7333,-1.7333,-1.7333,-1.7333,-1.7333,-1.7333,-1.7333,-1.7333,-1.7333,-1.7333,-1.7333,-1.7333,-1.7333,-1.7333,-1.7333,-1.7333,-1.7333,-1.7333,-1.7333,-1.7333,-1.7333,-1.7333,-1.7333,-1.7333,-1.7333,-1.7333,-1.8505,-1.8863,-1.9059,-1.928,-1.9439,-1.9455,-1.9455,-1.9479,-1.9598,-1.9502,-1.9217,-1.913,-1.9036,-1.8988,-1.9762,-2.0317,-2.0417,-2.123,-2.166,-2.166,-2.1731,-2.1731,-2.1731,-2.1731,-2.1731,-2.1731,-2.1731,-2.1731,-2.1731,-2.1731,-2.1731,-2.1731,-2.1731,-2.1673,-2.1466,-2.1135,-2.0969,-2.0733,-2.0481,-2.0134,-2.0079,-2.0313,-2.0489,-2.0566,-2.0576,-2.0576,-2.0605,-2.0664,-2.0908,-2.1103,-2.1162,-2.0953,-1.9971,-1.9397,-1.8883,-1.7024,-1.6011,-1.5598,-1.5423,-1.5431,-1.5431,-1.5467,-1.554,-1.5628,-1.5752,-1.5943,-1.617,-1.6404,-1.6769,-1.7069,-1.7135,-1.7194,-1.726,-1.7333,-1.7333,-1.7333,-1.7333,-1.7333,-1.7333,-1.7333,-1.7333,-1.7333,-1.7333,-1.7333,-1.7333,-1.7333,-1.7333,-1.7333,-1.7333,-1.7333,-1.7333,-1.7333,-1.7333,-1.7333,-1.7333,-1.7333,-1.7333,-1.7333,-1.7333,-1.7333,-1.7333,-1.7333,-1.7333,-1.7333,-1.7333,-1.7333,-1.7333,-1.7333,-1.7333,-1.7333,-1.7333,-1.7333,-1.7333,-1.7333,-1.7333,-1.8666,-1.8582,-1.8743,-1.8867,-1.8835,-1.8875,-1.8875,-1.8859,-1.9201,-1.9153,-1.8907,-1.8843,-1.8859,-1.916,-1.9936,-2.0382,-2.0654,-2.1284,-2.1731,-2.1731,-2.1731,-2.1731,-2.1731,-2.1731,-2.1731,-2.1731,-2.1731,-2.1731,-2.1731,-2.1731,-2.1731,-2.1731,-2.1731,-2.1808,-2.1752,-2.1381,-2.1221,-2.1215,-2.078,-2.037,-2.0245,-2.0382,-2.0576,-2.0576,-2.0576,-2.0576,-2.0664,-2.082,-2.1016,-2.1045,-2.1102,-2.1077,-2.0053,-1.9295,-1.8564,-1.7351,-1.6229,-1.5628,-1.5409,-1.5431,-1.5431,-1.5533,-1.5716,-1.5855,-1.6001,-1.6235,-1.6484,-1.6652,-1.6974,-1.7165,-1.7252,-1.7267,-1.7311,-1.7333,-1.7333,-1.7333,-1.7333,-1.7333,-1.7333,-1.7333,-1.7333,-1.7333,-1.7333,-1.7333,-1.7333,-1.7333,-1.7333,-1.7333,-1.7333,-1.7333,-1.7333,-1.7333,-1.7333,-1.7333,-1.7333,-1.7333,-1.7333,-1.7333,-1.7333,-1.7333,-1.7333,-1.7333,-1.7333,-1.7333,-1.7333,-1.7333,-1.7333,-1.7333,-1.7333,-1.7333,-1.7333,-1.7333,-1.7333,-1.7333,-1.7333,-1.8323,-1.8735,-1.8735,-1.8827,-1.8827,-1.8827,-1.8812,-1.8835,-1.8915,-1.8891,-1.8835,-1.8819,-1.8988,-1.9422,-1.9968,-2.0404,-2.0836,-2.1266,-2.1624,-2.1695,-2.1686,-2.164,-2.1686,-2.1612,-2.1658,-2.1731,-2.1731,-2.1686,-2.1695,-2.1704,-2.182,-2.2008,-2.1998,-2.2003,-2.2023,-2.1674,-2.1663,-2.1592,-2.1264,-2.076,-2.0439,-2.043,-2.0576,-2.0586,-2.0586,-2.0596,-2.0644,-2.0654,-2.0918,-2.1103,-2.123,-2.0967,-2.0328,-2.0053,-1.9029,-1.7572,-1.6268,-1.5613,-1.5409,-1.5438,-1.5452,-1.5548,-1.5745,-1.6009,-1.6265,-1.6565,-1.6791,-1.6938,-1.7077,-1.7238,-1.7333,-1.7333,-1.7333,-1.7333,-1.7333,-1.7333,-1.7333,-1.7333,-1.7333,-1.7333,-1.7333,-1.7333,-1.7333,-1.7333,-1.7333,-1.7333,-1.7333,-1.7333,-1.7333,-1.7333,-1.7333,-1.7333,-1.7333,-1.7333,-1.7333,-1.7333,-1.7333,-1.7333,-1.7333,-1.7333,-1.7333,-1.7333,-1.7333,-1.7333,-1.7333,-1.7333,-1.7333,-1.7333,-1.7333,-1.7333,-1.7333,-1.7333,-1.7333,-1.7333,-1.7333,-1.8095,-1.8351,-1.8359,-1.8359,-1.8359,-1.8359,-1.8359,-1.8359,-1.8359,-1.8367,-1.852,-1.8918,-1.9198,-1.952,-2.0035,-2.0271,-2.0677,-2.1119,-2.1304,-2.1438,-2.1456,-2.1438,-2.142,-2.1328,-2.1154,-2.1209,-2.1401,-2.1456,-2.1636,-2.1695,-2.183,-2.2097,-2.2078,-2.2161,-2.2149,-2.2208,-2.2177,-2.1971,-2.1646,-2.1205,-2.0767,-2.0779,-2.0692,-2.0663,-2.0742,-2.0771,-2.0674,-2.0684,-2.085,-2.1035,-2.1113,-2.1322,-2.0964,-2.0585,-1.9486,-1.8004,-1.6578,-1.542,-1.5455,-1.5445,-1.5496,-1.5657,-1.5921,-1.6243,-1.6579,-1.6865,-1.704,-1.7179,-1.7201,-1.7333,-1.7333,-1.7333,-1.7333,-1.7333,-1.7333,-1.7333,-1.7333,-1.7333,-1.7333,-1.7333,-1.7333,-1.7333,-1.7333,-1.7333,-1.7333,-1.7333,-1.7333,-1.7333,-1.7333,-1.7333,-1.7333,-1.7333,-1.7333,-1.7333,-1.7333,-1.7333,-1.7333,-1.7333,-1.7333,-1.7333,-1.7333,-1.7333,-1.7333,-1.7333,-1.7333,-1.7333,-1.7333,-1.7333,-1.7333,-1.7333,-1.7333,-1.7333,-1.7333,-1.7333,-1.7333,-1.7739,-1.7763,-1.7779,-1.7779,-1.7771,-1.7779,-1.7795,-1.7795,-1.7787,-1.7882,-1.8065,-1.9044,-1.9264,-1.9487,-1.9904,-1.9938,-2.022,-2.078,-2.1025,-2.1034,-2.1034,-2.1034,-2.0924,-2.0759,-2.0732,-2.0769,-2.0924,-2.1309,-2.1658,-2.1729,-2.178,-2.2059,-2.2274,-2.2353,-2.26,-2.2592,-2.2427,-2.2395,-2.2133,-2.162,-2.137,-2.1149,-2.1176,-2.1118,-2.1031,-2.1055,-2.0957,-2.0908,-2.0977,-2.0986,-2.0994,-2.1105,-2.1356,-2.0961,-1.9889,-1.8477,-1.6425,-1.5734,-1.5621,-1.5506,-1.5613,-1.5862,-1.6199,-1.6513,-1.6828,-1.7062,-1.7245,-1.7311,-1.7326,-1.7333,-1.7333,-1.7333,-1.7333,-1.7333,-1.7333,-1.7333,-1.7333,-1.7333,-1.7333,-1.7333,-1.7333,-1.7333,-1.7333,-1.7333,-1.7333,-1.7333,-1.7333,-1.7333,-1.7333,-1.7333,-1.7333,-1.7333,-1.7333,-1.7333,-1.7333,-1.7333,-1.7333,-1.7333,-1.7333,-1.7333,-1.7333,-1.7333,-1.7333,-1.7333,-1.7333,-1.7333,-1.7333,-1.7333,-1.7333,-1.7333,-1.7333,-1.7333,-1.7333,-1.7333,-1.7333,-1.7525,-1.7763,-1.7763,-1.7755,-1.7747,-1.7747,-1.7763,-1.7763,-1.7747,-1.7937,-1.8354,-1.8877,-1.9229,-1.9187,-1.9617,-1.9911,-2.015,-2.0492,-2.0622,-2.0631,-2.0631,-2.0622,-2.0558,-2.0402,-2.0614,-2.0642,-2.0679,-2.1004,-2.1332,-2.15,-2.1848,-2.2287,-2.2618,-2.2803,-2.295,-2.2901,-2.2853,-2.2822,-2.2685,-2.2262,-2.2339,-2.2266,-2.2182,-2.1984,-2.1646,-2.1595,-2.1484,-2.1338,-2.123,-2.1172,-2.1092,-2.0895,-2.102,-2.1289,-2.0573,-1.8997,-1.6926,-1.6234,-1.6101,-1.5876,-1.5926,-1.5965,-1.6272,-1.6572,-1.6872,-1.715,-1.7274,-1.7318,-1.7333,-1.7333,-1.7333,-1.7333,-1.7333,-1.7333,-1.7333,-1.7333,-1.7333,-1.7333,-1.7333,-1.7333,-1.7333,-1.7333,-1.7333,-1.7333,-1.7333,-1.7333,-1.7333,-1.7333,-1.7333,-1.7333,-1.7333,-1.7333,-1.7333,-1.7333,-1.7333,-1.7333,-1.7333,-1.7333,-1.7333,-1.7333,-1.7333,-1.7333,-1.7333,-1.7333,-1.7333,-1.7333,-1.7333,-1.7333,-1.7333,-1.7333,-1.7333,-1.7333,-1.7333,-1.7333,-1.7333]},{"header":{"parameterUnit":"m.s-1","parameterCategory":1,"la1":31.0,"la2":29.5877,"lo1":-88.7671,"lo2":-86.6584,"dy":0.0162,"dx":0.0185,"nx":115,"ny":88,"refTime":"2026-04-16T00:00:00:Z","depth":0,"parameterNumber":3,"parameterNumberName":"V-component_of_WINDS"},"data":[0.0,0.0,0.0,0.0,0.0,0.0,0.0,0.0,0.0,0.0,0.0,0.0,0.0,0.0,0.0,0.0,0.0,0.0,0.0,0.0,0.0,0.0,0.0,0.0,0.0,0.0,0.0,0.0,0.0,0.0,0.0,0.0,0.0,0.0,0.0,0.0,0.0,0.0,0.0,0.0,0.0,0.0,0.0,0.0,0.0,0.0,0.0,0.0,0.0,0.0,0.0,0.0,0.0,0.0,0.0,0.0,0.0,0.0,0.0,0.0,0.0,0.0,0.0,0.0,0.0,0.0,0.0,0.0,0.0,0.0,0.0,0.0,0.0,0.0,0.0,0.0,0.0,0.0,0.0,0.0,0.0,0.0,0.0,0.0,0.0,0.0,0.0,0.0,0.0,0.0,0.0,0.0,0.0,0.0,0.0,0.0,0.0,0.0,0.0,0.0,0.0,0.0,0.0,0.0,0.0,0.0,0.0,0.0,0.0,0.0,0.0,0.0,0.0,0.0,0.0,0.0,0.0,0.0,0.0,0.0,0.0,0.0,0.0,0.0,0.0,0.0,0.0,0.0,0.0,0.0,0.0,0.0,0.0,0.0,0.0,0.0,0.0,0.0,0.0,0.0,0.0,0.0,0.0,0.0,0.0,0.0,0.0,0.0,0.0,0.0,0.0,0.0,0.0,0.0,0.0,0.0,0.0,0.0,0.0,0.0,0.0,0.0,0.0,0.0,0.0,0.0,0.0,0.0,0.0,0.0,0.0,0.0,0.0,0.0,0.0,0.0,0.0,0.0,0.0,0.0,0.0,0.0,0.0,0.0,0.0,0.0,0.0,0.0,0.0,0.0,0.0,0.0,0.0,0.0,0.0,0.0,0.0,0.0,0.0,0.0,0.0,0.0,0.0,0.0,0.0,0.0,0.0,0.0,0.0,0.0,0.0,0.0,0.0,0.0,0.0,0.0,0.0,0.0,0.0,0.0,0.0,0.0,0.0,0.0,0.0,0.0,0.0,0.0,0.0,0.0,0.0,0.0,0.0,0.0,0.0,0.0,0.0,0.0,0.0,0.0,0.0,0.0,0.0,0.0,0.0,0.0,0.0,0.0,0.0,0.0,0.0,0.0,0.0,0.0,0.0,0.0,0.0,0.0,0.0,0.0,0.0,0.0,0.0,0.0,0.0,0.0,0.0,0.0,0.0,0.0,0.0,0.0,0.0,0.0,0.0,0.0,0.0,0.0,0.0,0.0,0.0,0.0,0.0,0.0,0.0,0.0,0.0,0.0,0.0,0.0,0.0,0.0,0.0,0.0,0.0,0.0,0.0,0.0,0.0,0.0,0.0,0.0,0.0,0.0,0.0,0.0,0.0,0.0,0.0,0.0,0.0,0.0,0.0,0.0,0.0,0.0,0.0,0.0,0.0,0.0,0.0,0.0,0.0,0.0,0.0,0.0,0.0,0.0,0.0,0.0,0.0,0.0,0.0,0.0,0.0,0.0,0.0,0.0,0.0,0.0,0.0,0.0,0.0,0.0,0.0,0.0,0.0,0.0,0.0,0.0,0.0,0.0,0.0,0.0,0.0,0.0,0.0,0.0,0.0,0.0,0.0,0.0,0.0,0.0,0.0,0.0,0.0,0.0,0.0,0.0,0.0,0.0,0.0,0.0,0.0,0.0,0.0,0.0,0.0,0.0,0.0,0.0,0.0,0.0,0.0,0.0,0.0,0.0,0.0,0.0,0.0,0.0,0.0,0.0,0.0,0.0,0.0,0.0,0.0,0.0,0.0,0.0,0.0,0.0,0.0,0.0,0.0,0.0,0.0,0.0,0.0,0.0,0.0,0.0,0.0,0.0,0.0,0.0,0.0,0.0,0.0,0.0,0.0,0.0,0.0,0.0,0.0,0.0,0.0,0.0,0.0,0.0,0.0,0.0,0.0,0.0,0.0,0.0,0.0,0.0,0.0,0.0,0.0,0.0,0.0,0.0,0.0,0.0,0.0,0.0,0.0,0.0,0.0,0.0,0.0,0.0,0.0,0.0,0.0,0.0,0.0,0.0,0.0,0.0,0.0,0.0,0.0,0.0,0.0,0.0,0.0,0.0,0.0,0.0,0.0,0.0,0.0,0.0,0.0,0.0,0.0,0.0,0.0,0.0,0.0,0.0,0.0,0.0,0.0,0.0,0.0,0.0,0.0,0.0,0.0,0.0,0.0,0.0,0.0,0.0,0.0,0.0,0.0,0.0,0.0,0.0,0.0,0.0,0.0,0.0,0.0,0.0,0.0,0.0,0.0,0.0,0.0,0.0,0.0,0.0,0.0,0.0,0.0,0.0,0.0,0.0,0.0,0.0,0.0,0.0,0.0,0.0,0.0,0.0,0.0,0.0,0.0,0.0,0.0,0.0,0.0,0.0,0.0,0.0,0.0,0.0,0.0,0.0,0.0,0.0,0.0,0.0,0.0,0.0,0.0,0.0,0.0,0.0,0.0,0.0,0.0,0.0,0.0,0.0,0.0,0.0,0.0,0.0,0.0,0.0,0.0,0.0,0.0,0.0,0.0,0.0,0.0,0.0,0.0,0.0,0.0,0.0,0.0,0.0,0.0,0.0,0.0,0.0,0.0,0.0,0.0,0.0,0.0,0.0,0.0,0.0,0.0,0.0,0.0,0.0,0.0,0.0,0.0,0.0,0.0,0.0,0.0,0.0,0.0,0.0,0.0,0.0,0.0,0.0,0.0,0.0,0.0,0.0,0.0,0.0,0.0,0.0,0.0,0.0,0.0,0.0,0.0,0.0,0.0,0.0,0.0,0.0,0.0,0.0,0.0,0.0,0.0,0.0,0.0,0.0,0.0,0.0,0.0,0.0,0.0,0.0,0.0,0.0,0.0,0.0,0.0,0.0,0.0,0.0,0.0,0.0,0.0,0.0,0.0,0.0,0.0,0.0,0.0,0.0,0.0,0.0,0.0,0.0,0.0,0.0,0.0,0.0,0.0,0.0,0.0,0.0,0.0,0.0,0.0,0.0,0.0,0.0,0.0,0.0,0.0,0.0,0.0,0.0,0.0,0.0,0.0,0.0,0.0,0.0,0.0,0.0,0.0,0.0,0.0,0.0,0.0,0.0,0.0,0.0,0.0,0.0,0.0,0.0,0.0,0.0,0.0,0.0,0.0,0.0,0.0,0.0,0.0,0.0,0.0,0.0,0.0,0.0,0.0,0.0,0.0,0.0,0.0,0.0,0.0,0.0,0.0,0.0,0.0,0.0,0.0,0.0,0.0,0.0,0.0,0.0,0.0,0.0,0.0,0.0,0.0,0.0,0.0,0.0,0.0,0.0,0.0,0.0,0.0,0.0,0.0,0.0,0.0,0.0,0.0,0.0,0.0,0.0,0.0,0.0,0.0,0.0,0.0,0.0,0.0,0.0,0.0,0.0,0.0,0.0,0.0,0.0,0.0,0.0,0.0,0.0,0.0,0.0,0.0,0.0,0.0,0.0,0.0,0.0,0.0,0.0,0.0,0.0,0.0,0.0,0.0,0.0,0.0,0.0,0.0,0.0,0.0,0.0,0.0,0.0,0.0,0.0,0.0,0.0,0.0,0.0,0.0,0.0,0.0,0.0,0.0,0.0,0.0,0.0,0.0,0.0,0.0,0.0,0.0,0.0,0.0,0.0,0.0,0.0,0.0,0.0,0.0,0.0,0.0,0.0,0.0,0.0,0.0,0.0,0.0,0.0,0.0,0.0,0.0,0.0,0.0,0.0,0.0,0.0,0.0,0.0,0.0,0.0,0.0,0.0,0.0,0.0,0.0,0.0,0.0,0.0,0.0,0.0,0.0,0.0,0.0,0.0,0.0,0.0,0.0,0.0,0.0,0.0,0.0,0.0,0.0,0.0,0.0,0.0,0.0,0.0,0.0,0.0,0.0,0.0,0.0,0.0,0.0,0.0,0.0,0.0,0.0,0.0,0.0,0.0,0.0,0.0,0.0,0.0,0.0,0.0,0.0,0.0,0.0,0.0,0.0,0.0,0.0,0.0,0.0,0.0,0.0,0.0,0.0,0.0,0.0,0.0,0.0,0.0,0.0,0.0,0.0,0.0,0.0,0.0,0.0,0.0,0.0,0.0,0.0,0.0,0.0,0.0,0.0,0.0,0.0,0.0,0.0,0.0,0.0,0.0,0.0,0.0,0.0,0.0,0.0,0.0,0.0,0.0,0.0,0.0,0.0,0.0,0.0,0.0,0.0,0.0,0.0,0.0,0.0,0.0,0.0,0.0,0.0,0.0,0.0,0.0,-2.4149,0.0,0.0,0.0,0.0,0.0,0.0,0.0,0.0,0.0,0.0,0.0,0.0,0.0,0.0,0.0,0.0,0.0,0.0,0.0,0.0,0.0,0.0,0.0,0.0,0.0,0.0,0.0,0.0,0.0,0.0,0.0,0.0,0.0,0.0,0.0,0.0,0.0,0.0,0.0,0.0,0.0,0.0,0.0,0.0,0.0,0.0,0.0,0.0,0.0,0.0,0.0,0.0,0.0,0.0,0.0,0.0,0.0,0.0,0.0,0.0,0.0,0.0,0.0,0.0,0.0,0.0,0.0,0.0,0.0,0.0,0.0,0.0,0.0,0.0,0.0,0.0,0.0,0.0,0.0,0.0,0.0,0.0,0.0,0.0,0.0,0.0,0.0,0.0,0.0,0.0,0.0,0.0,0.0,0.0,0.0,0.0,0.0,0.0,0.0,0.0,0.0,0.0,0.0,0.0,0.0,0.0,0.0,0.0,0.0,0.0,-2.5397,-2.539,-2.4947,-2.4504,-2.411,0.0,0.0,0.0,0.0,0.0,0.0,0.0,0.0,0.0,0.0,0.0,0.0,0.0,0.0,0.0,0.0,0.0,0.0,0.0,0.0,0.0,0.0,0.0,0.0,0.0,0.0,0.0,0.0,0.0,0.0,0.0,0.0,0.0,0.0,0.0,0.0,0.0,0.0,0.0,0.0,0.0,0.0,0.0,0.0,0.0,0.0,0.0,0.0,0.0,0.0,0.0,0.0,0.0,0.0,0.0,0.0,0.0,0.0,0.0,0.0,0.0,0.0,0.0,0.0,0.0,0.0,0.0,0.0,0.0,0.0,0.0,0.0,0.0,0.0,0.0,0.0,0.0,0.0,0.0,0.0,0.0,0.0,0.0,0.0,0.0,0.0,0.0,0.0,0.0,0.0,0.0,0.0,0.0,0.0,0.0,0.0,0.0,0.0,0.0,0.0,0.0,0.0,0.0,0.0,0.0,0.0,0.0,0.0,0.0,0.0,0.0,0.0,-2.513,-2.4562,-2.437,0.0,0.0,0.0,0.0,0.0,0.0,0.0,0.0,0.0,0.0,0.0,0.0,0.0,0.0,0.0,0.0,0.0,0.0,0.0,0.0,0.0,0.0,0.0,0.0,0.0,0.0,0.0,0.0,0.0,0.0,0.0,0.0,0.0,0.0,0.0,0.0,0.0,0.0,0.0,0.0,0.0,0.0,0.0,0.0,0.0,0.0,0.0,0.0,0.0,0.0,0.0,0.0,0.0,0.0,0.0,0.0,0.0,0.0,0.0,0.0,0.0,0.0,0.0,0.0,0.0,0.0,0.0,0.0,0.0,0.0,0.0,0.0,0.0,0.0,0.0,0.0,0.0,0.0,0.0,0.0,0.0,0.0,0.0,0.0,0.0,0.0,0.0,0.0,0.0,0.0,0.0,0.0,0.0,0.0,0.0,0.0,0.0,0.0,0.0,0.0,0.0,0.0,0.0,0.0,0.0,0.0,0.0,0.0,0.0,0.0,-2.613,-2.7605,-2.6795,0.0,-2.5168,0.0,0.0,0.0,0.0,0.0,0.0,0.0,0.0,0.0,0.0,0.0,0.0,0.0,0.0,0.0,0.0,0.0,0.0,0.0,0.0,0.0,0.0,0.0,0.0,0.0,0.0,0.0,0.0,0.0,0.0,0.0,0.0,0.0,0.0,0.0,0.0,0.0,0.0,0.0,0.0,0.0,0.0,0.0,0.0,0.0,0.0,0.0,0.0,0.0,0.0,0.0,0.0,0.0,0.0,0.0,0.0,0.0,0.0,0.0,0.0,0.0,0.0,0.0,0.0,0.0,0.0,0.0,0.0,0.0,0.0,0.0,0.0,0.0,0.0,0.0,0.0,0.0,0.0,0.0,0.0,0.0,0.0,0.0,0.0,0.0,0.0,0.0,0.0,0.0,0.0,0.0,0.0,0.0,0.0,0.0,0.0,0.0,0.0,0.0,0.0,0.0,0.0,0.0,0.0,0.0,0.0,0.0,0.0,0.0,0.0,0.0,-2.6231,-2.5342,-2.4752,0.0,0.0,0.0,0.0,0.0,0.0,0.0,0.0,0.0,0.0,0.0,0.0,0.0,0.0,0.0,0.0,0.0,0.0,0.0,0.0,0.0,0.0,0.0,0.0,0.0,0.0,0.0,0.0,0.0,0.0,0.0,0.0,0.0,0.0,0.0,0.0,0.0,0.0,0.0,0.0,0.0,0.0,0.0,0.0,0.0,0.0,0.0,0.0,0.0,0.0,0.0,0.0,0.0,0.0,0.0,0.0,0.0,0.0,0.0,0.0,0.0,0.0,0.0,0.0,0.0,0.0,0.0,0.0,0.0,0.0,0.0,0.0,0.0,0.0,0.0,0.0,0.0,0.0,0.0,0.0,0.0,0.0,0.0,0.0,0.0,0.0,0.0,0.0,0.0,0.0,0.0,0.0,0.0,0.0,0.0,0.0,0.0,0.0,0.0,0.0,0.0,0.0,0.0,0.0,0.0,0.0,0.0,0.0,0.0,0.0,-2.4964,0.0,-2.5366,-2.4653,-2.4037,-2.3628,0.0,0.0,0.0,0.0,0.0,0.0,0.0,0.0,0.0,0.0,0.0,0.0,0.0,0.0,0.0,0.0,0.0,0.0,0.0,0.0,0.0,0.0,0.0,0.0,0.0,0.0,0.0,0.0,0.0,0.0,0.0,0.0,0.0,0.0,0.0,0.0,0.0,0.0,0.0,0.0,0.0,0.0,0.0,0.0,0.0,0.0,0.0,0.0,0.0,0.0,0.0,0.0,0.0,0.0,0.0,0.0,0.0,0.0,0.0,0.0,0.0,0.0,0.0,0.0,0.0,0.0,0.0,0.0,0.0,0.0,0.0,0.0,0.0,0.0,0.0,0.0,0.0,0.0,0.0,0.0,0.0,0.0,0.0,0.0,0.0,0.0,0.0,0.0,0.0,0.0,0.0,0.0,0.0,0.0,0.0,0.0,0.0,0.0,0.0,0.0,0.0,0.0,0.0,0.0,0.0,0.0,0.0,0.0,0.0,-2.589,-2.5423,-2.611,-2.591,-2.4719,0.0,0.0,0.0,0.0,0.0,0.0,0.0,0.0,0.0,0.0,0.0,0.0,0.0,0.0,0.0,0.0,0.0,0.0,0.0,0.0,0.0,0.0,0.0,0.0,0.0,0.0,0.0,0.0,0.0,0.0,0.0,0.0,0.0,0.0,0.0,0.0,0.0,0.0,0.0,0.0,0.0,0.0,0.0,0.0,0.0,0.0,0.0,0.0,0.0,0.0,0.0,0.0,0.0,0.0,0.0,0.0,0.0,0.0,0.0,0.0,0.0,0.0,0.0,0.0,0.0,0.0,0.0,0.0,0.0,0.0,0.0,0.0,0.0,0.0,0.0,0.0,0.0,0.0,0.0,0.0,0.0,0.0,0.0,0.0,0.0,0.0,0.0,0.0,0.0,0.0,0.0,0.0,0.0,0.0,0.0,0.0,0.0,0.0,0.0,0.0,0.0,0.0,0.0,0.0,0.0,0.0,0.0,0.0,0.0,-2.281,-2.3113,-2.4448,-2.6773,-2.4651,-2.3577,0.0,0.0,0.0,0.0,0.0,0.0,0.0,0.0,0.0,0.0,0.0,0.0,0.0,0.0,0.0,0.0,0.0,0.0,0.0,0.0,0.0,0.0,0.0,0.0,0.0,0.0,0.0,0.0,0.0,0.0,0.0,0.0,0.0,0.0,0.0,0.0,0.0,0.0,0.0,0.0,0.0,0.0,0.0,0.0,0.0,0.0,0.0,0.0,0.0,0.0,0.0,0.0,0.0,0.0,0.0,0.0,0.0,0.0,0.0,0.0,0.0,0.0,0.0,0.0,0.0,0.0,0.0,0.0,0.0,0.0,0.0,0.0,0.0,0.0,0.0,0.0,0.0,0.0,0.0,0.0,0.0,0.0,0.0,0.0,0.0,0.0,0.0,0.0,0.0,0.0,0.0,0.0,0.0,0.0,0.0,0.0,0.0,0.0,0.0,0.0,0.0,0.0,0.0,0.0,0.0,0.0,0.0,0.0,0.0,-2.1589,0.0,-2.4657,0.0,-2.411,-2.294,0.0,0.0,0.0,0.0,0.0,0.0,0.0,0.0,0.0,0.0,0.0,0.0,0.0,0.0,0.0,0.0,0.0,0.0,0.0,0.0,0.0,0.0,0.0,0.0,0.0,0.0,0.0,0.0,0.0,0.0,0.0,0.0,0.0,0.0,0.0,0.0,0.0,0.0,0.0,0.0,0.0,0.0,0.0,0.0,0.0,0.0,0.0,0.0,0.0,0.0,0.0,0.0,0.0,0.0,0.0,0.0,0.0,0.0,0.0,0.0,0.0,0.0,0.0,0.0,0.0,0.0,0.0,0.0,0.0,0.0,0.0,0.0,0.0,0.0,0.0,0.0,0.0,0.0,0.0,0.0,0.0,0.0,0.0,0.0,0.0,0.0,0.0,0.0,0.0,0.0,0.0,0.0,0.0,0.0,0.0,0.0,0.0,0.0,0.0,0.0,0.0,0.0,0.0,0.0,0.0,0.0,0.0,0.0,-2.171,-2.455,-2.6101,-2.613,-2.4647,-2.4462,-2.2957,0.0,0.0,0.0,0.0,0.0,0.0,0.0,0.0,0.0,0.0,0.0,0.0,0.0,0.0,0.0,0.0,0.0,0.0,0.0,0.0,0.0,0.0,0.0,0.0,0.0,0.0,0.0,0.0,0.0,0.0,0.0,0.0,0.0,0.0,0.0,0.0,0.0,0.0,0.0,0.0,0.0,0.0,0.0,0.0,0.0,0.0,0.0,0.0,0.0,0.0,0.0,0.0,0.0,0.0,0.0,0.0,0.0,0.0,0.0,0.0,0.0,0.0,0.0,0.0,0.0,0.0,0.0,0.0,0.0,0.0,0.0,0.0,0.0,0.0,0.0,0.0,0.0,0.0,0.0,0.0,0.0,0.0,0.0,0.0,0.0,0.0,0.0,0.0,0.0,0.0,0.0,0.0,0.0,0.0,0.0,0.0,0.0,0.0,0.0,0.0,0.0,0.0,0.0,0.0,0.0,0.0,0.0,0.0,0.0,-2.3877,-2.4893,-2.5946,-2.6841,-2.4241,-2.3089,0.0,0.0,0.0,0.0,0.0,0.0,0.0,0.0,0.0,0.0,0.0,0.0,0.0,0.0,0.0,0.0,0.0,0.0,0.0,0.0,0.0,0.0,0.0,0.0,0.0,0.0,0.0,0.0,0.0,0.0,0.0,0.0,0.0,0.0,0.0,0.0,0.0,0.0,0.0,0.0,0.0,0.0,0.0,0.0,0.0,0.0,0.0,0.0,0.0,0.0,0.0,0.0,0.0,0.0,0.0,0.0,0.0,0.0,0.0,0.0,0.0,0.0,0.0,0.0,0.0,0.0,0.0,0.0,0.0,0.0,0.0,0.0,0.0,0.0,0.0,0.0,0.0,0.0,0.0,0.0,0.0,0.0,0.0,0.0,0.0,0.0,0.0,0.0,0.0,0.0,0.0,0.0,0.0,0.0,0.0,0.0,0.0,0.0,0.0,0.0,0.0,0.0,0.0,0.0,0.0,0.0,0.0,0.0,0.0,-2.6249,-2.6669,-2.7288,-2.8086,-2.5318,-2.4111,-2.4668,0.0,0.0,0.0,0.0,0.0,0.0,0.0,0.0,0.0,0.0,0.0,0.0,0.0,0.0,0.0,0.0,0.0,0.0,0.0,0.0,0.0,0.0,0.0,0.0,0.0,0.0,0.0,0.0,0.0,0.0,0.0,0.0,0.0,0.0,0.0,0.0,0.0,0.0,0.0,0.0,0.0,0.0,0.0,0.0,0.0,0.0,0.0,0.0,0.0,0.0,0.0,0.0,0.0,0.0,0.0,0.0,0.0,0.0,0.0,0.0,0.0,0.0,0.0,0.0,0.0,0.0,0.0,0.0,0.0,0.0,0.0,0.0,0.0,0.0,0.0,0.0,0.0,0.0,0.0,0.0,0.0,0.0,0.0,0.0,0.0,0.0,0.0,0.0,0.0,0.0,0.0,0.0,0.0,0.0,0.0,0.0,0.0,0.0,0.0,0.0,0.0,0.0,0.0,0.0,0.0,0.0,0.0,0.0,-3.0844,-3.0841,-3.0009,-2.8457,-2.7418,-2.5782,0.0,0.0,0.0,0.0,0.0,0.0,0.0,0.0,0.0,0.0,0.0,0.0,0.0,0.0,0.0,0.0,0.0,0.0,0.0,0.0,0.0,0.0,0.0,0.0,0.0,0.0,0.0,0.0,0.0,0.0,0.0,0.0,0.0,0.0,0.0,0.0,0.0,0.0,0.0,0.0,0.0,0.0,0.0,0.0,0.0,0.0,0.0,0.0,0.0,0.0,0.0,0.0,0.0,0.0,0.0,0.0,0.0,0.0,0.0,0.0,0.0,0.0,0.0,0.0,0.0,0.0,0.0,0.0,0.0,0.0,0.0,0.0,0.0,0.0,0.0,0.0,0.0,0.0,0.0,0.0,0.0,0.0,0.0,0.0,0.0,0.0,0.0,0.0,0.0,0.0,0.0,0.0,0.0,0.0,0.0,0.0,0.0,0.0,0.0,0.0,0.0,0.0,0.0,0.0,0.0,0.0,0.0,0.0,0.0,-3.1845,-3.2985,-3.2963,-3.1712,-2.8587,-2.6656,0.0,0.0,0.0,0.0,0.0,0.0,0.0,0.0,0.0,0.0,0.0,0.0,0.0,0.0,0.0,0.0,0.0,0.0,0.0,0.0,0.0,0.0,0.0,0.0,0.0,0.0,0.0,0.0,0.0,0.0,0.0,0.0,0.0,0.0,0.0,0.0,0.0,0.0,0.0,0.0,0.0,0.0,0.0,0.0,0.0,0.0,0.0,0.0,0.0,0.0,0.0,0.0,0.0,0.0,0.0,0.0,0.0,0.0,0.0,0.0,0.0,0.0,0.0,0.0,0.0,0.0,0.0,0.0,0.0,0.0,0.0,0.0,0.0,0.0,0.0,0.0,0.0,0.0,0.0,0.0,0.0,0.0,0.0,0.0,0.0,0.0,0.0,0.0,0.0,0.0,0.0,0.0,0.0,0.0,0.0,0.0,0.0,0.0,0.0,0.0,0.0,0.0,0.0,0.0,0.0,0.0,0.0,0.0,-3.0903,-3.3585,-3.4847,-3.503,-3.4048,-3.1098,-2.8892,0.0,0.0,0.0,0.0,0.0,0.0,0.0,0.0,0.0,0.0,0.0,0.0,0.0,0.0,0.0,0.0,0.0,0.0,0.0,0.0,0.0,0.0,0.0,0.0,0.0,0.0,0.0,0.0,0.0,0.0,0.0,0.0,0.0,0.0,0.0,0.0,0.0,0.0,0.0,0.0,0.0,0.0,0.0,0.0,0.0,0.0,0.0,0.0,0.0,0.0,0.0,0.0,0.0,0.0,0.0,0.0,0.0,0.0,0.0,0.0,0.0,0.0,0.0,0.0,0.0,0.0,0.0,0.0,0.0,0.0,0.0,0.0,0.0,0.0,0.0,0.0,0.0,0.0,0.0,0.0,0.0,0.0,0.0,0.0,0.0,0.0,0.0,0.0,0.0,0.0,0.0,0.0,0.0,0.0,0.0,0.0,0.0,0.0,0.0,0.0,0.0,0.0,0.0,0.0,0.0,0.0,0.0,0.0,-3.243,-3.546,-3.6403,-3.6477,-3.5665,-3.3873,-3.1486,0.0,0.0,0.0,0.0,0.0,0.0,0.0,0.0,0.0,0.0,0.0,0.0,0.0,0.0,0.0,0.0,0.0,0.0,0.0,0.0,0.0,0.0,0.0,0.0,0.0,0.0,0.0,0.0,0.0,0.0,0.0,0.0,0.0,0.0,0.0,0.0,0.0,0.0,0.0,0.0,0.0,0.0,0.0,0.0,0.0,0.0,0.0,0.0,0.0,0.0,0.0,0.0,0.0,0.0,0.0,0.0,0.0,0.0,0.0,0.0,0.0,0.0,0.0,0.0,0.0,0.0,0.0,0.0,0.0,0.0,0.0,0.0,0.0,0.0,0.0,0.0,0.0,0.0,0.0,0.0,0.0,0.0,0.0,0.0,0.0,0.0,0.0,0.0,0.0,0.0,0.0,0.0,0.0,0.0,0.0,0.0,0.0,0.0,0.0,0.0,0.0,0.0,0.0,0.0,0.0,0.0,0.0,0.0,-3.3318,-3.584,-3.7188,-3.7563,-3.6917,-3.3754,-3.0886,0.0,0.0,0.0,0.0,0.0,0.0,0.0,0.0,0.0,0.0,0.0,0.0,0.0,0.0,0.0,0.0,0.0,0.0,0.0,0.0,0.0,0.0,0.0,0.0,0.0,0.0,0.0,0.0,0.0,0.0,0.0,0.0,0.0,0.0,0.0,0.0,0.0,0.0,0.0,0.0,0.0,0.0,0.0,0.0,0.0,0.0,0.0,0.0,-1.6686,0.0,0.0,0.0,0.0,0.0,0.0,0.0,0.0,0.0,0.0,0.0,0.0,0.0,0.0,0.0,0.0,0.0,0.0,0.0,0.0,0.0,0.0,0.0,0.0,0.0,0.0,0.0,0.0,0.0,0.0,0.0,0.0,0.0,0.0,0.0,0.0,0.0,0.0,0.0,0.0,0.0,0.0,0.0,0.0,0.0,0.0,0.0,0.0,0.0,0.0,0.0,0.0,0.0,0.0,0.0,0.0,0.0,0.0,0.0,-3.4567,-3.6566,-3.8146,-3.8426,-3.7297,-3.5023,-3.2354,0.0,0.0,0.0,0.0,0.0,0.0,0.0,0.0,0.0,0.0,0.0,0.0,0.0,0.0,0.0,0.0,0.0,0.0,0.0,0.0,0.0,0.0,0.0,0.0,0.0,0.0,0.0,0.0,0.0,0.0,0.0,0.0,0.0,0.0,0.0,0.0,0.0,0.0,0.0,0.0,0.0,0.0,0.0,0.0,0.0,0.0,0.0,0.0,0.0,0.0,0.0,0.0,0.0,0.0,0.0,0.0,0.0,0.0,0.0,0.0,0.0,0.0,0.0,0.0,0.0,0.0,0.0,0.0,0.0,0.0,0.0,0.0,0.0,0.0,0.0,0.0,0.0,0.0,0.0,0.0,0.0,0.0,0.0,0.0,0.0,0.0,0.0,0.0,0.0,0.0,0.0,0.0,0.0,0.0,0.0,0.0,0.0,0.0,0.0,0.0,0.0,0.0,0.0,0.0,0.0,0.0,0.0,-3.2909,-3.5533,-3.7286,-3.8899,-3.8968,-3.7363,-3.6515,-3.4239,-3.0347,0.0,0.0,0.0,0.0,0.0,0.0,0.0,0.0,0.0,0.0,0.0,0.0,0.0,0.0,0.0,0.0,0.0,0.0,0.0,0.0,0.0,0.0,0.0,0.0,0.0,0.0,0.0,0.0,0.0,0.0,0.0,0.0,0.0,0.0,0.0,0.0,0.0,0.0,-1.7851,-1.9926,0.0,0.0,0.0,0.0,0.0,0.0,0.0,0.0,-1.8157,0.0,0.0,0.0,0.0,0.0,0.0,0.0,0.0,0.0,0.0,0.0,0.0,0.0,0.0,0.0,0.0,0.0,0.0,0.0,0.0,0.0,0.0,0.0,0.0,0.0,0.0,0.0,0.0,0.0,0.0,0.0,0.0,0.0,0.0,0.0,0.0,0.0,0.0,0.0,0.0,0.0,0.0,0.0,0.0,0.0,0.0,0.0,0.0,0.0,0.0,0.0,0.0,0.0,0.0,0.0,0.0,-3.2161,-3.323,-3.4889,-3.7262,-3.8795,-3.8826,-3.7356,-3.652,-3.4239,-3.0404,0.0,0.0,0.0,0.0,0.0,0.0,0.0,0.0,0.0,0.0,0.0,0.0,0.0,0.0,0.0,0.0,0.0,0.0,0.0,0.0,0.0,0.0,0.0,0.0,0.0,0.0,0.0,0.0,0.0,0.0,0.0,0.0,0.0,0.0,0.0,0.0,0.0,0.0,0.0,-2.1152,-2.2021,0.0,0.0,0.0,0.0,0.0,0.0,0.0,0.0,-1.7474,0.0,0.0,0.0,0.0,0.0,0.0,0.0,0.0,0.0,0.0,0.0,0.0,0.0,0.0,0.0,0.0,0.0,0.0,0.0,0.0,0.0,0.0,0.0,0.0,0.0,0.0,0.0,0.0,0.0,0.0,0.0,0.0,0.0,0.0,0.0,0.0,0.0,0.0,0.0,0.0,0.0,0.0,0.0,0.0,0.0,0.0,0.0,0.0,0.0,0.0,0.0,0.0,0.0,0.0,0.0,-3.191,-3.4486,-3.6536,-3.8042,-3.9336,-3.9261,-3.7704,-3.6446,-3.4052,0.0,0.0,0.0,0.0,0.0,0.0,0.0,0.0,0.0,0.0,0.0,0.0,0.0,0.0,0.0,0.0,0.0,0.0,0.0,0.0,0.0,0.0,0.0,0.0,0.0,0.0,0.0,0.0,0.0,0.0,0.0,0.0,0.0,0.0,0.0,0.0,0.0,0.0,0.0,0.0,-2.2369,-2.2956,-2.2502,0.0,0.0,0.0,0.0,0.0,0.0,-1.9582,-1.8514,0.0,0.0,0.0,0.0,0.0,0.0,0.0,0.0,0.0,0.0,0.0,0.0,0.0,0.0,0.0,0.0,0.0,0.0,0.0,0.0,0.0,0.0,0.0,0.0,0.0,0.0,0.0,0.0,0.0,0.0,0.0,0.0,0.0,0.0,0.0,0.0,0.0,0.0,0.0,0.0,0.0,0.0,0.0,0.0,0.0,0.0,0.0,0.0,0.0,0.0,0.0,0.0,0.0,0.0,0.0,-3.131,-3.5254,-3.7821,-3.8785,-3.9863,-3.9615,-3.7988,-3.6526,-3.4051,0.0,0.0,0.0,0.0,0.0,0.0,0.0,0.0,0.0,0.0,0.0,0.0,0.0,0.0,0.0,0.0,0.0,0.0,0.0,0.0,0.0,0.0,0.0,0.0,0.0,0.0,0.0,0.0,0.0,0.0,0.0,0.0,0.0,0.0,0.0,0.0,0.0,0.0,0.0,0.0,0.0,-2.4236,-2.3671,-2.303,0.0,0.0,0.0,0.0,-2.2041,-2.1498,0.0,0.0,0.0,0.0,0.0,0.0,0.0,0.0,0.0,0.0,0.0,0.0,0.0,0.0,0.0,0.0,0.0,0.0,0.0,0.0,0.0,0.0,0.0,0.0,0.0,0.0,0.0,0.0,0.0,0.0,0.0,0.0,0.0,0.0,0.0,0.0,0.0,0.0,0.0,0.0,0.0,0.0,0.0,0.0,0.0,0.0,0.0,0.0,0.0,0.0,0.0,0.0,0.0,0.0,0.0,0.0,-3.1475,-3.4034,-3.6453,-3.8712,-3.9658,-3.9371,-3.7762,-3.6969,-3.4548,0.0,0.0,0.0,0.0,0.0,0.0,0.0,0.0,0.0,0.0,0.0,0.0,0.0,0.0,0.0,0.0,0.0,0.0,0.0,0.0,0.0,0.0,0.0,0.0,0.0,0.0,0.0,0.0,0.0,0.0,0.0,0.0,0.0,0.0,0.0,0.0,0.0,0.0,0.0,0.0,0.0,-2.6091,-2.3908,-2.3484,-2.3554,0.0,0.0,-2.3814,-2.5981,-2.5645,0.0,0.0,0.0,0.0,0.0,0.0,0.0,0.0,0.0,0.0,0.0,0.0,0.0,0.0,0.0,0.0,0.0,0.0,0.0,0.0,0.0,0.0,0.0,0.0,0.0,0.0,0.0,0.0,0.0,0.0,0.0,0.0,0.0,0.0,0.0,0.0,0.0,0.0,0.0,0.0,0.0,0.0,0.0,0.0,0.0,0.0,0.0,0.0,0.0,0.0,0.0,0.0,0.0,0.0,0.0,-2.8441,-3.2012,-3.5045,-3.7527,-3.9391,-4.0043,-3.9553,-3.793,-3.618,-3.3493,0.0,0.0,0.0,0.0,0.0,0.0,0.0,0.0,0.0,0.0,0.0,0.0,0.0,0.0,0.0,0.0,0.0,0.0,0.0,0.0,0.0,0.0,0.0,0.0,0.0,0.0,0.0,0.0,0.0,0.0,0.0,0.0,0.0,0.0,0.0,0.0,0.0,0.0,0.0,0.0,0.0,0.0,-2.5731,-2.6019,0.0,0.0,0.0,-2.5847,-2.6896,0.0,0.0,0.0,0.0,0.0,0.0,0.0,0.0,0.0,0.0,0.0,0.0,0.0,0.0,0.0,0.0,0.0,0.0,0.0,0.0,0.0,0.0,0.0,0.0,0.0,0.0,0.0,0.0,0.0,0.0,0.0,0.0,0.0,0.0,0.0,0.0,0.0,0.0,0.0,0.0,0.0,0.0,0.0,0.0,0.0,0.0,0.0,0.0,0.0,0.0,0.0,0.0,0.0,0.0,0.0,0.0,0.0,-3.2485,-3.5976,-3.8518,-4.0004,-4.0311,-3.964,-3.7997,-3.5691,0.0,0.0,0.0,0.0,0.0,0.0,0.0,0.0,0.0,0.0,0.0,0.0,0.0,0.0,0.0,0.0,0.0,0.0,0.0,0.0,0.0,0.0,0.0,0.0,0.0,0.0,0.0,-1.0857,0.0,0.0,0.0,0.0,0.0,0.0,0.0,0.0,0.0,0.0,0.0,0.0,0.0,0.0,-2.6806,-2.7376,-2.8333,-2.8559,0.0,0.0,-2.8166,-2.7998,-2.7717,-2.6544,0.0,0.0,0.0,0.0,0.0,0.0,0.0,0.0,0.0,0.0,0.0,0.0,0.0,0.0,0.0,0.0,0.0,0.0,0.0,0.0,0.0,0.0,0.0,0.0,0.0,0.0,0.0,0.0,0.0,0.0,0.0,0.0,0.0,0.0,0.0,0.0,0.0,0.0,0.0,0.0,0.0,0.0,0.0,0.0,0.0,0.0,0.0,0.0,0.0,0.0,0.0,0.0,0.0,0.0,0.0,-3.2742,-3.6026,-3.8535,-4.0215,-4.0309,-3.9538,-3.7939,-3.614,-3.3278,0.0,0.0,0.0,0.0,0.0,0.0,0.0,0.0,0.0,0.0,0.0,0.0,0.0,0.0,0.0,0.0,0.0,0.0,0.0,0.0,0.0,0.0,0.0,0.0,0.0,0.0,0.0,0.0,0.0,0.0,0.0,0.0,0.0,0.0,0.0,0.0,0.0,0.0,0.0,0.0,0.0,-2.8203,-2.8147,-2.947,-3.0658,0.0,0.0,-3.1309,-3.0466,-3.1563,-3.0408,-2.4241,0.0,0.0,0.0,0.0,0.0,0.0,0.0,0.0,0.0,0.0,0.0,0.0,0.0,0.0,0.0,0.0,0.0,0.0,0.0,0.0,0.0,0.0,0.0,0.0,0.0,0.0,0.0,0.0,0.0,0.0,0.0,0.0,0.0,0.0,0.0,0.0,0.0,0.0,0.0,0.0,0.0,0.0,0.0,0.0,0.0,0.0,0.0,0.0,0.0,0.0,0.0,0.0,0.0,-2.9385,-3.2776,-3.6026,-3.8553,-4.0234,-4.0327,-3.9541,-3.7934,-3.6224,-3.3322,0.0,0.0,0.0,0.0,0.0,0.0,0.0,0.0,0.0,0.0,0.0,0.0,0.0,0.0,0.0,0.0,0.0,0.0,0.0,0.0,0.0,0.0,0.0,0.0,0.0,0.0,0.0,0.0,-1.3417,-1.4016,-1.3985,0.0,0.0,0.0,0.0,0.0,0.0,0.0,0.0,0.0,0.0,-2.8054,-2.9528,-3.0681,0.0,0.0,-3.2273,-3.2519,-3.2139,-3.1359,-2.9781,-2.6803,-2.469,0.0,0.0,0.0,0.0,0.0,0.0,0.0,0.0,0.0,0.0,0.0,0.0,0.0,0.0,0.0,0.0,0.0,0.0,0.0,0.0,0.0,0.0,0.0,0.0,0.0,0.0,0.0,0.0,0.0,0.0,0.0,0.0,0.0,0.0,0.0,0.0,0.0,0.0,0.0,0.0,0.0,0.0,0.0,0.0,0.0,0.0,0.0,0.0,0.0,0.0,0.0,0.0,-2.9372,-3.2761,-3.6045,-3.8534,-4.0234,-4.0041,-3.9257,-3.7863,-3.6173,-3.3393,0.0,0.0,0.0,0.0,0.0,0.0,0.0,0.0,0.0,0.0,0.0,0.0,0.0,0.0,0.0,0.0,0.0,0.0,0.0,0.0,0.0,0.0,0.0,0.0,0.0,0.0,0.0,0.0,-1.4571,-1.4854,-1.4547,0.0,0.0,0.0,0.0,0.0,0.0,0.0,0.0,0.0,0.0,-2.8632,-3.1017,-3.2076,-3.2571,-3.253,-3.285,-3.2962,-3.2697,-3.1229,-2.9597,-2.8129,0.0,0.0,0.0,0.0,0.0,0.0,0.0,0.0,0.0,0.0,0.0,0.0,0.0,0.0,0.0,0.0,0.0,0.0,0.0,0.0,0.0,0.0,0.0,0.0,0.0,0.0,0.0,0.0,0.0,0.0,-2.0381,0.0,0.0,0.0,0.0,0.0,0.0,0.0,0.0,0.0,0.0,0.0,0.0,0.0,0.0,0.0,0.0,0.0,0.0,0.0,0.0,0.0,0.0,0.0,-3.2766,-3.6028,-3.8553,-4.0215,-3.947,-3.861,-3.7712,-3.6088,-3.362,-3.0226,0.0,0.0,0.0,0.0,0.0,0.0,0.0,0.0,0.0,0.0,0.0,0.0,0.0,0.0,0.0,0.0,0.0,0.0,0.0,0.0,0.0,0.0,0.0,0.0,0.0,0.0,-1.71,-1.5856,-1.4587,0.0,0.0,0.0,0.0,0.0,0.0,0.0,0.0,0.0,0.0,-2.7885,-3.0269,-3.2567,-3.3603,-3.4048,-3.4104,-3.3491,-3.273,-3.2024,-3.1764,-3.0671,0.0,0.0,0.0,0.0,0.0,0.0,0.0,0.0,0.0,0.0,0.0,0.0,0.0,0.0,0.0,0.0,0.0,0.0,0.0,0.0,0.0,0.0,0.0,0.0,0.0,0.0,0.0,-2.7497,-2.6207,0.0,0.0,0.0,0.0,0.0,0.0,0.0,0.0,0.0,0.0,0.0,-3.0726,-3.1498,0.0,0.0,0.0,0.0,0.0,0.0,0.0,0.0,0.0,0.0,0.0,0.0,-2.9346,-3.2709,-3.6009,-3.8553,-4.0215,-3.9451,-3.859,-3.7723,-3.6067,-3.3341,-2.945,0.0,0.0,0.0,0.0,0.0,0.0,0.0,0.0,0.0,0.0,0.0,0.0,0.0,0.0,0.0,0.0,0.0,0.0,0.0,0.0,0.0,0.0,0.0,0.0,0.0,-1.6431,0.0,0.0,0.0,0.0,0.0,0.0,0.0,0.0,0.0,0.0,0.0,-2.3473,-2.6172,-2.82,-3.0097,-3.1953,-3.2878,-3.3584,0.0,0.0,0.0,0.0,0.0,0.0,0.0,0.0,0.0,0.0,0.0,0.0,0.0,0.0,-2.7834,-2.3544,-2.1853,-2.1273,-2.185,0.0,0.0,0.0,0.0,0.0,0.0,0.0,0.0,0.0,0.0,0.0,0.0,0.0,0.0,-3.0936,0.0,-2.9636,0.0,0.0,0.0,0.0,0.0,0.0,0.0,0.0,-3.2699,-3.4152,-3.4986,-3.5796,-3.5602,0.0,-3.3704,-3.0858,0.0,0.0,0.0,0.0,0.0,0.0,0.0,0.0,-2.9792,-3.31,-3.6162,-3.8553,-4.0157,-3.9145,-3.8282,-3.7699,-3.578,-3.3039,-2.9441,-2.6911,-2.4669,0.0,0.0,0.0,0.0,0.0,0.0,0.0,0.0,0.0,0.0,0.0,0.0,0.0,0.0,0.0,0.0,0.0,0.0,0.0,0.0,0.0,0.0,0.0,-1.7002,0.0,0.0,0.0,0.0,0.0,0.0,0.0,0.0,0.0,-2.1588,-2.3537,-2.5838,-2.829,-2.9797,-3.1132,-3.2432,0.0,0.0,0.0,0.0,0.0,0.0,0.0,-3.2359,-3.25,-3.1524,-3.0421,-2.9531,-3.0266,-3.0538,-2.9274,0.0,0.0,-2.705,-2.536,-2.4735,-2.5292,-2.5177,-2.5032,-2.5269,-2.6458,-2.7117,0.0,0.0,0.0,0.0,0.0,0.0,0.0,0.0,-3.416,-3.3999,0.0,-3.3094,0.0,0.0,0.0,0.0,0.0,-3.2422,0.0,0.0,-3.8628,-3.9871,-3.9164,-3.9928,-3.947,-3.796,-3.8572,-3.6814,-3.2802,-2.8817,0.0,0.0,0.0,0.0,0.0,0.0,-3.0667,-3.3987,-3.6489,-3.8572,-4.0177,-3.861,-3.7689,-3.7529,-3.5209,-3.274,-3.0323,-2.9284,-2.6915,-2.289,-2.1901,0.0,0.0,0.0,0.0,0.0,0.0,0.0,0.0,0.0,0.0,0.0,0.0,0.0,0.0,0.0,0.0,0.0,0.0,0.0,0.0,-1.8035,0.0,0.0,0.0,0.0,0.0,0.0,0.0,0.0,0.0,0.0,-2.3648,-2.621,-2.9072,-3.1411,0.0,0.0,0.0,0.0,-3.4494,-3.5349,-3.4754,-3.4476,-3.5293,-3.5367,-3.4791,-3.3292,0.0,0.0,-3.0565,-3.1489,-3.19,-2.9621,-3.0727,-3.1975,-3.2724,-3.1149,-3.0088,-3.0203,-2.9494,-2.9334,-3.0087,-3.059,-3.1221,-4.1094,0.0,0.0,0.0,0.0,-3.7603,-3.8834,-4.0969,-3.9996,-3.908,-3.8235,-3.6999,0.0,0.0,0.0,0.0,0.0,0.0,-3.5954,-3.798,-3.9565,-4.0807,-4.1705,-4.1972,-4.182,-4.1323,-4.0368,-3.8992,-3.7158,-3.4789,-3.0944,-2.5815,0.0,0.0,0.0,0.0,-3.2688,-3.4866,-3.7349,-3.9164,-4.0272,-3.861,-3.7139,-3.5957,-3.4573,-3.3189,-3.1844,-3.0421,-2.8544,-2.6176,-2.4708,0.0,0.0,0.0,0.0,0.0,0.0,0.0,0.0,0.0,0.0,0.0,0.0,0.0,0.0,0.0,0.0,0.0,0.0,0.0,-1.7154,-1.7436,-1.7686,0.0,0.0,0.0,0.0,0.0,0.0,0.0,0.0,0.0,-2.8272,-2.9275,-3.0333,0.0,0.0,-3.3268,-3.4067,-3.4216,-3.4494,-3.5367,0.0,0.0,0.0,-3.4086,-3.3822,-3.4098,-3.4112,-3.3813,-3.3082,-3.3356,-3.3451,-3.2697,-3.3513,-3.4327,-3.4385,-3.2253,-3.0874,-3.1678,-3.1391,-3.109,-3.1867,-3.2273,-3.2254,-4.7137,-4.4064,-4.1228,-4.0789,-4.195,-4.1854,-4.2915,-4.4743,-4.4016,-4.3404,-4.285,-4.1816,-3.9905,-3.7422,-3.593,0.0,0.0,0.0,-3.8877,-4.1017,-4.1533,-4.2488,-4.373,-4.3787,-4.3596,-4.3252,-4.2259,-4.1342,-4.0482,-3.882,-3.5611,-3.1006,0.0,0.0,-2.9497,-3.2267,-3.4522,-3.6184,-3.8037,-3.9431,-4.0272,-3.861,-3.6912,-3.5257,-3.4598,-3.3726,-3.2533,-3.149,-3.0032,-2.8063,-2.6389,-2.4353,0.0,0.0,0.0,0.0,0.0,0.0,0.0,0.0,0.0,0.0,0.0,-1.5357,0.0,0.0,0.0,0.0,-1.6515,-1.7787,-1.8565,-1.892,0.0,0.0,0.0,0.0,0.0,0.0,0.0,-2.5169,-2.7176,-2.8924,-3.0408,-3.1429,-3.221,-3.2692,-3.3157,-3.3658,-3.4123,0.0,-3.4494,-3.5367,-3.5052,-3.4829,-3.5126,-3.4773,-3.4617,-3.496,-3.4602,-3.4329,-3.4482,-3.4486,-3.437,-3.4218,-3.4476,-3.4795,-3.4795,-3.3092,-3.2135,-3.3436,-3.334,-3.3172,-3.3674,-3.3731,-3.3597,-5.2146,-5.1625,-4.6198,-4.4311,-4.497,-4.5759,-4.605,-4.6052,-4.6762,-4.6992,-4.6776,-4.6642,-4.5262,-4.287,-4.054,0.0,-4.0845,-4.1552,-4.2756,-4.4284,-4.4227,-4.4628,-4.5373,-4.5316,-4.4876,-4.4092,-4.4015,-4.3614,-4.2793,-4.1265,-3.9661,-3.8038,-3.5747,-3.4445,-3.4159,-3.5018,-3.626,-3.7769,-3.8648,-3.9413,-4.0062,-3.8517,-3.684,-3.5204,-3.4963,-3.4092,-3.2536,-3.233,-3.1176,-2.8809,-2.7157,-2.5205,-2.2836,0.0,0.0,0.0,0.0,0.0,0.0,0.0,0.0,0.0,0.0,0.0,0.0,0.0,0.0,0.0,-1.8749,0.0,-2.0916,-2.1655,0.0,0.0,0.0,-2.2664,-2.3592,-2.4389,-2.5503,-2.712,0.0,0.0,-3.0872,0.0,-3.4179,-3.4197,-3.4179,-3.4234,-3.429,-3.4253,-3.4494,-3.5367,-3.5404,-3.5627,-3.601,-3.6122,-3.5925,-3.5473,-3.5143,-3.4813,-3.4939,-3.5002,-3.4795,-3.4347,-3.4155,-3.4144,-3.411,-3.406,-3.4331,-3.498,-3.5114,-3.5133,-3.5076,-3.5057,-3.4999,-5.3916,-5.3703,-5.1645,-5.0529,-5.0106,-5.0317,-5.0355,-5.0257,-4.9813,-4.9214,-4.8422,-4.7099,-4.5835,-4.4666,-4.4074,-4.4246,-4.5029,-4.5239,-4.587,-4.6825,-4.6214,-4.6023,-4.6175,-4.5583,-4.518,-4.4889,-4.4241,-4.3819,-4.3528,-4.2536,-4.1831,-4.1393,-4.0175,-3.8004,-3.5133,-3.6971,-3.8212,-3.8594,-3.9471,-3.9395,-3.8327,-3.7656,-3.6489,-3.481,-3.4009,-3.3178,-3.224,-3.1693,-3.0572,-2.879,-2.7725,-2.6337,-2.4498,-2.2192,0.0,0.0,0.0,0.0,0.0,0.0,0.0,0.0,0.0,-1.8235,-1.3942,0.0,-1.8553,0.0,-1.9225,-2.1089,-2.2495,-2.2813,0.0,0.0,-2.5188,-2.5634,-2.7697,-2.8106,-2.8868,-3.0426,-3.1644,-3.2585,-3.3197,-3.371,-3.4062,-3.4049,-3.4124,-3.4414,-3.4907,-3.4488,-3.4395,-3.5092,-3.477,-3.4419,-3.4666,-3.4641,-3.4705,-3.4647,-3.4694,-3.4794,-3.4966,-3.513,-3.5184,-3.5025,-3.4952,-3.492,-3.4882,-3.4923,-3.4961,-3.5152,-3.519,-3.519,-3.519,-3.519,-3.5037,-5.5376,-5.4991,-5.4491,-5.4009,-5.3507,-5.2758,-5.2389,-5.2288,-5.1782,-5.1086,-5.0119,-4.8417,-4.742,-4.6975,-4.6596,-4.6672,-4.7073,-4.7092,-4.7341,-4.7761,-4.6899,-4.6514,-4.6457,-4.5614,-4.5192,-4.5129,-4.4671,-4.4421,-4.4322,-4.3542,-4.2952,-4.2591,-4.1713,-4.0003,-3.7545,-3.8766,-3.9452,-3.9471,-3.9929,-3.9528,-3.8233,-3.7597,-3.6427,-3.4689,-3.3738,-3.2699,-3.1577,-3.1205,-3.0278,-2.872,-2.7915,-2.6687,-2.5012,-2.322,-2.1714,0.0,0.0,0.0,0.0,0.0,0.0,0.0,0.0,0.0,0.0,0.0,-1.9532,-1.9369,-2.1872,-2.4028,-2.5262,-2.5721,-2.6641,-2.8363,-2.8161,-2.855,-3.0256,-3.0442,-3.0902,-3.2122,-3.2612,-3.3013,-3.3457,-3.379,-3.3968,-3.3972,-3.4042,-3.4259,-3.4578,-3.4345,-3.4215,-3.4633,-3.4312,-3.403,-3.4148,-3.425,-3.4386,-3.4577,-3.4811,-3.4999,-3.5062,-3.5168,-3.5261,-3.5242,-3.5226,-3.519,-3.519,-3.519,-3.519,-3.519,-3.519,-3.519,-3.519,-3.519,-3.5037,-5.6492,-5.5703,-5.5684,-5.5682,-5.55,-5.4019,-5.3325,-5.3142,-5.3096,-5.2566,-5.1658,-5.0092,-4.9423,-4.9358,-4.8503,-4.8124,-4.8124,-4.8124,-4.8121,-4.8063,-4.7217,-4.6755,-4.658,-4.5696,-4.5198,-4.5103,-4.5061,-4.5061,-4.5042,-4.4319,-4.352,-4.2721,-4.1884,-4.1047,-4.0286,-4.0153,-4.0117,-4.0176,-4.0081,-3.9604,-3.8744,-3.7749,-3.6451,-3.4795,-3.3655,-3.2353,-3.0951,-3.0731,-3.0021,-2.8636,-2.7948,-2.6779,-2.5043,-2.4172,-2.2961,0.0,-2.1156,0.0,0.0,0.0,0.0,0.0,0.0,0.0,0.0,-2.0303,-2.1105,-2.2497,-2.552,-2.7656,-2.8329,-2.92,-2.9996,-3.0776,-3.0869,-3.1162,-3.1895,-3.2006,-3.2242,-3.2871,-3.2945,-3.2945,-3.3013,-3.358,-3.3961,-3.3895,-3.3931,-3.4002,-3.3991,-3.3991,-3.3991,-3.3972,-3.3991,-3.4023,-3.4221,-3.4416,-3.457,-3.4777,-3.4934,-3.5143,-3.5032,-3.5086,-3.5176,-3.5176,-3.5193,-3.519,-3.519,-3.519,-3.519,-3.519,-3.519,-3.519,-3.519,-3.519,-3.519,-5.6492,-5.5703,-5.5684,-5.5682,-5.5558,-5.5224,-5.4618,-5.3977,-5.3953,-5.3436,-5.2494,-5.1567,-5.1147,-5.1051,-5.0206,-4.9843,-4.9824,-4.9824,-4.9801,-4.9716,-4.891,-4.8124,-4.7372,-4.653,-4.5745,-4.5052,-4.5014,-4.501,-4.4938,-4.4773,-4.4298,-4.3502,-4.2606,-4.1813,-4.1081,0.0,0.0,0.0,-3.9823,-3.9261,-3.8407,-3.7159,-3.6012,-3.4932,-3.2801,0.0,-3.117,-3.0113,-2.9132,-2.8334,-2.8147,0.0,0.0,0.0,0.0,0.0,0.0,0.0,0.0,0.0,0.0,0.0,-2.381,-2.2843,-2.1816,-2.3998,-2.5634,-2.5987,-2.8371,-2.9938,-3.0049,-3.0775,-3.1565,-3.2268,-3.2403,-3.2693,-3.3451,-3.3561,-3.3654,-3.3739,-3.3725,-3.37,-3.37,-3.3795,-3.3842,-3.3834,-3.3834,-3.3834,-3.386,-3.3895,-3.3895,-3.3842,-3.3842,-3.3842,-3.3895,-3.3998,-3.4043,-3.4041,-3.4236,-3.4408,-3.4461,-3.4756,-3.4964,-3.4982,-3.5108,-3.519,-3.519,-3.519,-3.519,-3.519,-3.519,-3.519,-3.519,-3.519,-3.519,-5.6742,0.0,-5.5855,-5.5618,0.0,-5.548,-5.5197,-5.4784,-5.4803,-5.4306,-5.3383,-5.2556,-5.1969,-5.1572,-5.1123,-5.0722,-5.0302,-5.0278,-5.0231,-5.0149,-4.9295,-4.8427,-4.7528,-4.6706,-4.5821,-4.4962,-4.4962,-4.4919,-4.4895,-4.4895,-4.427,-4.3076,-4.2484,-4.1604,-4.0419,-3.9896,-3.9689,-3.9758,-3.9439,-3.9094,-3.8614,-3.757,-3.6344,-3.5028,0.0,0.0,0.0,0.0,0.0,0.0,0.0,0.0,0.0,0.0,0.0,-2.4601,-2.4883,-2.5108,-2.5092,-2.5837,-2.6656,-2.7455,-2.7511,-2.6637,-2.4628,-2.7083,-2.8738,-2.8793,-3.0567,-3.1719,-3.1714,-3.2047,-3.2562,-3.3271,-3.3038,-3.313,-3.3781,-3.3947,-3.3947,-3.3895,-3.3868,-3.3842,-3.3842,-3.3834,-3.3807,-3.3807,-3.3807,-3.3807,-3.3807,-3.3815,-3.3815,-3.3807,-3.3807,-3.386,-3.3972,-3.3998,-3.4006,-3.4132,-3.4267,-3.434,-3.4375,-3.4645,-3.4908,-3.4927,-3.5072,-3.519,-3.519,-3.519,-3.519,-3.519,-3.519,-3.519,-3.519,-3.519,-3.519,-5.6915,-5.6681,-5.5907,-5.5551,-5.548,-5.5432,-5.5377,-5.5403,0.0,0.0,0.0,-5.3435,-5.258,-5.184,-5.1658,-5.1119,-5.0321,-5.0231,-5.0188,-5.0144,-4.9353,-4.8561,-4.7682,-4.6815,-4.5937,-4.5141,-4.499,-4.4895,-4.4895,-4.4895,-4.4094,-4.2621,-4.2165,-4.1116,-3.9502,-3.9305,-3.9279,-3.9331,-3.9104,-3.8979,-3.8906,-3.8026,-3.6795,-3.5182,-3.4146,-3.2648,-3.0567,-3.0301,-2.9751,-2.8743,-2.8716,-2.8386,-2.7624,-2.7568,-2.7512,-2.7381,-2.8047,-2.8491,-2.855,-2.9351,-2.9816,-2.9834,-3.0578,-3.0092,-2.7938,-2.9758,-3.1021,-3.1021,-3.2292,-3.3083,-3.3074,-3.304,-3.3256,-3.3891,-3.3382,-3.3246,-3.3784,-3.3887,-3.3842,-3.3834,-3.3807,-3.3807,-3.3807,-3.3807,-3.3807,-3.3807,-3.3807,-3.3807,-3.3807,-3.3807,-3.3807,-3.3807,-3.3807,-3.3868,-3.4049,-3.408,-3.4203,-3.4265,-3.4334,-3.4367,-3.4407,-3.4618,-3.4792,-3.4812,-3.5037,-3.5157,-3.519,-3.519,-3.519,-3.519,-3.519,-3.519,-3.519,-3.519,-3.519,-5.6547,-5.5791,-5.5654,-5.5508,-5.5408,-5.5408,-5.5377,-5.5403,-5.5403,-5.5326,-5.5167,-5.4295,-5.3454,-5.2575,-5.1839,-5.1075,-5.0321,-5.0182,-5.0108,0.0,-4.9917,-4.9371,-4.8503,-4.7643,-4.6809,-4.5994,-4.5255,-4.4895,-4.4895,-4.4895,-4.426,-4.313,-4.2389,-4.0993,-3.9212,-3.8836,-3.8737,-3.8718,-3.8899,-3.8899,-3.8658,-3.7648,-3.664,-3.5683,-3.4208,-3.2882,-3.187,-3.1091,-3.0631,-3.0539,-3.0746,-3.0527,-2.9812,-2.972,-2.957,-2.9126,-2.9588,-3.0009,-3.0241,-3.1024,-3.1448,-3.1507,-3.2191,-3.221,-3.1262,-3.1997,-3.2585,-3.2604,-3.3315,-3.382,-3.3755,-3.3747,-3.3713,-3.3823,-3.3723,-3.3705,-3.3815,-3.3815,-3.3834,-3.3807,-3.3807,-3.3807,-3.3807,-3.3807,-3.3807,-3.3807,-3.3807,-3.3825,-3.388,-3.3807,-3.3807,-3.3807,-3.3807,-3.3815,-3.3868,-3.386,-3.3895,-3.3895,-3.3947,-3.3965,-3.397,-3.4311,-3.4572,-3.4572,-3.4926,-3.5157,-3.519,-3.519,-3.519,-3.519,-3.519,-3.519,-3.519,-3.519,-3.519,-5.6694,-5.6307,-5.6218,-5.5897,-5.5408,-5.5377,-5.539,-5.5403,-5.5403,-5.5403,-5.5365,-5.4982,-5.4301,-5.3403,-5.2552,-5.1694,-5.0868,-5.0317,-5.0057,-5.0031,-4.9978,-4.9508,-4.8666,-4.7795,-4.6961,-4.6184,-4.5312,-4.4821,-4.4655,-4.4636,-4.4062,-4.2893,-4.1518,-4.0059,-3.8658,-3.8554,-3.8478,-3.8267,-3.8488,-3.8488,-3.8267,-3.779,-3.7148,-3.6291,-3.5105,-3.3885,-3.2679,-3.1876,-3.1304,-3.0912,-3.1003,-3.0972,-3.0691,-3.0698,-3.0571,-3.0356,-3.1102,-3.161,-3.1745,-3.2558,-3.3035,-3.3054,-3.3345,-3.3395,-3.3043,-3.3339,-3.3562,-3.3494,-3.3795,-3.3928,-3.3895,-3.3868,-3.3815,-3.3807,-3.3807,-3.3807,-3.3807,-3.3807,-3.3807,-3.3807,-3.3807,-3.3807,-3.3807,-3.3807,-3.3807,-3.3807,-3.3807,-3.3954,-3.4394,-3.4449,-3.4284,-3.3899,-3.3807,-3.3807,-3.3807,-3.3807,-3.3807,-3.3807,-3.3807,-3.3807,-3.3834,-3.4189,-3.4445,-3.4529,-3.4889,-3.5157,-3.519,-3.519,-3.519,-3.519,-3.519,-3.519,-3.519,-3.519,-3.519,-5.674,-5.6568,-5.6663,-5.6212,-5.5421,-5.539,-5.5403,-5.5403,-5.5403,-5.5403,-5.5403,-5.5403,-5.4878,-5.3982,-5.3263,-5.2405,-5.1402,-5.0612,-5.0168,-5.0005,-4.9952,-4.9557,-4.8913,-4.8079,-4.7264,-4.6449,-4.5596,-4.4921,-4.4448,-4.4402,-4.3772,-4.2508,-4.0813,-3.944,-3.8445,-3.8394,-3.8252,-3.7984,-3.8054,-3.8106,-3.7967,-3.7967,-3.7554,-3.673,-3.6067,-3.5098,-3.3696,-3.2875,-3.2188,-3.1675,-3.1498,-3.1446,-3.1574,-3.1556,-3.1609,-3.1788,-3.2456,-3.2944,-3.3035,-3.3679,-3.4074,-3.4074,-3.4023,-3.3998,-3.3972,-3.4023,-3.4023,-3.3972,-3.3902,-3.3895,-3.3868,-3.3815,-3.3807,-3.3807,-3.3807,-3.3807,-3.3807,-3.3807,-3.3807,-3.3807,-3.3807,-3.3807,-3.3807,-3.3807,-3.389,-3.4055,-3.4046,-3.4358,-3.5026,-3.5227,-3.4944,-3.4486,-3.4183,-3.399,-3.388,-3.3807,-3.3807,-3.3807,-3.3868,-3.3921,-3.3979,-3.4265,-3.4551,-3.4653,-3.4926,-3.5157,-3.519,-3.519,-3.519,-3.519,-3.519,-3.519,-3.519,-3.5193,-3.5193,-5.6391,-5.5719,-5.6384,-5.6206,-5.5422,-5.5384,-5.5403,-5.5403,-5.5403,-5.5403,-5.5403,-5.5403,-5.4878,-5.4058,-5.3838,-5.2886,-5.1471,-5.1185,-5.0711,-5.0043,-4.9906,-4.9841,-4.9671,-4.8932,-4.8117,-4.7245,-4.6411,-4.5406,-4.4421,-4.4355,-4.3666,-4.2257,-4.1047,-3.9967,-3.912,-3.8413,-3.7984,-3.7899,-3.7899,-3.7934,-3.7899,-3.7899,-3.7503,-3.6748,-3.659,-3.6073,-3.516,-3.436,-3.388,-3.3755,-3.3242,-3.2985,-3.2985,-3.2985,-3.3161,-3.3542,-3.357,-3.3652,-3.3919,-3.3993,-3.4072,-3.3998,-3.4072,-3.4065,-3.4013,-3.3976,-3.3957,-3.3968,-3.3897,-3.3815,-3.3807,-3.3844,-3.3917,-3.4027,-3.3972,-3.3807,-3.3917,-3.3807,-3.3807,-3.3807,-3.3954,-3.3825,-3.3872,-3.389,-3.411,-3.4604,-3.4717,-3.502,-3.5768,-3.5933,-3.5914,-3.5695,-3.5326,-3.466,-3.4147,-3.3825,-3.389,-3.388,-3.3998,-3.408,-3.4147,-3.4445,-3.4851,-3.4773,-3.5019,-3.5157,-3.5174,-3.519,-3.5174,-3.5174,-3.5174,-3.5174,-3.5174,-3.5196,-3.5181,-5.6726,-5.5542,-5.685,-5.6613,-5.5479,-5.5403,-5.5403,-5.5403,-5.5403,-5.5403,-5.5403,-5.5313,-5.5042,-5.4609,-5.4123,-5.3202,-5.1991,-5.1461,-5.0778,-4.999,-4.9906,-4.9879,-4.9803,-4.9064,-4.823,-4.7352,-4.6369,-4.5284,-4.4207,-4.3703,-4.2949,-4.1921,-4.0908,-4.0023,-3.9193,-3.8364,-3.7881,-3.781,-3.7792,-3.7775,-3.7739,-3.7775,-3.7613,-3.722,-3.6738,-3.6362,-3.5969,-3.5168,-3.4757,-3.4722,-3.4106,-3.3741,-3.3741,-3.3293,-3.3086,-3.3334,-3.3933,-3.4541,-3.5119,-3.5322,-3.5395,-3.5422,-3.5367,-3.5358,-3.5331,-3.5331,-3.5331,-3.522,-3.4421,-3.3972,-3.4449,-3.4523,-3.4706,-3.5147,-3.5275,-3.5257,-3.5275,-3.5182,-3.5164,-3.5117,-3.4704,-3.4383,-3.4402,-3.4383,-3.4527,-3.4884,-3.5187,-3.5818,-3.6547,-3.6723,-3.6723,-3.6687,-3.6474,-3.5981,-3.5243,-3.4676,-3.4457,-3.4338,-3.4046,-3.3895,-3.4148,-3.4311,-3.4572,-3.4772,-3.5001,-3.5126,-3.5145,-3.5179,-3.5179,-3.5162,-3.5126,-3.5143,-3.5155,-3.5143,-3.5129,-5.7136,-5.6033,-5.7053,-5.6721,-5.5422,-5.5403,-5.5403,-5.5403,-5.5358,-5.5358,-5.5313,-5.5222,-5.5121,-5.4981,-5.4457,-5.3537,-5.2419,-5.1793,-5.094,-4.9974,-4.9879,-4.9879,-4.9822,-4.9311,-4.8412,-4.7284,-4.6459,-4.526,-4.3865,-4.3196,-4.2573,-4.1902,-4.0889,-4.0059,-3.9392,-3.842,-3.7757,-3.7667,-3.7667,-3.7649,-3.7613,-3.7649,-3.7542,-3.7274,-3.6916,-3.6613,-3.6399,-3.5846,-3.5543,-3.5525,-3.4811,-3.4418,-3.4383,-3.3797,-3.3461,-3.3562,-3.4442,-3.5248,-3.586,-3.619,-3.637,-3.6389,-3.6313,-3.6285,-3.6285,-3.6285,-3.6285,-3.6174,-3.5183,-3.4798,-3.522,-3.5367,-3.5661,-3.6211,-3.6285,-3.6237,-3.6201,-3.6113,-3.6029,-3.601,-3.5458,-3.5137,-3.5137,-3.5126,-3.5193,-3.552,-3.595,-3.6557,-3.728,-3.7449,-3.7449,-3.748,-3.748,-3.7007,-3.62,-3.5556,-3.5126,-3.4765,-3.4393,-3.4344,-3.4377,-3.4507,-3.4733,-3.5268,-3.5191,-3.5111,-3.511,-3.5147,-3.5202,-3.5129,-3.5092,-3.5091,-3.5086,-3.5072,-3.5038,-5.743,-5.6625,-5.6625,-5.6224,-5.5441,-5.5403,-5.5403,-5.5403,-5.5267,-5.5203,-5.5214,-5.5121,-5.5066,-5.5007,-5.4895,-5.4022,-5.257,-5.2343,-5.1452,-5.005,-4.9917,-4.9879,-4.9879,-4.9822,-4.8815,-4.7174,-4.6786,-4.5575,-4.3513,-4.2995,-4.2783,-4.2621,-4.1067,-4.0163,-3.9801,-3.8492,-3.7685,-3.7613,-3.7631,-3.7613,-3.7577,-3.7613,-3.7238,-3.6649,-3.7149,-3.7095,-3.6524,-3.6363,-3.6328,-3.6328,-3.5596,-3.5116,-3.5116,-3.4888,-3.4747,-3.4889,-3.5403,-3.5756,-3.5905,-3.6248,-3.6431,-3.6395,-3.6505,-3.6358,-3.6541,-3.6541,-3.6523,-3.6358,-3.6321,-3.6229,-3.6256,-3.6237,-3.6303,-3.6402,-3.6271,-3.6241,-3.6204,-3.6298,-3.6067,-3.6091,-3.6036,-3.5872,-3.5884,-3.5897,-3.6173,-3.662,-3.691,-3.7229,-3.7827,-3.808,-3.8062,-3.8062,-3.799,-3.7642,-3.637,-3.5988,-3.5654,-3.5319,-3.532,-3.5317,-3.5287,-3.5302,-3.5565,-3.5723,-3.5609,-3.5456,-3.5226,-3.5111,-3.5169,-3.5132,-3.5094,-3.5073,-3.5016,-3.5019,-3.4983,-5.8058,-5.8096,-5.7027,-5.6415,-5.6129,-5.5632,-5.5403,-5.5377,-5.5229,-5.5203,-5.5176,-5.5085,-5.5047,-5.5009,-5.496,-5.4324,-5.3233,-5.2665,-5.1793,-5.0732,-5.0163,-4.9879,-4.9879,-4.9879,-4.9155,-4.7774,-4.6925,-4.5345,-4.3232,-4.2765,-4.2667,-4.2379,-4.0971,-4.0123,-3.9817,-3.8473,-3.7613,-3.7613,-3.7577,-3.7577,-3.7577,-3.7577,-3.7238,-3.647,-3.6667,-3.6934,-3.7148,-3.6684,-3.6613,-3.7131,-3.6256,-3.5776,-3.5705,-3.51,-3.4918,-3.5297,-3.5737,-3.6253,-3.6826,-3.725,-3.7575,-3.7796,-3.7826,-3.779,-3.7845,-3.7845,-3.7796,-3.7711,-3.768,-3.7699,-3.7577,-3.7229,-3.7119,-3.7528,-3.757,-3.7515,-3.7557,-3.7512,-3.7467,-3.7412,-3.7035,-3.6458,-3.6168,-3.6282,-3.6721,-3.7,-3.7468,-3.7848,-3.8065,-3.8192,-3.8192,-3.8192,-3.8174,-3.8026,-3.7624,-3.693,-3.6495,-3.6235,-3.6097,-3.6002,-3.5922,-3.6018,-3.6246,-3.6665,-3.6482,-3.6331,-3.6236,-3.5951,-3.5837,-3.5343,-3.5267,-3.5362,-3.4945,-3.5306,-3.5211,-5.8356,-5.8822,-5.76,-5.6836,-5.6484,-5.5682,-5.5332,-5.5286,-5.5195,-5.5149,-5.5121,-5.5009,-5.4971,-5.4941,-5.4912,-5.4636,-5.3992,-5.2949,-5.1964,-5.1187,-5.0296,-4.9879,-4.9879,-4.9879,-4.923,-4.7822,-4.6323,-4.4583,-4.2948,-4.2627,-4.2588,-4.2498,-4.1088,-4.0298,-3.9868,-3.8649,-3.7862,-3.7666,-3.7577,-3.7577,-3.7577,-3.7577,-3.7343,-3.675,-3.6433,-3.6559,-3.7166,-3.6613,-3.6666,-3.7271,-3.6783,-3.635,-3.6239,-3.5636,-3.543,-3.5786,-3.6249,-3.6829,-3.7451,-3.8,-3.8401,-3.8658,-3.8689,-3.8707,-3.8707,-3.8658,-3.859,-3.851,-3.846,-3.8428,-3.8291,-3.7922,-3.7849,-3.8291,-3.8382,-3.8368,-3.8368,-3.8271,-3.8238,-3.8129,-3.7733,-3.7142,-3.6761,-3.7105,-3.7341,-3.7377,-3.7884,-3.8174,-3.8192,-3.8192,-3.8192,-3.8192,-3.8192,-3.8192,-3.8008,-3.7591,-3.7065,-3.6789,-3.6721,-3.6637,-3.6666,-3.6774,-3.6995,-3.7438,-3.7575,-3.7446,-3.722,-3.6898,-3.6425,-3.5856,-3.597,-3.6236,-3.5989,-3.5856,-3.5855,-5.8383,-5.8994,-5.823,-5.7317,-5.6565,-5.5603,-5.5176,-5.514,-5.5057,-5.5028,-5.5028,-5.4931,-5.4901,-5.4901,-5.4901,-5.4863,-5.4541,-5.3215,-5.2115,-5.13,-5.0315,-4.9898,-4.9879,-4.9879,-4.9031,-4.7452,-4.5203,-4.3632,-4.2663,-4.2508,-4.2486,-4.2302,-4.1546,-4.0592,-3.9932,-3.9093,-3.8344,-3.7773,-3.7577,-3.7577,-3.7577,-3.7577,-3.7445,-3.7161,-3.6514,-3.6237,-3.6471,-3.6219,-3.6482,-3.7135,-3.7069,-3.6891,-3.6643,-3.6531,-3.6486,-3.637,-3.696,-3.7395,-3.7578,-3.8168,-3.8515,-3.8707,-3.8707,-3.8658,-3.8658,-3.8559,-3.851,-3.8478,-3.8428,-3.8396,-3.8336,-3.8231,-3.8245,-3.8401,-3.8336,-3.8289,-3.8256,-3.8241,-3.8192,-3.8225,-3.8083,-3.8174,-3.8156,-3.8029,-3.8011,-3.8047,-3.8138,-3.8192,-3.8192,-3.8192,-3.8192,-3.8192,-3.8192,-3.8192,-3.8192,-3.8138,-3.7649,-3.7283,-3.7317,-3.7302,-3.7468,-3.7607,-3.7848,-3.8211,-3.8294,-3.8167,-3.7807,-3.7504,-3.7315,-3.6937,-3.7106,-3.6992,-3.6823,-3.667,-3.6898,-5.8727,-5.9759,-5.8424,-5.769,-5.7205,-5.5777,-5.5121,-5.5094,-5.5028,-5.5,-5.4971,-5.4931,-5.4901,-5.4901,-5.4901,-5.4901,-5.4806,-5.3764,-5.2836,-5.1888,-5.0561,-4.9898,-4.9879,-4.9879,-4.8806,-4.6778,-4.5251,-4.3822,-4.2745,-4.2427,-4.2346,-4.2185,-4.1502,-4.0699,-3.995,-3.9165,-3.8397,-3.7684,-3.7577,-3.7541,-3.7397,-3.7394,-3.7276,-3.7048,-3.6327,-3.6171,-3.6741,-3.6224,-3.6292,-3.7052,-3.6926,-3.6684,-3.6468,-3.6433,-3.6374,-3.6326,-3.6516,-3.6978,-3.7469,-3.7756,-3.8186,-3.8546,-3.8609,-3.8559,-3.8559,-3.8478,-3.8433,-3.8387,-3.8336,-3.8303,-3.8241,-3.8241,-3.8241,-3.8274,-3.8241,-3.8225,-3.8241,-3.8207,-3.8192,-3.8192,-3.8192,-3.8192,-3.8192,-3.8192,-3.8192,-3.8192,-3.8192,-3.8192,-3.8192,-3.8192,-3.8192,-3.8192,-3.8192,-3.8192,-3.8192,-3.8192,-3.7957,-3.7703,-3.7744,-3.7825,-3.8037,-3.8312,-3.8577,-3.8809,-3.8896,-3.8772,-3.8433,-3.8224,-3.8073,-3.7732,-3.7523,-3.7468,-3.7411,-3.7542,-3.7807,-5.8956,-5.9693,-5.8396,-5.7577,-5.7101,-5.5655,-5.5038,-5.5009,-5.4971,-5.4971,-5.496,-5.4931,-5.4901,-5.4901,-5.4901,-5.4901,-5.4769,-5.3764,-5.293,-5.2286,-5.1054,-5.0239,-4.9881,-4.9539,-4.8428,-4.6583,-4.5312,-4.4115,-4.2902,-4.2494,-4.2287,-4.218,-4.1787,-4.1163,-4.0342,-3.9593,-3.8826,-3.813,-3.7664,-3.7432,-3.7325,-3.7246,-3.7101,-3.6829,-3.6392,-3.6374,-3.6701,-3.6242,-3.6265,-3.6741,-3.6684,-3.6502,-3.6284,-3.6284,-3.6284,-3.6326,-3.6597,-3.7017,-3.7469,-3.7826,-3.8101,-3.8528,-3.8559,-3.8478,-3.8428,-3.8382,-3.8354,-3.8289,-3.8274,-3.8241,-3.8225,-3.8192,-3.8192,-3.8192,-3.8192,-3.8192,-3.8192,-3.8192,-3.8192,-3.8192,-3.8192,-3.8192,-3.8192,-3.8192,-3.8192,-3.8192,-3.8192,-3.8192,-3.8192,-3.8192,-3.8192,-3.8192,-3.8192,-3.8192,-3.8192,-3.8192,-3.8192,-3.8138,-3.8099,-3.8237,-3.8377,-3.8654,-3.8912,-3.9274,-3.9448,-3.9435,-3.9153,-3.9134,-3.9001,-3.8527,-3.8186,-3.8471,-3.866,-3.8584,-3.8755,-5.8977,-5.8835,-5.8044,-5.7159,-5.632,-5.5379,-5.499,-5.4901,-5.4901,-5.4901,-5.4901,-5.4901,-5.4901,-5.4901,-5.4901,-5.4901,-5.4636,-5.3423,-5.255,-5.2143,-5.1348,-5.0525,-4.9663,-4.893,-4.7867,-4.658,-4.5328,-4.4295,-4.3386,-4.2655,-4.2287,-4.2269,-4.2198,-4.1877,-4.0985,-4.0289,-3.9429,-3.8607,-3.7782,-3.7301,-3.7253,-3.7094,-3.6881,-3.6651,-3.6602,-3.6516,-3.635,-3.6195,-3.6271,-3.6568,-3.6444,-3.6326,-3.6284,-3.6284,-3.6284,-3.6222,-3.6985,-3.7251,-3.7578,-3.8032,-3.8496,-3.8478,-3.8478,-3.8478,-3.8401,-3.8322,-3.8307,-3.8274,-3.8259,-3.8192,-3.8192,-3.8192,-3.8192,-3.8192,-3.8192,-3.8192,-3.8192,-3.8192,-3.8192,-3.8192,-3.8192,-3.8192,-3.8192,-3.8192,-3.8192,-3.8192,-3.8192,-3.8192,-3.8192,-3.8192,-3.8192,-3.8192,-3.8192,-3.8192,-3.8192,-3.8192,-3.8192,-3.8192,-3.8225,-3.8322,-3.8541,-3.8796,-3.911,-3.9502,-3.9781,-3.9807,-3.9813,-3.9662,-3.9624,-3.9399,-3.9418,-3.9794,-3.9738,-3.9453,-3.9361,-5.8129,-5.8025,-5.7092,-5.6559,-5.6196,-5.5321,-5.4931,-5.4901,-5.4901,-5.4901,-5.4901,-5.4901,-5.4901,-5.4901,-5.4901,-5.4901,-5.453,-5.3735,-5.2734,-5.1858,-5.1018,-4.995,-4.8978,-4.8254,-4.7512,-4.6522,-4.5305,-4.4246,-4.3512,-4.2708,-4.2305,-4.2287,-4.2269,-4.1912,-4.1109,-4.0324,-3.9462,-3.8599,-3.7742,-3.715,-3.6911,-3.6821,-3.6643,-3.6454,-3.6419,-3.6385,-3.6232,-3.5766,-3.5825,-3.635,-3.636,-3.6284,-3.6249,-3.6266,-3.6094,-3.581,-3.6432,-3.6898,-3.6845,-3.7554,-3.8183,-3.8415,-3.8368,-3.8354,-3.8322,-3.8274,-3.8225,-3.8225,-3.8225,-3.8192,-3.8192,-3.8192,-3.8192,-3.8192,-3.8192,-3.8192,-3.8192,-3.8192,-3.8192,-3.8192,-3.8192,-3.8192,-3.8192,-3.8192,-3.8192,-3.8192,-3.8192,-3.8192,-3.8192,-3.8192,-3.8192,-3.8192,-3.8192,-3.8192,-3.8192,-3.8192,-3.8192,-3.8192,-3.8225,-3.8307,-3.8528,-3.8785,-3.9082,-3.9427,-3.9575,-3.9628,-3.9762,-3.9772,-3.9848,-3.9889,-3.9889,-3.9889,-3.9889,-3.9719,-3.9681,-5.753,-5.714,-5.6529,-5.6053,-5.5662,-5.5139,-5.4901,-5.4901,-5.4901,-5.4901,-5.4901,-5.4901,-5.4901,-5.4901,-5.4901,-5.4583,-5.4094,-5.327,-5.2132,-5.0919,-4.9765,-4.8846,-4.8194,-4.7806,-4.7375,-4.6658,-4.5258,-4.4425,-4.3823,-4.2887,-4.2323,-4.2287,-4.2287,-4.2037,-4.1609,-4.037,-3.9562,-3.8819,-3.776,-3.6917,-3.6738,-3.658,-3.6485,-3.6343,-3.6284,-3.6284,-3.6215,-3.5887,-3.5887,-3.6146,-3.6025,-3.5835,-3.587,-3.6163,-3.6039,-3.5531,-3.6066,-3.6414,-3.672,-3.7218,-3.7623,-3.8047,-3.8171,-3.8256,-3.8274,-3.8225,-3.8192,-3.8192,-3.8192,-3.8192,-3.8192,-3.8192,-3.8192,-3.8192,-3.8192,-3.8192,-3.8192,-3.8192,-3.8192,-3.8192,-3.8192,-3.8192,-3.8192,-3.8192,-3.8192,-3.8192,-3.8192,-3.8192,-3.8192,-3.8192,-3.8192,-3.8192,-3.8192,-3.8192,-3.8192,-3.8192,-3.8192,-3.8192,-3.8225,-3.8274,-3.8437,-3.8683,-3.8913,-3.9165,-3.935,-3.9502,-3.9623,-3.9758,-3.9848,-3.9889,-3.9889,-3.9889,-3.9889,-3.987,-3.987,-5.6939,-5.6158,-5.6177,-5.5662,-5.4996,-5.4901,-5.4901,-5.4901,-5.4901,-5.4901,-5.4901,-5.4901,-5.4822,-5.4822,-5.4692,-5.4163,-5.3024,-5.2173,-5.089,-4.964,-4.8462,-4.7715,-4.7674,-4.7554,-4.7324,-4.6731,-4.5338,-4.4686,-4.4103,-4.3007,-4.2341,-4.2287,-4.2287,-4.2228,-4.1718,-4.0458,-3.9651,-3.9083,-3.7627,-3.6788,-3.6591,-3.6457,-3.6343,-3.6284,-3.6284,-3.6284,-3.6249,-3.6146,-3.6146,-3.6284,-3.5576,-3.5232,-3.5232,-3.5732,-3.5723,-3.5448,-3.5392,-3.5878,-3.6663,-3.663,-3.7036,-3.763,-3.8088,-3.8274,-3.8207,-3.8192,-3.8192,-3.8192,-3.8192,-3.8192,-3.8192,-3.8192,-3.8192,-3.8192,-3.8192,-3.8192,-3.8192,-3.8192,-3.8192,-3.8192,-3.8192,-3.8192,-3.8192,-3.8192,-3.8192,-3.8192,-3.8192,-3.8192,-3.8192,-3.8192,-3.8192,-3.8192,-3.8192,-3.8192,-3.8192,-3.8192,-3.8192,-3.8192,-3.8192,-3.8259,-3.8328,-3.8519,-3.8683,-3.8855,-3.9008,-3.9227,-3.9477,-3.9599,-3.9735,-3.9804,-3.9781,-3.9804,-3.9845,-3.9848,-3.9848,-5.6092,-5.5265,-5.5245,-5.5102,-5.492,-5.4901,-5.4901,-5.4871,-5.4871,-5.4822,-5.4871,-5.4871,-5.468,-5.4416,-5.4217,-5.3599,-5.2326,-5.1306,-5.0081,-4.8233,-4.754,-4.7169,-4.7169,-4.7169,-4.708,-4.6587,-4.5356,-4.4632,-4.421,-4.3114,-4.2287,-4.2246,-4.2103,-4.1977,-4.1747,-4.0323,-3.9245,-3.8856,-3.7526,-3.662,-3.6416,-3.6333,-3.6284,-3.6284,-3.6284,-3.6284,-3.6163,-3.5732,-3.5714,-3.5956,-3.5576,-3.4887,-3.4582,-3.4587,-3.4419,-3.4116,-3.4438,-3.4795,-3.5072,-3.6025,-3.6825,-3.7488,-3.7967,-3.8207,-3.8225,-3.8192,-3.8192,-3.8192,-3.8192,-3.8192,-3.8192,-3.8192,-3.8192,-3.8192,-3.8192,-3.8192,-3.8192,-3.8192,-3.8192,-3.8192,-3.8192,-3.8192,-3.8192,-3.8192,-3.8192,-3.8192,-3.8192,-3.8192,-3.8192,-3.8192,-3.8192,-3.8192,-3.8192,-3.8192,-3.8192,-3.8192,-3.8192,-3.8192,-3.8192,-3.821,-3.8313,-3.8347,-3.8483,-3.8572,-3.8676,-3.8923,-3.9272,-3.9427,-3.9526,-3.9599,-3.9647,-3.9647,-3.967,-3.9717,-3.9826,-5.5348,-5.496,-5.4901,-5.4901,-5.4871,-5.473,-5.4597,-5.4565,-5.4416,-5.433,-5.433,-5.4296,-5.4139,-5.3887,-5.3367,-5.2512,-5.1238,-4.9793,-4.8551,-4.7504,-4.7116,-4.7043,-4.6998,-4.6944,-4.6837,-4.6337,-4.5231,-4.4482,-4.3828,-4.2965,-4.2246,-4.2103,-4.1959,-4.1849,-4.1533,-4.0052,-3.9206,-3.8711,-3.7401,-3.6444,-3.6301,-3.6284,-3.6284,-3.6284,-3.6284,-3.6284,-3.6232,-3.5973,-3.5766,-3.5611,-3.5053,-3.4484,-3.4162,-3.4047,-3.3805,-3.3824,-3.3723,-3.4746,-3.5437,-3.5911,-3.6559,-3.7416,-3.7933,-3.814,-3.8192,-3.8192,-3.8192,-3.8192,-3.8192,-3.8192,-3.8192,-3.8192,-3.8192,-3.8192,-3.8192,-3.8192,-3.8192,-3.8192,-3.8192,-3.8192,-3.8192,-3.8192,-3.8192,-3.8192,-3.8192,-3.8192,-3.8192,-3.8192,-3.8192,-3.8192,-3.8192,-3.8192,-3.8192,-3.8192,-3.8192,-3.8192,-3.8192,-3.8192,-3.8192,-3.8192,-3.8244,-3.8244,-3.8241,-3.8368,-3.851,-3.8737,-3.9055,-3.9192,-3.935,-3.9427,-3.9477,-3.9458,-3.9483,-3.9599,-3.9693,-5.4667,-5.4711,-5.4711,-5.4711,-5.468,-5.433,-5.4193,-5.4158,-5.3833,-5.3796,-5.3608,-5.3456,-5.3272,-5.2985,-5.2186,-5.1132,-4.9762,-4.8341,-4.7259,-4.7106,-4.7025,-4.6998,-4.6998,-4.6926,-4.648,-4.5641,-4.4946,-4.4268,-4.3476,-4.265,-4.2079,-4.1892,-4.1788,-4.1675,-4.1165,-4.0027,-3.9077,-3.8721,-3.7447,-3.6498,-3.6335,-3.6284,-3.6284,-3.6284,-3.6284,-3.6284,-3.6284,-3.618,-3.6008,-3.537,-3.4421,-3.4026,-3.3945,-3.3687,-3.364,-3.3865,-3.3416,-3.4017,-3.5203,-3.5802,-3.6165,-3.7238,-3.7897,-3.8192,-3.8192,-3.8192,-3.8192,-3.8192,-3.8192,-3.8192,-3.8192,-3.8192,-3.8192,-3.8192,-3.8192,-3.8192,-3.8192,-3.8192,-3.8192,-3.8192,-3.8192,-3.8192,-3.8192,-3.8192,-3.8192,-3.8192,-3.8192,-3.8192,-3.8192,-3.8192,-3.8192,-3.8192,-3.8192,-3.8192,-3.8192,-3.8246,-3.8228,-3.8334,-3.8282,-3.8319,-3.8301,-3.8225,-3.8225,-3.8256,-3.8401,-3.8664,-3.8873,-3.9027,-3.9165,-3.9272,-3.935,-3.9331,-3.9401,-3.9496,-3.9599,-5.387,-5.3906,-5.3925,-5.3906,-5.3925,-5.3833,-5.3796,-5.3814,-5.3701,-5.3644,-5.338,-5.2806,-5.2213,-5.171,-5.0866,-4.9735,-4.856,-4.7464,-4.7043,-4.6998,-4.6998,-4.6998,-4.6998,-4.6819,-4.6177,-4.5142,-4.4528,-4.3978,-4.3101,-4.2402,-4.1884,-4.1631,-4.1436,-4.13,-4.1046,-4.0169,-3.9202,-3.8693,-3.7672,-3.6939,-3.6422,-3.6284,-3.6284,-3.6284,-3.6284,-3.6284,-3.6284,-3.6301,-3.6207,-3.5916,-3.4638,-3.4014,-3.3665,-3.2821,-3.2273,-3.2248,-3.2538,-3.3256,-3.4213,-3.5011,-3.5616,-3.6523,-3.7572,-3.8174,-3.8192,-3.8192,-3.8192,-3.8192,-3.8192,-3.8192,-3.8192,-3.8192,-3.8192,-3.8192,-3.8192,-3.8192,-3.8192,-3.8192,-3.8192,-3.8192,-3.8192,-3.8192,-3.8192,-3.8192,-3.8192,-3.8192,-3.8192,-3.8192,-3.8192,-3.8192,-3.8192,-3.8192,-3.8192,-3.8192,-3.8192,-3.8264,-3.8301,-3.8461,-3.8515,-3.8608,-3.8536,-3.8282,-3.8225,-3.8507,-3.8528,-3.8603,-3.8785,-3.8902,-3.9027,-3.9137,-3.9192,-3.9227,-3.9272,-3.9324,-3.9551,-5.3663,-5.3701,-5.3701,-5.3701,-5.3644,-5.3468,-5.3388,-5.3348,-5.3101,-5.2712,-5.2206,-5.1682,-5.1108,-5.0389,-4.9532,-4.8524,-4.7678,-4.7212,-4.6998,-4.6998,-4.6998,-4.6998,-4.6873,-4.6605,-4.5641,-4.4654,-4.4041,-4.3367,-4.2493,-4.2,-4.1631,-4.1408,-4.1255,-4.1163,-4.0851,-4.0153,-3.9336,-3.8594,-3.787,-3.7094,-3.637,-3.6284,-3.6284,-3.6284,-3.6284,-3.6284,-3.6301,-3.6276,-3.6233,-3.5942,-3.5,-3.4438,-3.3877,-3.3165,-3.2298,-3.2083,-3.2548,-3.3387,-3.4359,-3.5633,-3.6702,-3.7252,-3.7925,-3.8174,-3.8192,-3.8192,-3.8192,-3.8192,-3.8192,-3.8192,-3.8192,-3.8192,-3.8192,-3.8192,-3.8192,-3.8192,-3.8192,-3.8192,-3.8192,-3.8192,-3.8192,-3.8192,-3.8192,-3.8192,-3.8192,-3.8192,-3.8192,-3.8192,-3.8192,-3.8192,-3.8192,-3.8192,-3.821,-3.8301,-3.8391,-3.8572,-3.8751,-3.8842,-3.8987,-3.9079,-3.9097,-3.9007,-3.8964,-3.9097,-3.9008,-3.8755,-3.8664,-3.8785,-3.8902,-3.9045,-3.9082,-3.9137,-3.9137,-3.9219,-3.9452,-5.3407,-5.3468,-5.3468,-5.345,-5.3388,-5.312,-5.2877,-5.2638,-5.2236,-5.16,-5.0775,-5.0365,-4.9823,-4.9138,-4.8393,-4.7632,-4.6998,-4.6998,-4.6998,-4.6998,-4.698,-4.6944,-4.6569,-4.606,-4.5143,-4.3997,-4.3341,-4.2547,-4.193,-4.1604,-4.1408,-4.1226,-4.1134,-4.1071,-4.0745,-4.0383,-3.9474,-3.8646,-3.8043,-3.7284,-3.6525,-3.6284,-3.6284,-3.6284,-3.6301,-3.6259,-3.6259,-3.6191,-3.6122,-3.5831,-3.5249,-3.4661,-3.4516,-3.3855,-3.3211,-3.2927,-3.3618,-3.4579,-3.5407,-3.6613,-3.7252,-3.7582,-3.8029,-3.8174,-3.8192,-3.8192,-3.8192,-3.8192,-3.8192,-3.8192,-3.8192,-3.8192,-3.8192,-3.8192,-3.8192,-3.8192,-3.8192,-3.8192,-3.8192,-3.8192,-3.8192,-3.8192,-3.8192,-3.8192,-3.8192,-3.8192,-3.8192,-3.8192,-3.8192,-3.8192,-3.8192,-3.8192,-3.8246,-3.8373,-3.8608,-3.9025,-3.9295,-3.9585,-3.9749,-3.9913,-3.9931,-3.9895,-3.9817,-3.9607,-3.9301,-3.9035,-3.886,-3.8743,-3.8931,-3.9045,-3.9027,-3.911,-3.929,-3.9272,-3.9331,-5.2645,-5.2645,-5.2608,-5.2645,-5.2572,-5.2509,-5.2055,-5.1366,-5.1256,-5.0667,-4.9708,-4.907,-4.8654,-4.8204,-4.7579,-4.7105,-4.6998,-4.6998,-4.6998,-4.6998,-4.689,-4.6506,-4.6007,-4.5683,-4.4528,-4.3394,-4.2735,-4.2061,-4.1475,-4.1255,-4.118,-4.1012,-4.0965,-4.0918,-4.0884,-4.0664,-3.9991,-3.8836,-3.8439,-3.7663,-3.6542,-3.6284,-3.6284,-3.6259,-3.6251,-3.6208,-3.6191,-3.6062,-3.5975,-3.5776,-3.5163,-3.4686,-3.443,-3.3812,-3.3474,-3.3536,-3.3995,-3.4616,-3.5132,-3.6328,-3.7262,-3.7525,-3.7848,-3.8119,-3.8192,-3.8192,-3.8192,-3.8192,-3.8192,-3.8192,-3.8192,-3.8192,-3.8192,-3.8192,-3.8192,-3.8192,-3.8192,-3.8192,-3.8192,-3.8192,-3.8192,-3.8192,-3.8192,-3.8192,-3.8192,-3.8192,-3.821,-3.821,-3.8192,-3.8192,-3.8427,-3.85,-3.8608,-3.8735,-3.9278,-3.9623,-3.9984,-4.0363,-4.0637,-4.0836,-4.0854,-4.0764,-4.0184,-3.9942,-3.9659,-3.9475,-3.935,-3.9245,-3.9155,-3.9129,-3.9185,-3.9384,-3.9602,-3.9489,-3.9283,-5.114,-5.1122,-5.1122,-5.114,-5.1122,-5.1077,-5.0832,-5.0452,-5.0243,-4.9718,-4.8934,-4.8501,-4.8025,-4.7515,-4.7087,-4.6998,-4.6998,-4.6998,-4.6998,-4.6756,-4.6461,-4.596,-4.5435,-4.4526,-4.3356,-4.2805,-4.2061,-4.1545,-4.1123,-4.1041,-4.0965,-4.0918,-4.0871,-4.0918,-4.0871,-4.0871,-3.9957,-3.8767,-3.7767,-3.6991,-3.6456,-3.6284,-3.6259,-3.6233,-3.6225,-3.6165,-3.6079,-3.5949,-3.5861,-3.5722,-3.5382,-3.5193,-3.5081,-3.4861,-3.4675,-3.4718,-3.5463,-3.5703,-3.5553,-3.6613,-3.7214,-3.7633,-3.7975,-3.8174,-3.8192,-3.8192,-3.8192,-3.8192,-3.8192,-3.8192,-3.8192,-3.8192,-3.8192,-3.8192,-3.8192,-3.8192,-3.8192,-3.8192,-3.8192,-3.8192,-3.821,-3.8246,-3.8352,-3.8461,-3.8407,-3.821,-3.8282,-3.8373,-3.8301,-3.8192,-3.8536,-3.8952,-3.9079,-3.9224,-3.993,-4.051,-4.0854,-4.127,-4.1814,-4.194,-4.1849,-4.1596,-4.1053,-4.0653,-4.0504,-4.0255,-3.9955,-3.9583,-3.9316,-3.9322,-3.938,-3.9786,-4.008,-3.9469,-3.937,-4.9492,-4.9528,-4.9927,-5.009,-5.0027,-4.992,-4.9785,-4.9496,-4.9313,-4.879,-4.8189,-4.7918,-4.7551,-4.7122,-4.6998,-4.6998,-4.6998,-4.6998,-4.6791,-4.6397,-4.5879,-4.529,-4.4481,-4.33,-4.2573,-4.2108,-4.1528,-4.1128,-4.1,-4.0918,-4.0918,-4.0871,-4.0871,-4.0871,-4.0871,-4.0767,-4.0129,-3.8629,-3.7163,-3.6456,-3.6284,-3.6276,-3.6251,-3.6225,-3.614,-3.6036,-3.5932,-3.5817,-3.5773,-3.5694,-3.5633,-3.5504,-3.5504,-3.5436,-3.5491,-3.565,-3.6191,-3.6474,-3.6531,-3.7167,-3.7791,-3.8072,-3.8192,-3.8192,-3.8192,-3.8192,-3.8192,-3.8192,-3.8192,-3.8192,-3.8192,-3.8192,-3.8192,-3.8192,-3.8192,-3.8192,-3.8228,-3.8282,-3.8301,-3.8282,-3.8319,-3.8391,-3.8534,-3.8749,-3.8658,-3.8352,-3.8337,-3.8554,-3.8608,-3.8608,-3.8971,-3.9532,-3.9713,-3.9967,-4.0655,-4.127,-4.1687,-4.2032,-4.2557,-4.2719,-4.2464,-4.2285,-4.1887,-4.1579,-4.127,-4.0797,-4.0352,-3.9891,-3.9528,-3.9896,-4.0244,-4.0511,-4.0502,-3.9867,-3.9649,-4.788,-4.7989,-4.9438,-4.9955,-4.983,-4.992,-4.9334,-4.8559,-4.8496,-4.7974,-4.7293,-4.7122,-4.714,-4.7015,-4.698,-4.6962,-4.6944,-4.698,-4.6407,-4.5843,-4.5414,-4.4417,-4.3458,-4.2614,-4.2004,-4.1424,-4.1059,-4.0982,-4.0871,-4.0871,-4.0871,-4.0871,-4.0871,-4.0871,-4.0767,-4.056,-3.9905,-3.8491,-3.7077,-3.6335,-3.6276,-3.6268,-3.62,-3.614,-3.5966,-3.5817,-3.58,-3.5711,-3.5622,-3.5622,-3.5622,-3.5639,-3.5639,-3.5711,-3.5844,-3.6131,-3.6451,-3.6755,-3.7179,-3.7542,-3.8018,-3.8192,-3.8192,-3.8192,-3.8192,-3.8192,-3.8192,-3.8192,-3.8192,-3.8192,-3.8192,-3.8192,-3.8192,-3.8192,-3.8246,-3.8355,-3.8391,-3.8427,-3.8427,-3.8391,-3.8572,-3.8916,-3.9075,-3.9397,-3.9109,-3.8751,-3.9135,-3.9352,-3.9568,-3.9623,-3.984,-4.0184,-4.0383,-4.0782,-4.1452,-4.1886,-4.2122,-4.2358,-4.2757,-4.2864,-4.2792,-4.263,-4.2412,-4.2159,-4.1742,-4.1252,-4.0908,-4.0846,-4.0815,-4.0891,-4.102,-4.0929,-4.1145,-4.0953,-4.0703,-4.7657,-4.7626,-4.8283,-4.8475,-4.8413,-4.8299,-4.8021,-4.768,-4.7535,-4.7365,-4.6998,-4.6998,-4.6998,-4.6998,-4.6944,-4.6694,-4.632,-4.6248,-4.5614,-4.4794,-4.4029,-4.3335,-4.2492,-4.1858,-4.1254,-4.1047,-4.0918,-4.0871,-4.0871,-4.0871,-4.0871,-4.0871,-4.0871,-4.0871,-4.0733,-4.0077,-3.9198,-3.8474,-3.7198,-3.6293,-3.6251,-3.62,-3.6114,-3.5949,-3.5905,-3.5773,-3.5684,-3.5622,-3.5622,-3.5639,-3.5639,-3.5622,-3.5711,-3.5871,-3.6131,-3.6409,-3.6719,-3.7132,-3.7395,-3.7721,-3.788,-3.8192,-3.8192,-3.8192,-3.8192,-3.8192,-3.8192,-3.8192,-3.8192,-3.8192,-3.821,-3.821,-3.8192,-3.8192,-3.8355,-3.8572,-3.8735,-3.888,-3.9061,-3.9242,-3.9586,-3.9948,-4.0053,-4.0122,-3.9688,-3.9275,-3.9749,-4.0167,-4.0402,-4.0528,-4.0673,-4.0944,-4.118,-4.1488,-4.214,-4.2375,-4.252,-4.2701,-4.29,-4.29,-4.29,-4.2882,-4.2665,-4.2466,-4.2375,-4.2085,-4.1977,-4.2105,-4.1977,-4.1665,-4.129,-4.0997,-4.1309,-4.1776,-4.1729,-4.759,-4.7511,-4.7443,-4.7425,-4.7399,-4.7267,-4.7196,-4.7151,-4.7079,-4.6998,-4.6998,-4.6998,-4.6998,-4.6998,-4.698,-4.6506,-4.5962,-4.565,-4.4812,-4.3976,-4.305,-4.2411,-4.1858,-4.1375,-4.0987,-4.0871,-4.0871,-4.0871,-4.0871,-4.0871,-4.0871,-4.0871,-4.0871,-4.0871,-4.0526,-3.9457,-3.8612,-3.8249,-3.7172,-3.6268,-3.6208,-3.6096,-3.601,-3.5817,-3.5756,-3.5728,-3.5639,-3.5622,-3.5622,-3.5639,-3.5622,-3.5711,-3.5871,-3.6114,-3.6367,-3.6759,-3.7132,-3.7542,-3.7667,-3.7756,-3.788,-3.8158,-3.8192,-3.8192,-3.8192,-3.8192,-3.8192,-3.8192,-3.8192,-3.8264,-3.8409,-3.8645,-3.8934,-3.9115,-3.9224,-3.9423,-3.9586,-3.9731,-3.9967,-4.0184,-4.0528,-4.0782,-4.0618,-4.0652,-4.0744,-4.022,-4.013,-4.0764,-4.147,-4.147,-4.1361,-4.1687,-4.2049,-4.2393,-4.2755,-4.2719,-4.2701,-4.2755,-4.29,-4.29,-4.29,-4.29,-4.29,-4.2737,-4.2719,-4.2864,-4.2793,-4.2576,-4.2376,-4.2195,-4.1886,-4.1643,-4.1882,-4.2357,-4.2413,-4.7432,-4.745,-4.7276,-4.7205,-4.7223,-4.7178,-4.7151,-4.7043,-4.6998,-4.6998,-4.698,-4.6944,-4.6873,-4.6855,-4.6676,-4.5988,-4.5301,-4.5166,-4.4301,-4.28,-4.2358,-4.1759,-4.1324,-4.0953,-4.0871,-4.0871,-4.0871,-4.0871,-4.0871,-4.0871,-4.0871,-4.0871,-4.0871,-4.0871,-4.0733,-3.9353,-3.8629,-3.837,-3.699,-3.6363,-3.6122,-3.5993,-3.5861,-3.5756,-3.5667,-3.5622,-3.5639,-3.5639,-3.5639,-3.5639,-3.5639,-3.58,-3.6174,-3.6284,-3.6678,-3.7301,-3.7432,-3.7756,-3.8106,-3.814,-3.8174,-3.8192,-3.8192,-3.8192,-3.8192,-3.8192,-3.8192,-3.821,-3.8301,-3.8645,-3.9007,-3.9405,-3.9731,-3.9894,-3.9985,-4.0202,-4.0347,-4.0528,-4.0745,-4.1144,-4.1379,-4.1506,-4.1216,-4.1144,-4.156,-4.136,-4.0872,-4.1216,-4.2122,-4.2266,-4.2049,-4.2176,-4.2538,-4.2647,-4.2846,-4.2864,-4.2864,-4.29,-4.29,-4.29,-4.29,-4.29,-4.29,-4.29,-4.29,-4.29,-4.29,-4.2864,-4.2683,-4.2538,-4.2683,-4.2631,-4.2794,-4.2794,-4.2758,-4.6206,-4.6625,-4.6496,-4.6668,-4.7035,-4.7088,-4.7043,-4.698,-4.6998,-4.698,-4.6855,-4.648,-4.6186,-4.6043,-4.549,-4.4857,-4.4094,-4.3701,-4.2741,-4.1795,-4.1661,-4.1365,-4.1017,-4.0871,-4.0871,-4.0871,-4.0871,-4.0871,-4.0871,-4.0871,-4.0871,-4.0871,-4.0871,-4.0871,-4.0474,-3.9474,-3.8594,-3.8318,-3.7189,-3.6233,-3.6079,-3.5975,-3.5844,-3.5667,-3.5622,-3.5639,-3.5639,-3.5639,-3.5639,-3.5639,-3.5639,-3.5844,-3.6284,-3.6451,-3.6935,-3.7503,-3.7703,-3.8002,-3.8192,-3.8192,-3.8192,-3.8192,-3.8192,-3.8192,-3.8192,-3.8192,-3.8192,-3.8391,-3.8771,-3.9115,-3.9333,-3.9912,-4.0256,-4.0293,-4.0437,-4.08,-4.1017,-4.1234,-4.1506,-4.2049,-4.2429,-4.2357,-4.2158,-4.1868,-4.2121,-4.2301,-4.1868,-4.1904,-4.2592,-4.2701,-4.2592,-4.2629,-4.2792,-4.2846,-4.29,-4.29,-4.29,-4.29,-4.29,-4.29,-4.29,-4.29,-4.29,-4.29,-4.29,-4.29,-4.29,-4.29,-4.29,-4.2882,-4.29,-4.29,-4.2884,-4.2865,-4.2865,-4.5418,-4.5755,-4.5584,-4.5783,-4.623,-4.6748,-4.6855,-4.6623,-4.6569,-4.6435,-4.6087,-4.5597,-4.5372,-4.5158,-4.4636,-4.3819,-4.3023,-4.2745,-4.2131,-4.1221,-4.1105,-4.1029,-4.0935,-4.0871,-4.0871,-4.0871,-4.0871,-4.0871,-4.0871,-4.0871,-4.0871,-4.0871,-4.0871,-4.0871,-4.0422,-3.9526,-3.8594,-3.818,-3.7128,-3.6131,-3.6002,-3.5871,-3.5756,-3.5667,-3.5639,-3.5639,-3.5639,-3.5639,-3.5639,-3.5639,-3.5684,-3.5932,-3.6385,-3.6655,-3.7108,-3.7594,-3.7987,-3.8174,-3.8192,-3.8192,-3.8192,-3.8192,-3.8192,-3.8192,-3.8301,-3.85,-3.8627,-3.888,-3.9351,-3.984,-4.0202,-4.0763,-4.0963,-4.1017,-4.1343,-4.1723,-4.1814,-4.2031,-4.2103,-4.2701,-4.2864,-4.2882,-4.29,-4.2828,-4.2719,-4.281,-4.2828,-4.29,-4.29,-4.29,-4.29,-4.29,-4.29,-4.29,-4.29,-4.29,-4.29,-4.29,-4.29,-4.29,-4.29,-4.29,-4.29,-4.29,-4.29,-4.29,-4.29,-4.29,-4.29,-4.29,-4.29,-4.29,-4.29,-4.29,-4.29,-4.4926,-4.4905,-4.4675,-4.4624,-4.491,-4.6177,-4.6391,-4.5784,-4.5766,-4.5347,-4.4688,-4.468,-4.455,-4.4498,-4.4244,-4.3544,-4.271,-4.2376,-4.1725,-4.1185,-4.0965,-4.0935,-4.0935,-4.0871,-4.0871,-4.0871,-4.0871,-4.0871,-4.0871,-4.0871,-4.0871,-4.0871,-4.0871,-4.0784,-4.025,-3.9422,-3.8681,-3.8092,-3.705,-3.6208,-3.5941,-3.5766,-3.565,-3.5622,-3.5639,-3.5639,-3.5639,-3.5639,-3.569,-3.5723,-3.574,-3.6242,-3.6502,-3.6527,-3.7203,-3.7739,-3.8088,-3.8119,-3.8192,-3.8192,-3.8192,-3.8192,-3.8192,-3.8192,-3.8373,-3.8753,-3.9043,-3.9441,-3.9967,-4.0763,-4.1452,-4.1723,-4.1977,-4.223,-4.2538,-4.2683,-4.2701,-4.2755,-4.2737,-4.2882,-4.2882,-4.29,-4.29,-4.29,-4.29,-4.29,-4.29,-4.29,-4.29,-4.29,-4.29,-4.29,-4.29,-4.29,-4.29,-4.29,-4.29,-4.29,-4.29,-4.29,-4.29,-4.29,-4.29,-4.29,-4.29,-4.29,-4.29,-4.29,-4.29,-4.29,-4.29,-4.29,-4.29,-4.29,-4.29,-4.3562,-4.3996,-4.3864,-4.4125,-4.466,-4.5106,-4.5142,-4.4963,-4.4963,-4.4759,-4.4589,-4.4053,-4.3799,-4.3763,-4.2827,-4.2317,-4.1908,-4.1557,-4.1237,-4.0987,-4.0871,-4.0871,-4.0871,-4.0871,-4.0871,-4.0871,-4.0871,-4.0871,-4.0871,-4.0871,-4.0871,-4.0871,-4.0871,-4.0629,-3.9991,-3.8986,-3.8659,-3.8064,-3.686,-3.619,-3.5898,-3.5766,-3.5667,-3.5622,-3.5639,-3.5639,-3.5639,-3.5707,-3.5859,-3.6265,-3.6383,-3.6761,-3.712,-3.7145,-3.7458,-3.7577,-3.77,-3.7814,-3.8119,-3.8192,-3.8192,-3.821,-3.8228,-3.821,-3.8427,-3.8916,-3.9441,-4.0003,-4.0709,-4.156,-4.1959,-4.2212,-4.2448,-4.2683,-4.29,-4.29,-4.29,-4.29,-4.29,-4.29,-4.29,-4.29,-4.29,-4.29,-4.29,-4.29,-4.29,-4.29,-4.29,-4.29,-4.29,-4.29,-4.29,-4.29,-4.29,-4.29,-4.29,-4.29,-4.29,-4.29,-4.29,-4.29,-4.29,-4.29,-4.29,-4.29,-4.29,-4.29,-4.29,-4.29,-4.29,-4.29,-4.29,-4.29,-4.29,-4.2813,-4.3125,-4.306,-4.3304,-4.3661,-4.3697,-4.3697,-4.375,-4.4018,-4.406,-4.3674,-4.3221,-4.3007,-4.29,-4.2139,-4.1657,-4.163,-4.1221,-4.0953,-4.0953,-4.0871,-4.0871,-4.0871,-4.0871,-4.0871,-4.0871,-4.0871,-4.0871,-4.0871,-4.0871,-4.0871,-4.0871,-4.0871,-4.0548,-3.995,-3.9129,-3.842,-3.7792,-3.6949,-3.6137,-3.5854,-3.5722,-3.5667,-3.5622,-3.5639,-3.5639,-3.569,-3.5791,-3.6214,-3.6552,-3.6654,-3.7223,-3.756,-3.7662,-3.7463,-3.7573,-3.7719,-3.7891,-3.8174,-3.8192,-3.8192,-3.8282,-3.8464,-3.8681,-3.8989,-3.946,-4.0021,-4.06,-4.1506,-4.2248,-4.2411,-4.2556,-4.2719,-4.29,-4.29,-4.29,-4.29,-4.29,-4.29,-4.29,-4.29,-4.29,-4.29,-4.29,-4.29,-4.29,-4.29,-4.29,-4.29,-4.29,-4.29,-4.29,-4.29,-4.29,-4.29,-4.29,-4.29,-4.29,-4.29,-4.29,-4.29,-4.29,-4.29,-4.29,-4.29,-4.29,-4.29,-4.29,-4.29,-4.29,-4.29,-4.29,-4.29,-4.29,-4.29,-4.2422,-4.2481,-4.2346,-4.2376,-4.2305,-4.2394,-4.2394,-4.2358,-4.3126,-4.3019,-4.2465,-4.2323,-4.2358,-4.2287,-4.1797,-4.156,-4.1426,-4.1105,-4.0871,-4.0871,-4.0871,-4.0871,-4.0871,-4.0871,-4.0871,-4.0871,-4.0871,-4.0871,-4.0871,-4.0871,-4.0871,-4.0871,-4.0871,-4.0586,-4.0062,-3.9174,-3.8482,-3.7882,-3.6916,-3.6004,-3.5783,-3.5661,-3.5639,-3.5639,-3.5639,-3.5639,-3.5791,-3.6062,-3.64,-3.6451,-3.6734,-3.7444,-3.7914,-3.7868,-3.7644,-3.7638,-3.7774,-3.7964,-3.8138,-3.8192,-3.8192,-3.8445,-3.8898,-3.9242,-3.9604,-4.0184,-4.08,-4.1216,-4.2013,-4.2484,-4.2701,-4.2737,-4.2846,-4.29,-4.29,-4.29,-4.29,-4.29,-4.29,-4.29,-4.29,-4.29,-4.29,-4.29,-4.29,-4.29,-4.29,-4.29,-4.29,-4.29,-4.29,-4.29,-4.29,-4.29,-4.29,-4.29,-4.29,-4.29,-4.29,-4.29,-4.29,-4.29,-4.29,-4.29,-4.29,-4.29,-4.29,-4.29,-4.29,-4.29,-4.29,-4.29,-4.29,-4.29,-4.29,-4.189,-4.2328,-4.2328,-4.2287,-4.2287,-4.2287,-4.2251,-4.2305,-4.2483,-4.243,-4.2305,-4.2269,-4.2151,-4.1888,-4.163,-4.1375,-4.1115,-4.0851,-4.0884,-4.0802,-4.0784,-4.0698,-4.0784,-4.0647,-4.0733,-4.0871,-4.0871,-4.0784,-4.0802,-4.0819,-4.0823,-4.0745,-4.0728,-4.0525,-3.9935,-3.9102,-3.8683,-3.8163,-3.7204,-3.6322,-3.5943,-3.5745,-3.5639,-3.5656,-3.5656,-3.5673,-3.5757,-3.5774,-3.6231,-3.6552,-3.6772,-3.7439,-3.8232,-3.7914,-3.7958,-3.8117,-3.7864,-3.7928,-3.8138,-3.821,-3.8246,-3.8482,-3.8971,-3.9623,-4.0256,-4.0999,-4.156,-4.1922,-4.2266,-4.2665,-4.29,-4.29,-4.29,-4.29,-4.29,-4.29,-4.29,-4.29,-4.29,-4.29,-4.29,-4.29,-4.29,-4.29,-4.29,-4.29,-4.29,-4.29,-4.29,-4.29,-4.29,-4.29,-4.29,-4.29,-4.29,-4.29,-4.29,-4.29,-4.29,-4.29,-4.29,-4.29,-4.29,-4.29,-4.29,-4.29,-4.29,-4.29,-4.29,-4.29,-4.29,-4.29,-4.29,-4.29,-4.29,-4.0881,-4.1217,-4.1234,-4.1234,-4.1234,-4.1234,-4.1234,-4.1234,-4.1234,-4.1252,-4.1355,-4.1754,-4.1884,-4.1389,-4.1078,-4.0656,-4.0363,-4.0354,-4.0279,-4.0319,-4.0353,-4.0319,-4.0284,-4.0112,-3.9784,-3.9888,-4.025,-4.0353,-4.0479,-4.0802,-4.084,-4.0697,-4.0662,-4.0394,-3.9754,-3.9452,-3.8999,-3.8441,-3.7682,-3.7102,-3.652,-3.6356,-3.6203,-3.6152,-3.6107,-3.5977,-3.5808,-3.5825,-3.6113,-3.6434,-3.6569,-3.7305,-3.782,-3.7717,-3.7835,-3.7958,-3.79,-3.769,-3.8013,-3.8228,-3.8355,-3.8753,-3.9405,-4.0202,-4.1035,-4.1741,-4.2176,-4.252,-4.2574,-4.29,-4.29,-4.29,-4.29,-4.29,-4.29,-4.29,-4.29,-4.29,-4.29,-4.29,-4.29,-4.29,-4.29,-4.29,-4.29,-4.29,-4.29,-4.29,-4.29,-4.29,-4.29,-4.29,-4.29,-4.29,-4.29,-4.29,-4.29,-4.29,-4.29,-4.29,-4.29,-4.29,-4.29,-4.29,-4.29,-4.29,-4.29,-4.29,-4.29,-4.29,-4.29,-4.29,-4.29,-4.29,-4.29,-3.9843,-3.9896,-3.9932,-3.9932,-3.9914,-3.9932,-3.9968,-3.9968,-3.995,-3.9929,-4.0103,-4.1073,-4.1078,-4.0627,-4.0141,-3.9556,-3.9259,-3.9496,-3.9543,-3.956,-3.956,-3.956,-3.9353,-3.9043,-3.8991,-3.906,-3.9353,-3.9657,-3.989,-4.0229,-4.0535,-4.0628,-4.06,-4.0534,-4.015,-3.9729,-3.9238,-3.8986,-3.8529,-3.8214,-3.7772,-3.7381,-3.7051,-3.6949,-3.6797,-3.6468,-3.6299,-3.6214,-3.6332,-3.6349,-3.6547,-3.7114,-3.7555,-3.7621,-3.7802,-3.7883,-3.7775,-3.7751,-3.7946,-3.814,-3.8645,-3.926,-4.0093,-4.0872,-4.1651,-4.223,-4.2683,-4.2846,-4.2882,-4.29,-4.29,-4.29,-4.29,-4.29,-4.29,-4.29,-4.29,-4.29,-4.29,-4.29,-4.29,-4.29,-4.29,-4.29,-4.29,-4.29,-4.29,-4.29,-4.29,-4.29,-4.29,-4.29,-4.29,-4.29,-4.29,-4.29,-4.29,-4.29,-4.29,-4.29,-4.29,-4.29,-4.29,-4.29,-4.29,-4.29,-4.29,-4.29,-4.29,-4.29,-4.29,-4.29,-4.29,-4.29,-4.29,-3.9361,-3.9896,-3.9896,-3.9878,-3.986,-3.986,-3.9896,-3.9896,-3.986,-3.9818,-3.9585,-3.9576,-3.9645,-3.9557,-3.9346,-3.8868,-3.8503,-3.8743,-3.8784,-3.8801,-3.8801,-3.8784,-3.8663,-3.837,-3.8567,-3.8618,-3.8687,-3.9089,-3.9289,-3.9598,-4.0031,-4.0414,-4.0387,-4.0305,-4.0154,-3.9867,-3.9782,-3.9529,-3.9292,-3.895,-3.9086,-3.8565,-3.7846,-3.7509,-3.7118,-3.7216,-3.7212,-3.6958,-3.6772,-3.6671,-3.6717,-3.7121,-3.7342,-3.7437,-3.7501,-3.769,-3.7574,-3.756,-3.7702,-3.8093,-3.8686,-3.9514,-4.0274,-4.1017,-4.1759,-4.2448,-4.2755,-4.2864,-4.29,-4.29,-4.29,-4.29,-4.29,-4.29,-4.29,-4.29,-4.29,-4.29,-4.29,-4.29,-4.29,-4.29,-4.29,-4.29,-4.29,-4.29,-4.29,-4.29,-4.29,-4.29,-4.29,-4.29,-4.29,-4.29,-4.29,-4.29,-4.29,-4.29,-4.29,-4.29,-4.29,-4.29,-4.29,-4.29,-4.29,-4.29,-4.29,-4.29,-4.29,-4.29,-4.29,-4.29,-4.29,-4.29,-4.29]}]]